<?xml version='1.0' encoding='UTF-8'?>
<gpx version="1.1" creator="https://www.komoot.de" xmlns="http://www.topografix.com/GPX/1/1" xmlns:xsi="http://www.w3.org/2001/XMLSchema-instance" xsi:schemaLocation="http://www.topografix.com/GPX/1/1 http://www.topografix.com/GPX/1/1/gpx.xsd">
  <metadata>
    <name>Sen2026/5 Rothenburg-Unterschneidheim</name>
    <author>
      <link href="https://www.komoot.de">
        <text>komoot</text>
        <type>text/html</type>
      </link>
    </author>
  </metadata>
  <wpt lat="49.282595" lon="10.257022">
    <name>Quelle der Wörnitz</name>
    <sym>Flag, Blue</sym>
  </wpt>
  <wpt lat="49.251337" lon="10.330343">
    <name>Luitpoldbrunnen</name>
    <sym>Flag, Blue</sym>
  </wpt>
  <wpt lat="49.234173" lon="10.360063">
    <name>Quelle der Wieseth</name>
    <sym>Flag, Blue</sym>
  </wpt>
  <wpt lat="49.234161" lon="10.364219">
    <name>Pauhana Brauerei</name>
    <sym>Restaurant</sym>
  </wpt>
  <wpt lat="49.117020" lon="10.288273">
    <name>Blick auf Dinkelsbühl</name>
    <sym>Flag, Blue</sym>
  </wpt>
  <wpt lat="49.065827" lon="10.320648">
    <name>Hagelsturm-Turm</name>
    <sym>Flag, Blue</sym>
  </wpt>
  <wpt lat="49.054084" lon="10.336806">
    <name>Steinbrücke über den Walkweiherbach</name>
    <sym>Bridge</sym>
  </wpt>
  <wpt lat="49.042977" lon="10.352632">
    <name>Kleiner Weiher</name>
    <sym>Flag, Blue</sym>
  </wpt>
  <wpt lat="49.025665" lon="10.360925">
    <name>Uhrturm mit Bank</name>
    <sym>Flag, Blue</sym>
  </wpt>
  <wpt lat="48.981212" lon="10.326906">
    <name>Asphaltierter Weg Zwischen Stillau Und Bleichroden</name>
    <sym>Flag, Blue</sym>
  </wpt>
  <trk>
    <name>Sen2026/5 Rothenburg-Unterschneidheim</name>
    <trkseg>
      <trkpt lat="49.379876" lon="10.185476">
        <ele>438.584647</ele>
        <time>2026-04-26T14:39:04.484Z</time>
      </trkpt>
      <trkpt lat="49.379802" lon="10.185141">
        <ele>438.584647</ele>
        <time>2026-04-26T14:39:20.508Z</time>
      </trkpt>
      <trkpt lat="49.379886" lon="10.185097">
        <ele>438.584647</ele>
        <time>2026-04-26T14:39:26.678Z</time>
      </trkpt>
      <trkpt lat="49.379763" lon="10.184610">
        <ele>438.584647</ele>
        <time>2026-04-26T14:39:33.551Z</time>
      </trkpt>
      <trkpt lat="49.379703" lon="10.184505">
        <ele>438.584647</ele>
        <time>2026-04-26T14:39:35.442Z</time>
      </trkpt>
      <trkpt lat="49.379654" lon="10.184399">
        <ele>438.584647</ele>
        <time>2026-04-26T14:39:37.234Z</time>
      </trkpt>
      <trkpt lat="49.379517" lon="10.183993">
        <ele>438.370883</ele>
        <time>2026-04-26T14:39:43.456Z</time>
      </trkpt>
      <trkpt lat="49.379508" lon="10.183966">
        <ele>438.352775</ele>
        <time>2026-04-26T14:39:43.868Z</time>
      </trkpt>
      <trkpt lat="49.379476" lon="10.183869">
        <ele>438.287860</ele>
        <time>2026-04-26T14:39:45.318Z</time>
      </trkpt>
      <trkpt lat="49.379439" lon="10.183762">
        <ele>438.215535</ele>
        <time>2026-04-26T14:39:46.943Z</time>
      </trkpt>
      <trkpt lat="49.379434" lon="10.183748">
        <ele>438.206002</ele>
        <time>2026-04-26T14:39:47.148Z</time>
      </trkpt>
      <trkpt lat="49.379417" lon="10.183695">
        <ele>438.170732</ele>
        <time>2026-04-26T14:39:47.931Z</time>
      </trkpt>
      <trkpt lat="49.379156" lon="10.182918">
        <ele>437.648791</ele>
        <time>2026-04-26T14:39:59.532Z</time>
      </trkpt>
      <trkpt lat="49.379124" lon="10.182823">
        <ele>437.584938</ele>
        <time>2026-04-26T14:40:00.958Z</time>
      </trkpt>
      <trkpt lat="49.379088" lon="10.182722">
        <ele>437.516200</ele>
        <time>2026-04-26T14:40:02.494Z</time>
      </trkpt>
      <trkpt lat="49.379069" lon="10.182664">
        <ele>437.477440</ele>
        <time>2026-04-26T14:40:03.355Z</time>
      </trkpt>
      <trkpt lat="49.378971" lon="10.182394">
        <ele>437.292903</ele>
        <time>2026-04-26T14:40:07.438Z</time>
      </trkpt>
      <trkpt lat="49.378830" lon="10.182034">
        <ele>437.042102</ele>
        <time>2026-04-26T14:40:12.968Z</time>
      </trkpt>
      <trkpt lat="49.378730" lon="10.181779">
        <ele>436.793588</ele>
        <time>2026-04-26T14:40:16.817Z</time>
      </trkpt>
      <trkpt lat="49.378569" lon="10.181352">
        <ele>436.205381</ele>
        <time>2026-04-26T14:40:23.151Z</time>
      </trkpt>
      <trkpt lat="49.378451" lon="10.181043">
        <ele>435.778347</ele>
        <time>2026-04-26T14:40:27.771Z</time>
      </trkpt>
      <trkpt lat="49.378298" lon="10.180583">
        <ele>435.162585</ele>
        <time>2026-04-26T14:40:34.291Z</time>
      </trkpt>
      <trkpt lat="49.378203" lon="10.180333">
        <ele>434.817521</ele>
        <time>2026-04-26T14:40:37.869Z</time>
      </trkpt>
      <trkpt lat="49.378172" lon="10.180263">
        <ele>434.716602</ele>
        <time>2026-04-26T14:40:38.920Z</time>
      </trkpt>
      <trkpt lat="49.378151" lon="10.180211">
        <ele>434.643657</ele>
        <time>2026-04-26T14:40:39.659Z</time>
      </trkpt>
      <trkpt lat="49.378109" lon="10.180077">
        <ele>434.466373</ele>
        <time>2026-04-26T14:40:41.439Z</time>
      </trkpt>
      <trkpt lat="49.378067" lon="10.179944">
        <ele>434.290162</ele>
        <time>2026-04-26T14:40:43.149Z</time>
      </trkpt>
      <trkpt lat="49.378007" lon="10.179729">
        <ele>434.011315</ele>
        <time>2026-04-26T14:40:45.835Z</time>
      </trkpt>
      <trkpt lat="49.377924" lon="10.179434">
        <ele>433.614038</ele>
        <time>2026-04-26T14:40:49.528Z</time>
      </trkpt>
      <trkpt lat="49.377860" lon="10.179057">
        <ele>432.677876</ele>
        <time>2026-04-26T14:40:53.865Z</time>
      </trkpt>
      <trkpt lat="49.377854" lon="10.178631">
        <ele>431.654022</ele>
        <time>2026-04-26T14:40:58.528Z</time>
      </trkpt>
      <trkpt lat="49.377839" lon="10.178521">
        <ele>431.383973</ele>
        <time>2026-04-26T14:40:59.743Z</time>
      </trkpt>
      <trkpt lat="49.377791" lon="10.178226">
        <ele>430.653330</ele>
        <time>2026-04-26T14:41:03.076Z</time>
      </trkpt>
      <trkpt lat="49.377787" lon="10.178202">
        <ele>430.593802</ele>
        <time>2026-04-26T14:41:03.351Z</time>
      </trkpt>
      <trkpt lat="49.377642" lon="10.178236">
        <ele>430.052460</ele>
        <time>2026-04-26T14:41:05.845Z</time>
      </trkpt>
      <trkpt lat="49.377421" lon="10.178228">
        <ele>429.236604</ele>
        <time>2026-04-26T14:41:10.793Z</time>
      </trkpt>
      <trkpt lat="49.377376" lon="10.178236">
        <ele>429.069416</ele>
        <time>2026-04-26T14:41:11.557Z</time>
      </trkpt>
      <trkpt lat="49.376926" lon="10.178315">
        <ele>427.397818</ele>
        <time>2026-04-26T14:41:19.027Z</time>
      </trkpt>
      <trkpt lat="49.376942" lon="10.178548">
        <ele>426.709323</ele>
        <time>2026-04-26T14:41:21.454Z</time>
      </trkpt>
      <trkpt lat="49.376951" lon="10.178698">
        <ele>426.078879</ele>
        <time>2026-04-26T14:41:23.007Z</time>
      </trkpt>
      <trkpt lat="49.376957" lon="10.178825">
        <ele>425.545958</ele>
        <time>2026-04-26T14:41:24.329Z</time>
      </trkpt>
      <trkpt lat="49.376937" lon="10.178989">
        <ele>424.847645</ele>
        <time>2026-04-26T14:41:26.008Z</time>
      </trkpt>
      <trkpt lat="49.376914" lon="10.179094">
        <ele>424.383992</ele>
        <time>2026-04-26T14:41:27.124Z</time>
      </trkpt>
      <trkpt lat="49.376871" lon="10.179290">
        <ele>423.518369</ele>
        <time>2026-04-26T14:41:29.185Z</time>
      </trkpt>
      <trkpt lat="49.375919" lon="10.179591">
        <ele>417.270466</ele>
        <time>2026-04-26T14:41:43.690Z</time>
      </trkpt>
      <trkpt lat="49.375659" lon="10.179707">
        <ele>415.530064</ele>
        <time>2026-04-26T14:41:48.916Z</time>
      </trkpt>
      <trkpt lat="49.375463" lon="10.179773">
        <ele>414.897817</ele>
        <time>2026-04-26T14:41:51.909Z</time>
      </trkpt>
      <trkpt lat="49.375196" lon="10.179861">
        <ele>414.102842</ele>
        <time>2026-04-26T14:41:56.115Z</time>
      </trkpt>
      <trkpt lat="49.375089" lon="10.179898">
        <ele>413.783550</ele>
        <time>2026-04-26T14:41:57.878Z</time>
      </trkpt>
      <trkpt lat="49.374722" lon="10.180013">
        <ele>412.693145</ele>
        <time>2026-04-26T14:42:04.182Z</time>
      </trkpt>
      <trkpt lat="49.374503" lon="10.180124">
        <ele>412.021781</ele>
        <time>2026-04-26T14:42:08.480Z</time>
      </trkpt>
      <trkpt lat="49.374450" lon="10.180150">
        <ele>411.859810</ele>
        <time>2026-04-26T14:42:09.606Z</time>
      </trkpt>
      <trkpt lat="49.374397" lon="10.180160">
        <ele>411.704358</ele>
        <time>2026-04-26T14:42:10.702Z</time>
      </trkpt>
      <trkpt lat="49.374246" lon="10.180196">
        <ele>411.259508</ele>
        <time>2026-04-26T14:42:14.058Z</time>
      </trkpt>
      <trkpt lat="49.374020" lon="10.180256">
        <ele>410.591829</ele>
        <time>2026-04-26T14:42:19.321Z</time>
      </trkpt>
      <trkpt lat="49.373991" lon="10.180264">
        <ele>410.506054</ele>
        <time>2026-04-26T14:42:19.995Z</time>
      </trkpt>
      <trkpt lat="49.373919" lon="10.180284">
        <ele>410.293050</ele>
        <time>2026-04-26T14:42:21.654Z</time>
      </trkpt>
      <trkpt lat="49.373899" lon="10.180289">
        <ele>410.234060</ele>
        <time>2026-04-26T14:42:22.135Z</time>
      </trkpt>
      <trkpt lat="49.373741" lon="10.180342">
        <ele>410.220085</ele>
        <time>2026-04-26T14:42:25.880Z</time>
      </trkpt>
      <trkpt lat="49.373272" lon="10.180409">
        <ele>410.263705</ele>
        <time>2026-04-26T14:42:36.846Z</time>
      </trkpt>
      <trkpt lat="49.373053" lon="10.180421">
        <ele>410.283998</ele>
        <time>2026-04-26T14:42:41.932Z</time>
      </trkpt>
      <trkpt lat="49.372833" lon="10.180425">
        <ele>410.304373</ele>
        <time>2026-04-26T14:42:46.966Z</time>
      </trkpt>
      <trkpt lat="49.372765" lon="10.180432">
        <ele>410.310684</ele>
        <time>2026-04-26T14:42:48.528Z</time>
      </trkpt>
      <trkpt lat="49.372348" lon="10.180465">
        <ele>410.349353</ele>
        <time>2026-04-26T14:42:57.931Z</time>
      </trkpt>
      <trkpt lat="49.371902" lon="10.180570">
        <ele>409.700057</ele>
        <time>2026-04-26T14:43:06.891Z</time>
      </trkpt>
      <trkpt lat="49.371806" lon="10.180603">
        <ele>409.370153</ele>
        <time>2026-04-26T14:43:08.636Z</time>
      </trkpt>
      <trkpt lat="49.371592" lon="10.180685">
        <ele>408.630497</ele>
        <time>2026-04-26T14:43:12.290Z</time>
      </trkpt>
      <trkpt lat="49.371522" lon="10.180710">
        <ele>408.389487</ele>
        <time>2026-04-26T14:43:13.440Z</time>
      </trkpt>
      <trkpt lat="49.371403" lon="10.180757">
        <ele>407.977431</ele>
        <time>2026-04-26T14:43:15.394Z</time>
      </trkpt>
      <trkpt lat="49.371164" lon="10.180855">
        <ele>407.147861</ele>
        <time>2026-04-26T14:43:19.492Z</time>
      </trkpt>
      <trkpt lat="49.371150" lon="10.180863">
        <ele>407.097767</ele>
        <time>2026-04-26T14:43:19.745Z</time>
      </trkpt>
      <trkpt lat="49.371069" lon="10.180917">
        <ele>406.801641</ele>
        <time>2026-04-26T14:43:21.329Z</time>
      </trkpt>
      <trkpt lat="49.371061" lon="10.180922">
        <ele>406.772677</ele>
        <time>2026-04-26T14:43:21.478Z</time>
      </trkpt>
      <trkpt lat="49.370939" lon="10.181017">
        <ele>406.313958</ele>
        <time>2026-04-26T14:43:23.786Z</time>
      </trkpt>
      <trkpt lat="49.370915" lon="10.181038">
        <ele>406.221326</ele>
        <time>2026-04-26T14:43:24.234Z</time>
      </trkpt>
      <trkpt lat="49.370891" lon="10.181058">
        <ele>406.129756</ele>
        <time>2026-04-26T14:43:24.691Z</time>
      </trkpt>
      <trkpt lat="49.370842" lon="10.181086">
        <ele>405.954426</ele>
        <time>2026-04-26T14:43:25.532Z</time>
      </trkpt>
      <trkpt lat="49.370756" lon="10.181073">
        <ele>405.664629</ele>
        <time>2026-04-26T14:43:26.961Z</time>
      </trkpt>
      <trkpt lat="49.370662" lon="10.181024">
        <ele>405.331733</ele>
        <time>2026-04-26T14:43:28.559Z</time>
      </trkpt>
      <trkpt lat="49.370592" lon="10.181015">
        <ele>405.096165</ele>
        <time>2026-04-26T14:43:29.696Z</time>
      </trkpt>
      <trkpt lat="49.370505" lon="10.181054">
        <ele>404.792233</ele>
        <time>2026-04-26T14:43:31.178Z</time>
      </trkpt>
      <trkpt lat="49.370485" lon="10.181068">
        <ele>404.718523</ele>
        <time>2026-04-26T14:43:31.545Z</time>
      </trkpt>
      <trkpt lat="49.370434" lon="10.181058">
        <ele>404.546105</ele>
        <time>2026-04-26T14:43:32.353Z</time>
      </trkpt>
      <trkpt lat="49.370418" lon="10.181179">
        <ele>404.276627</ele>
        <time>2026-04-26T14:43:33.599Z</time>
      </trkpt>
      <trkpt lat="49.370397" lon="10.181389">
        <ele>403.813707</ele>
        <time>2026-04-26T14:43:35.728Z</time>
      </trkpt>
      <trkpt lat="49.370398" lon="10.181740">
        <ele>403.048927</ele>
        <time>2026-04-26T14:43:39.251Z</time>
      </trkpt>
      <trkpt lat="49.370267" lon="10.181777">
        <ele>402.603242</ele>
        <time>2026-04-26T14:43:41.339Z</time>
      </trkpt>
      <trkpt lat="49.370230" lon="10.181815">
        <ele>402.454303</ele>
        <time>2026-04-26T14:43:42.009Z</time>
      </trkpt>
      <trkpt lat="49.370002" lon="10.182040">
        <ele>401.547465</ele>
        <time>2026-04-26T14:43:46.440Z</time>
      </trkpt>
      <trkpt lat="49.369884" lon="10.182151">
        <ele>401.084445</ele>
        <time>2026-04-26T14:43:48.868Z</time>
      </trkpt>
      <trkpt lat="49.369351" lon="10.182603">
        <ele>399.047138</ele>
        <time>2026-04-26T14:43:59.117Z</time>
      </trkpt>
      <trkpt lat="49.368729" lon="10.183069">
        <ele>398.143349</ele>
        <time>2026-04-26T14:44:10.192Z</time>
      </trkpt>
      <trkpt lat="49.368465" lon="10.183269">
        <ele>398.032491</ele>
        <time>2026-04-26T14:44:15.217Z</time>
      </trkpt>
      <trkpt lat="49.368130" lon="10.183573">
        <ele>397.885954</ele>
        <time>2026-04-26T14:44:23.033Z</time>
      </trkpt>
      <trkpt lat="49.367864" lon="10.183890">
        <ele>397.759157</ele>
        <time>2026-04-26T14:44:30.675Z</time>
      </trkpt>
      <trkpt lat="49.367807" lon="10.183970">
        <ele>397.730077</ele>
        <time>2026-04-26T14:44:32.458Z</time>
      </trkpt>
      <trkpt lat="49.366762" lon="10.185572">
        <ele>401.497153</ele>
        <time>2026-04-26T14:45:10.346Z</time>
      </trkpt>
      <trkpt lat="49.366430" lon="10.186007">
        <ele>402.841154</ele>
        <time>2026-04-26T14:45:20.751Z</time>
      </trkpt>
      <trkpt lat="49.365879" lon="10.186592">
        <ele>402.596111</ele>
        <time>2026-04-26T14:45:35.372Z</time>
      </trkpt>
      <trkpt lat="49.365612" lon="10.186536">
        <ele>402.312441</ele>
        <time>2026-04-26T14:45:40.572Z</time>
      </trkpt>
      <trkpt lat="49.365444" lon="10.186623">
        <ele>402.125808</ele>
        <time>2026-04-26T14:45:43.975Z</time>
      </trkpt>
      <trkpt lat="49.365335" lon="10.186683">
        <ele>402.003918</ele>
        <time>2026-04-26T14:45:46.176Z</time>
      </trkpt>
      <trkpt lat="49.365243" lon="10.186742">
        <ele>401.898967</ele>
        <time>2026-04-26T14:45:53.088Z</time>
      </trkpt>
      <trkpt lat="49.365181" lon="10.186882">
        <ele>401.782904</ele>
        <time>2026-04-26T14:46:00.767Z</time>
      </trkpt>
      <trkpt lat="49.365224" lon="10.187602">
        <ele>401.273811</ele>
        <time>2026-04-26T14:46:33.487Z</time>
      </trkpt>
      <trkpt lat="49.365065" lon="10.187838">
        <ele>400.131698</ele>
        <time>2026-04-26T14:46:36.994Z</time>
      </trkpt>
      <trkpt lat="49.364856" lon="10.188038">
        <ele>398.859823</ele>
        <time>2026-04-26T14:46:40.832Z</time>
      </trkpt>
      <trkpt lat="49.364507" lon="10.188271">
        <ele>396.894345</ele>
        <time>2026-04-26T14:46:46.632Z</time>
      </trkpt>
      <trkpt lat="49.364390" lon="10.188405">
        <ele>396.140502</ele>
        <time>2026-04-26T14:46:48.806Z</time>
      </trkpt>
      <trkpt lat="49.364322" lon="10.188531">
        <ele>395.590095</ele>
        <time>2026-04-26T14:46:50.378Z</time>
      </trkpt>
      <trkpt lat="49.364269" lon="10.188742">
        <ele>394.829438</ele>
        <time>2026-04-26T14:46:52.520Z</time>
      </trkpt>
      <trkpt lat="49.364351" lon="10.189340">
        <ele>392.773965</ele>
        <time>2026-04-26T14:46:58.216Z</time>
      </trkpt>
      <trkpt lat="49.364291" lon="10.189380">
        <ele>392.436136</ele>
        <time>2026-04-26T14:46:59.144Z</time>
      </trkpt>
      <trkpt lat="49.364285" lon="10.189360">
        <ele>392.362072</ele>
        <time>2026-04-26T14:46:59.346Z</time>
      </trkpt>
      <trkpt lat="49.364244" lon="10.189210">
        <ele>391.840122</ele>
        <time>2026-04-26T14:47:00.868Z</time>
      </trkpt>
      <trkpt lat="49.364234" lon="10.189174">
        <ele>391.726294</ele>
        <time>2026-04-26T14:47:01.233Z</time>
      </trkpt>
      <trkpt lat="49.364165" lon="10.189293">
        <ele>391.262894</ele>
        <time>2026-04-26T14:47:02.733Z</time>
      </trkpt>
      <trkpt lat="49.363867" lon="10.189829">
        <ele>389.213181</ele>
        <time>2026-04-26T14:47:09.483Z</time>
      </trkpt>
      <trkpt lat="49.363785" lon="10.190041">
        <ele>388.496045</ele>
        <time>2026-04-26T14:47:11.889Z</time>
      </trkpt>
      <trkpt lat="49.363660" lon="10.190375">
        <ele>387.375654</ele>
        <time>2026-04-26T14:47:15.687Z</time>
      </trkpt>
      <trkpt lat="49.363110" lon="10.192398">
        <ele>383.019743</ele>
        <time>2026-04-26T14:47:39.759Z</time>
      </trkpt>
      <trkpt lat="49.363098" lon="10.192436">
        <ele>382.980483</ele>
        <time>2026-04-26T14:47:40.314Z</time>
      </trkpt>
      <trkpt lat="49.362905" lon="10.193133">
        <ele>382.276401</ele>
        <time>2026-04-26T14:47:50.283Z</time>
      </trkpt>
      <trkpt lat="49.362829" lon="10.193446">
        <ele>381.965863</ele>
        <time>2026-04-26T14:47:54.768Z</time>
      </trkpt>
      <trkpt lat="49.362784" lon="10.193644">
        <ele>381.770910</ele>
        <time>2026-04-26T14:47:57.625Z</time>
      </trkpt>
      <trkpt lat="49.362521" lon="10.194789">
        <ele>379.553902</ele>
        <time>2026-04-26T14:48:12.809Z</time>
      </trkpt>
      <trkpt lat="49.362444" lon="10.195137">
        <ele>378.722349</ele>
        <time>2026-04-26T14:48:16.664Z</time>
      </trkpt>
      <trkpt lat="49.362389" lon="10.195360">
        <ele>378.182841</ele>
        <time>2026-04-26T14:48:19.066Z</time>
      </trkpt>
      <trkpt lat="49.361942" lon="10.195582">
        <ele>376.550756</ele>
        <time>2026-04-26T14:48:26.137Z</time>
      </trkpt>
      <trkpt lat="49.361436" lon="10.195795">
        <ele>374.910149</ele>
        <time>2026-04-26T14:48:34.048Z</time>
      </trkpt>
      <trkpt lat="49.361093" lon="10.196026">
        <ele>374.166788</ele>
        <time>2026-04-26T14:48:39.766Z</time>
      </trkpt>
      <trkpt lat="49.360971" lon="10.196032">
        <ele>373.924530</ele>
        <time>2026-04-26T14:48:41.647Z</time>
      </trkpt>
      <trkpt lat="49.360619" lon="10.196313">
        <ele>373.137130</ele>
        <time>2026-04-26T14:48:48.116Z</time>
      </trkpt>
      <trkpt lat="49.360453" lon="10.196539">
        <ele>372.696803</ele>
        <time>2026-04-26T14:48:52.354Z</time>
      </trkpt>
      <trkpt lat="49.360148" lon="10.196689">
        <ele>372.061172</ele>
        <time>2026-04-26T14:48:59.344Z</time>
      </trkpt>
      <trkpt lat="49.360074" lon="10.196721">
        <ele>371.908590</ele>
        <time>2026-04-26T14:49:01.085Z</time>
      </trkpt>
      <trkpt lat="49.359958" lon="10.196780">
        <ele>371.666061</ele>
        <time>2026-04-26T14:49:03.928Z</time>
      </trkpt>
      <trkpt lat="49.359917" lon="10.196798">
        <ele>371.585695</ele>
        <time>2026-04-26T14:49:04.932Z</time>
      </trkpt>
      <trkpt lat="49.359806" lon="10.196857">
        <ele>371.968755</ele>
        <time>2026-04-26T14:49:07.702Z</time>
      </trkpt>
      <trkpt lat="49.359411" lon="10.197205">
        <ele>373.453892</ele>
        <time>2026-04-26T14:49:18.532Z</time>
      </trkpt>
      <trkpt lat="49.359048" lon="10.197636">
        <ele>374.950347</ele>
        <time>2026-04-26T14:49:29.875Z</time>
      </trkpt>
      <trkpt lat="49.358719" lon="10.198190">
        <ele>376.542753</ele>
        <time>2026-04-26T14:49:42.674Z</time>
      </trkpt>
      <trkpt lat="49.358341" lon="10.198923">
        <ele>378.062176</ele>
        <time>2026-04-26T14:49:58.360Z</time>
      </trkpt>
      <trkpt lat="49.358090" lon="10.199307">
        <ele>378.718672</ele>
        <time>2026-04-26T14:50:07.000Z</time>
      </trkpt>
      <trkpt lat="49.357709" lon="10.199597">
        <ele>379.506552</ele>
        <time>2026-04-26T14:50:16.933Z</time>
      </trkpt>
      <trkpt lat="49.356345" lon="10.200313">
        <ele>380.716724</ele>
        <time>2026-04-26T14:50:46.672Z</time>
      </trkpt>
      <trkpt lat="49.356238" lon="10.200371">
        <ele>380.707044</ele>
        <time>2026-04-26T14:50:48.977Z</time>
      </trkpt>
      <trkpt lat="49.355328" lon="10.200825">
        <ele>380.609245</ele>
        <time>2026-04-26T14:51:09.227Z</time>
      </trkpt>
      <trkpt lat="49.355075" lon="10.200942">
        <ele>380.417909</ele>
        <time>2026-04-26T14:51:16.548Z</time>
      </trkpt>
      <trkpt lat="49.354914" lon="10.201007">
        <ele>380.297360</ele>
        <time>2026-04-26T14:51:20.111Z</time>
      </trkpt>
      <trkpt lat="49.354885" lon="10.200928">
        <ele>380.254587</ele>
        <time>2026-04-26T14:51:21.367Z</time>
      </trkpt>
      <trkpt lat="49.354318" lon="10.201230">
        <ele>379.819996</ele>
        <time>2026-04-26T14:51:33.539Z</time>
      </trkpt>
      <trkpt lat="49.353603" lon="10.201586">
        <ele>379.175451</ele>
        <time>2026-04-26T14:51:47.319Z</time>
      </trkpt>
      <trkpt lat="49.353256" lon="10.201761">
        <ele>378.374604</ele>
        <time>2026-04-26T14:51:53.772Z</time>
      </trkpt>
      <trkpt lat="49.352739" lon="10.202028">
        <ele>377.178588</ele>
        <time>2026-04-26T14:52:03.255Z</time>
      </trkpt>
      <trkpt lat="49.352493" lon="10.202176">
        <ele>376.599259</ele>
        <time>2026-04-26T14:52:07.777Z</time>
      </trkpt>
      <trkpt lat="49.352144" lon="10.202395">
        <ele>375.772569</ele>
        <time>2026-04-26T14:52:14.118Z</time>
      </trkpt>
      <trkpt lat="49.351985" lon="10.202477">
        <ele>375.404793</ele>
        <time>2026-04-26T14:52:16.934Z</time>
      </trkpt>
      <trkpt lat="49.351670" lon="10.202579">
        <ele>374.692669</ele>
        <time>2026-04-26T14:52:22.373Z</time>
      </trkpt>
      <trkpt lat="49.351601" lon="10.202602">
        <ele>374.536435</ele>
        <time>2026-04-26T14:52:23.573Z</time>
      </trkpt>
      <trkpt lat="49.351487" lon="10.202639">
        <ele>374.278610</ele>
        <time>2026-04-26T14:52:25.569Z</time>
      </trkpt>
      <trkpt lat="49.351132" lon="10.202782">
        <ele>373.466508</ele>
        <time>2026-04-26T14:52:31.902Z</time>
      </trkpt>
      <trkpt lat="49.350883" lon="10.202893">
        <ele>372.892784</ele>
        <time>2026-04-26T14:52:36.391Z</time>
      </trkpt>
      <trkpt lat="49.350443" lon="10.203008">
        <ele>371.905184</ele>
        <time>2026-04-26T14:52:44.123Z</time>
      </trkpt>
      <trkpt lat="49.350324" lon="10.203007">
        <ele>371.641869</ele>
        <time>2026-04-26T14:52:46.188Z</time>
      </trkpt>
      <trkpt lat="49.350273" lon="10.203006">
        <ele>371.529012</ele>
        <time>2026-04-26T14:52:47.088Z</time>
      </trkpt>
      <trkpt lat="49.349788" lon="10.203034">
        <ele>371.056922</ele>
        <time>2026-04-26T14:52:55.931Z</time>
      </trkpt>
      <trkpt lat="49.349309" lon="10.203134">
        <ele>370.667478</ele>
        <time>2026-04-26T14:53:05.016Z</time>
      </trkpt>
      <trkpt lat="49.348620" lon="10.203216">
        <ele>370.110740</ele>
        <time>2026-04-26T14:53:18.890Z</time>
      </trkpt>
      <trkpt lat="49.348517" lon="10.203222">
        <ele>370.027701</ele>
        <time>2026-04-26T14:53:21.096Z</time>
      </trkpt>
      <trkpt lat="49.348276" lon="10.203221">
        <ele>370.283274</ele>
        <time>2026-04-26T14:53:26.403Z</time>
      </trkpt>
      <trkpt lat="49.348241" lon="10.203221">
        <ele>370.361703</ele>
        <time>2026-04-26T14:53:27.194Z</time>
      </trkpt>
      <trkpt lat="49.347541" lon="10.203150">
        <ele>371.933698</ele>
        <time>2026-04-26T14:53:43.338Z</time>
      </trkpt>
      <trkpt lat="49.346941" lon="10.203026">
        <ele>373.290321</ele>
        <time>2026-04-26T14:53:57.987Z</time>
      </trkpt>
      <trkpt lat="49.346905" lon="10.203188">
        <ele>373.540196</ele>
        <time>2026-04-26T14:54:00.749Z</time>
      </trkpt>
      <trkpt lat="49.346667" lon="10.203557">
        <ele>374.595118</ele>
        <time>2026-04-26T14:54:09.253Z</time>
      </trkpt>
      <trkpt lat="49.346093" lon="10.204441">
        <ele>378.132769</ele>
        <time>2026-04-26T14:54:30.411Z</time>
      </trkpt>
      <trkpt lat="49.345588" lon="10.205028">
        <ele>380.888808</ele>
        <time>2026-04-26T14:54:47.246Z</time>
      </trkpt>
      <trkpt lat="49.344474" lon="10.206112">
        <ele>384.842297</ele>
        <time>2026-04-26T14:55:20.631Z</time>
      </trkpt>
      <trkpt lat="49.343698" lon="10.207106">
        <ele>386.951607</ele>
        <time>2026-04-26T14:55:43.218Z</time>
      </trkpt>
      <trkpt lat="49.343329" lon="10.207490">
        <ele>387.253620</ele>
        <time>2026-04-26T14:55:52.544Z</time>
      </trkpt>
      <trkpt lat="49.342966" lon="10.207720">
        <ele>387.519658</ele>
        <time>2026-04-26T14:56:00.911Z</time>
      </trkpt>
      <trkpt lat="49.342119" lon="10.208142">
        <ele>388.857672</ele>
        <time>2026-04-26T14:56:20.947Z</time>
      </trkpt>
      <trkpt lat="49.341314" lon="10.208525">
        <ele>391.904368</ele>
        <time>2026-04-26T14:56:41.022Z</time>
      </trkpt>
      <trkpt lat="49.340654" lon="10.209010">
        <ele>394.682915</ele>
        <time>2026-04-26T14:57:00.810Z</time>
      </trkpt>
      <trkpt lat="49.340409" lon="10.209256">
        <ele>397.240725</ele>
        <time>2026-04-26T14:57:09.727Z</time>
      </trkpt>
      <trkpt lat="49.340340" lon="10.209335">
        <ele>397.992802</ele>
        <time>2026-04-26T14:57:12.492Z</time>
      </trkpt>
      <trkpt lat="49.339944" lon="10.209785">
        <ele>402.297558</ele>
        <time>2026-04-26T14:57:29.572Z</time>
      </trkpt>
      <trkpt lat="49.339526" lon="10.210290">
        <ele>406.945129</ele>
        <time>2026-04-26T14:57:49.831Z</time>
      </trkpt>
      <trkpt lat="49.339210" lon="10.210562">
        <ele>410.110421</ele>
        <time>2026-04-26T14:58:03.317Z</time>
      </trkpt>
      <trkpt lat="49.338960" lon="10.210713">
        <ele>411.574043</ele>
        <time>2026-04-26T14:58:12.560Z</time>
      </trkpt>
      <trkpt lat="49.338687" lon="10.210836">
        <ele>413.099919</ele>
        <time>2026-04-26T14:58:21.739Z</time>
      </trkpt>
      <trkpt lat="49.338392" lon="10.210897">
        <ele>414.696289</ele>
        <time>2026-04-26T14:58:30.463Z</time>
      </trkpt>
      <trkpt lat="49.337973" lon="10.210881">
        <ele>416.944067</ele>
        <time>2026-04-26T14:58:41.176Z</time>
      </trkpt>
      <trkpt lat="49.337696" lon="10.210920">
        <ele>418.435846</ele>
        <time>2026-04-26T14:58:48.027Z</time>
      </trkpt>
      <trkpt lat="49.337393" lon="10.211092">
        <ele>419.948387</ele>
        <time>2026-04-26T14:58:55.818Z</time>
      </trkpt>
      <trkpt lat="49.337290" lon="10.211158">
        <ele>420.173788</ele>
        <time>2026-04-26T14:58:58.481Z</time>
      </trkpt>
      <trkpt lat="49.337111" lon="10.211346">
        <ele>420.611807</ele>
        <time>2026-04-26T14:59:03.657Z</time>
      </trkpt>
      <trkpt lat="49.337003" lon="10.211560">
        <ele>420.967983</ele>
        <time>2026-04-26T14:59:07.810Z</time>
      </trkpt>
      <trkpt lat="49.336521" lon="10.212522">
        <ele>422.564802</ele>
        <time>2026-04-26T14:59:26.287Z</time>
      </trkpt>
      <trkpt lat="49.336099" lon="10.213374">
        <ele>424.593960</ele>
        <time>2026-04-26T14:59:43.685Z</time>
      </trkpt>
      <trkpt lat="49.336025" lon="10.213731">
        <ele>425.669546</ele>
        <time>2026-04-26T14:59:49.893Z</time>
      </trkpt>
      <trkpt lat="49.336008" lon="10.214370">
        <ele>427.505699</ele>
        <time>2026-04-26T15:00:00.675Z</time>
      </trkpt>
      <trkpt lat="49.336055" lon="10.215305">
        <ele>430.198139</ele>
        <time>2026-04-26T15:00:17.670Z</time>
      </trkpt>
      <trkpt lat="49.336013" lon="10.215744">
        <ele>431.485501</ele>
        <time>2026-04-26T15:00:26.003Z</time>
      </trkpt>
      <trkpt lat="49.335924" lon="10.216209">
        <ele>433.065062</ele>
        <time>2026-04-26T15:00:34.781Z</time>
      </trkpt>
      <trkpt lat="49.335638" lon="10.217213">
        <ele>436.636341</ele>
        <time>2026-04-26T15:00:54.215Z</time>
      </trkpt>
      <trkpt lat="49.335582" lon="10.217407">
        <ele>437.327896</ele>
        <time>2026-04-26T15:00:57.900Z</time>
      </trkpt>
      <trkpt lat="49.335211" lon="10.218764">
        <ele>441.802014</ele>
        <time>2026-04-26T15:01:23.760Z</time>
      </trkpt>
      <trkpt lat="49.335093" lon="10.219187">
        <ele>443.026431</ele>
        <time>2026-04-26T15:01:31.910Z</time>
      </trkpt>
      <trkpt lat="49.335068" lon="10.219307">
        <ele>443.361676</ele>
        <time>2026-04-26T15:01:34.162Z</time>
      </trkpt>
      <trkpt lat="49.334971" lon="10.219725">
        <ele>444.542412</ele>
        <time>2026-04-26T15:01:41.941Z</time>
      </trkpt>
      <trkpt lat="49.334864" lon="10.220506">
        <ele>446.666115</ele>
        <time>2026-04-26T15:01:55.418Z</time>
      </trkpt>
      <trkpt lat="49.334737" lon="10.221164">
        <ele>447.930354</ele>
        <time>2026-04-26T15:02:06.390Z</time>
      </trkpt>
      <trkpt lat="49.334524" lon="10.221877">
        <ele>448.510854</ele>
        <time>2026-04-26T15:02:18.380Z</time>
      </trkpt>
      <trkpt lat="49.334409" lon="10.222493">
        <ele>448.985098</ele>
        <time>2026-04-26T15:02:27.897Z</time>
      </trkpt>
      <trkpt lat="49.334390" lon="10.222616">
        <ele>449.078653</ele>
        <time>2026-04-26T15:02:29.761Z</time>
      </trkpt>
      <trkpt lat="49.334213" lon="10.223833">
        <ele>449.874400</ele>
        <time>2026-04-26T15:02:48.099Z</time>
      </trkpt>
      <trkpt lat="49.334045" lon="10.224458">
        <ele>450.114993</ele>
        <time>2026-04-26T15:02:58.130Z</time>
      </trkpt>
      <trkpt lat="49.333907" lon="10.224737">
        <ele>450.239640</ele>
        <time>2026-04-26T15:03:03.370Z</time>
      </trkpt>
      <trkpt lat="49.333707" lon="10.225018">
        <ele>450.387723</ele>
        <time>2026-04-26T15:03:09.583Z</time>
      </trkpt>
      <trkpt lat="49.333231" lon="10.225361">
        <ele>450.674898</ele>
        <time>2026-04-26T15:03:21.620Z</time>
      </trkpt>
      <trkpt lat="49.332393" lon="10.225587">
        <ele>451.353795</ele>
        <time>2026-04-26T15:03:40.913Z</time>
      </trkpt>
      <trkpt lat="49.332294" lon="10.225606">
        <ele>451.437417</ele>
        <time>2026-04-26T15:03:43.188Z</time>
      </trkpt>
      <trkpt lat="49.331505" lon="10.225768">
        <ele>452.104603</ele>
        <time>2026-04-26T15:04:01.634Z</time>
      </trkpt>
      <trkpt lat="49.330989" lon="10.225823">
        <ele>452.723565</ele>
        <time>2026-04-26T15:04:13.796Z</time>
      </trkpt>
      <trkpt lat="49.330866" lon="10.225835">
        <ele>452.892532</ele>
        <time>2026-04-26T15:04:16.724Z</time>
      </trkpt>
      <trkpt lat="49.330487" lon="10.225869">
        <ele>453.413008</ele>
        <time>2026-04-26T15:04:25.836Z</time>
      </trkpt>
      <trkpt lat="49.330141" lon="10.225843">
        <ele>453.887923</ele>
        <time>2026-04-26T15:04:34.108Z</time>
      </trkpt>
      <trkpt lat="49.329544" lon="10.225563">
        <ele>454.740625</ele>
        <time>2026-04-26T15:04:48.601Z</time>
      </trkpt>
      <trkpt lat="49.329230" lon="10.225473">
        <ele>455.135013</ele>
        <time>2026-04-26T15:04:55.947Z</time>
      </trkpt>
      <trkpt lat="49.328785" lon="10.225429">
        <ele>455.685575</ele>
        <time>2026-04-26T15:05:06.086Z</time>
      </trkpt>
      <trkpt lat="49.328426" lon="10.225484">
        <ele>456.131021</ele>
        <time>2026-04-26T15:05:14.255Z</time>
      </trkpt>
      <trkpt lat="49.328068" lon="10.225647">
        <ele>456.592077</ele>
        <time>2026-04-26T15:05:22.950Z</time>
      </trkpt>
      <trkpt lat="49.327599" lon="10.225927">
        <ele>458.038967</ele>
        <time>2026-04-26T15:05:35.113Z</time>
      </trkpt>
      <trkpt lat="49.326629" lon="10.226540">
        <ele>463.146826</ele>
        <time>2026-04-26T15:06:03.095Z</time>
      </trkpt>
      <trkpt lat="49.326230" lon="10.226681">
        <ele>465.140425</ele>
        <time>2026-04-26T15:06:15.406Z</time>
      </trkpt>
      <trkpt lat="49.325940" lon="10.226658">
        <ele>467.117725</ele>
        <time>2026-04-26T15:06:24.540Z</time>
      </trkpt>
      <trkpt lat="49.325641" lon="10.226526">
        <ele>469.620770</ele>
        <time>2026-04-26T15:06:34.679Z</time>
      </trkpt>
      <trkpt lat="49.325361" lon="10.226379">
        <ele>472.001589</ele>
        <time>2026-04-26T15:06:44.574Z</time>
      </trkpt>
      <trkpt lat="49.325028" lon="10.226266">
        <ele>474.745310</ele>
        <time>2026-04-26T15:06:56.130Z</time>
      </trkpt>
      <trkpt lat="49.324737" lon="10.226235">
        <ele>477.092039</ele>
        <time>2026-04-26T15:07:06.030Z</time>
      </trkpt>
      <trkpt lat="49.324383" lon="10.226278">
        <ele>479.948876</ele>
        <time>2026-04-26T15:07:17.880Z</time>
      </trkpt>
      <trkpt lat="49.324014" lon="10.226479">
        <ele>482.737787</ele>
        <time>2026-04-26T15:07:30.378Z</time>
      </trkpt>
      <trkpt lat="49.323676" lon="10.226786">
        <ele>485.509289</ele>
        <time>2026-04-26T15:07:42.500Z</time>
      </trkpt>
      <trkpt lat="49.323381" lon="10.227443">
        <ele>489.178396</ele>
        <time>2026-04-26T15:07:58.092Z</time>
      </trkpt>
      <trkpt lat="49.322545" lon="10.230547">
        <ele>503.769619</ele>
        <time>2026-04-26T15:09:03.549Z</time>
      </trkpt>
      <trkpt lat="49.322446" lon="10.231427">
        <ele>506.227903</ele>
        <time>2026-04-26T15:09:20.646Z</time>
      </trkpt>
      <trkpt lat="49.322364" lon="10.231740">
        <ele>507.009579</ele>
        <time>2026-04-26T15:09:26.778Z</time>
      </trkpt>
      <trkpt lat="49.322223" lon="10.232075">
        <ele>507.933621</ele>
        <time>2026-04-26T15:09:33.711Z</time>
      </trkpt>
      <trkpt lat="49.321802" lon="10.232493">
        <ele>509.716384</ele>
        <time>2026-04-26T15:09:46.138Z</time>
      </trkpt>
      <trkpt lat="49.321540" lon="10.232678">
        <ele>510.741729</ele>
        <time>2026-04-26T15:09:52.844Z</time>
      </trkpt>
      <trkpt lat="49.321207" lon="10.233025">
        <ele>510.261336</ele>
        <time>2026-04-26T15:10:01.162Z</time>
      </trkpt>
      <trkpt lat="49.321063" lon="10.233282">
        <ele>509.749394</ele>
        <time>2026-04-26T15:10:05.222Z</time>
      </trkpt>
      <trkpt lat="49.320506" lon="10.234672">
        <ele>507.284606</ele>
        <time>2026-04-26T15:10:23.228Z</time>
      </trkpt>
      <trkpt lat="49.320344" lon="10.234955">
        <ele>506.700420</ele>
        <time>2026-04-26T15:10:27.390Z</time>
      </trkpt>
      <trkpt lat="49.320150" lon="10.235213">
        <ele>506.036586</ele>
        <time>2026-04-26T15:10:31.817Z</time>
      </trkpt>
      <trkpt lat="49.319930" lon="10.235446">
        <ele>505.345377</ele>
        <time>2026-04-26T15:10:36.504Z</time>
      </trkpt>
      <trkpt lat="49.319597" lon="10.235743">
        <ele>504.349449</ele>
        <time>2026-04-26T15:10:43.405Z</time>
      </trkpt>
      <trkpt lat="49.319286" lon="10.235924">
        <ele>503.489415</ele>
        <time>2026-04-26T15:10:49.428Z</time>
      </trkpt>
      <trkpt lat="49.319047" lon="10.236013">
        <ele>502.853517</ele>
        <time>2026-04-26T15:10:53.913Z</time>
      </trkpt>
      <trkpt lat="49.318697" lon="10.236083">
        <ele>501.964115</ele>
        <time>2026-04-26T15:11:00.329Z</time>
      </trkpt>
      <trkpt lat="49.318375" lon="10.236116">
        <ele>501.205386</ele>
        <time>2026-04-26T15:11:06.079Z</time>
      </trkpt>
      <trkpt lat="49.318050" lon="10.236040">
        <ele>500.432464</ele>
        <time>2026-04-26T15:11:11.882Z</time>
      </trkpt>
      <trkpt lat="49.316711" lon="10.235468">
        <ele>497.971966</ele>
        <time>2026-04-26T15:11:36.695Z</time>
      </trkpt>
      <trkpt lat="49.316169" lon="10.235391">
        <ele>497.978189</ele>
        <time>2026-04-26T15:11:47.868Z</time>
      </trkpt>
      <trkpt lat="49.315500" lon="10.235493">
        <ele>497.985875</ele>
        <time>2026-04-26T15:12:03.481Z</time>
      </trkpt>
      <trkpt lat="49.315032" lon="10.235643">
        <ele>498.394755</ele>
        <time>2026-04-26T15:12:15.169Z</time>
      </trkpt>
      <trkpt lat="49.314195" lon="10.236118">
        <ele>499.918838</ele>
        <time>2026-04-26T15:12:37.030Z</time>
      </trkpt>
      <trkpt lat="49.312455" lon="10.237234">
        <ele>501.127956</ele>
        <time>2026-04-26T15:13:18.607Z</time>
      </trkpt>
      <trkpt lat="49.312527" lon="10.237744">
        <ele>501.146864</ele>
        <time>2026-04-26T15:13:25.477Z</time>
      </trkpt>
      <trkpt lat="49.312533" lon="10.238299">
        <ele>500.822902</ele>
        <time>2026-04-26T15:13:32.422Z</time>
      </trkpt>
      <trkpt lat="49.312513" lon="10.238603">
        <ele>500.267627</ele>
        <time>2026-04-26T15:13:36.053Z</time>
      </trkpt>
      <trkpt lat="49.312460" lon="10.238785">
        <ele>499.905375</ele>
        <time>2026-04-26T15:13:38.353Z</time>
      </trkpt>
      <trkpt lat="49.312294" lon="10.238844">
        <ele>499.430373</ele>
        <time>2026-04-26T15:13:41.295Z</time>
      </trkpt>
      <trkpt lat="49.311903" lon="10.239194">
        <ele>498.168396</ele>
        <time>2026-04-26T15:13:48.910Z</time>
      </trkpt>
      <trkpt lat="49.311655" lon="10.239323">
        <ele>497.438400</ele>
        <time>2026-04-26T15:13:53.148Z</time>
      </trkpt>
      <trkpt lat="49.311402" lon="10.239408">
        <ele>496.716417</ele>
        <time>2026-04-26T15:13:57.230Z</time>
      </trkpt>
      <trkpt lat="49.311333" lon="10.239523">
        <ele>496.432380</ele>
        <time>2026-04-26T15:13:58.803Z</time>
      </trkpt>
      <trkpt lat="49.311282" lon="10.239674">
        <ele>496.105235</ele>
        <time>2026-04-26T15:14:00.517Z</time>
      </trkpt>
      <trkpt lat="49.311211" lon="10.240154">
        <ele>494.508305</ele>
        <time>2026-04-26T15:14:05.433Z</time>
      </trkpt>
      <trkpt lat="49.311172" lon="10.240710">
        <ele>492.693962</ele>
        <time>2026-04-26T15:14:10.944Z</time>
      </trkpt>
      <trkpt lat="49.311133" lon="10.241370">
        <ele>490.543824</ele>
        <time>2026-04-26T15:14:17.409Z</time>
      </trkpt>
      <trkpt lat="49.311041" lon="10.242282">
        <ele>487.549638</ele>
        <time>2026-04-26T15:14:26.312Z</time>
      </trkpt>
      <trkpt lat="49.311157" lon="10.243703">
        <ele>484.183664</ele>
        <time>2026-04-26T15:14:40.646Z</time>
      </trkpt>
      <trkpt lat="49.311200" lon="10.244091">
        <ele>483.287689</ele>
        <time>2026-04-26T15:14:44.842Z</time>
      </trkpt>
      <trkpt lat="49.311526" lon="10.246349">
        <ele>478.418429</ele>
        <time>2026-04-26T15:15:11.326Z</time>
      </trkpt>
      <trkpt lat="49.311383" lon="10.248495">
        <ele>473.628530</ele>
        <time>2026-04-26T15:15:33.573Z</time>
      </trkpt>
      <trkpt lat="49.311384" lon="10.249196">
        <ele>471.673324</ele>
        <time>2026-04-26T15:15:40.556Z</time>
      </trkpt>
      <trkpt lat="49.311426" lon="10.249747">
        <ele>470.126029</ele>
        <time>2026-04-26T15:15:46.093Z</time>
      </trkpt>
      <trkpt lat="49.311814" lon="10.251083">
        <ele>466.520984</ele>
        <time>2026-04-26T15:16:00.827Z</time>
      </trkpt>
      <trkpt lat="49.311921" lon="10.251695">
        <ele>465.232211</ele>
        <time>2026-04-26T15:16:07.554Z</time>
      </trkpt>
      <trkpt lat="49.311940" lon="10.251970">
        <ele>464.669739</ele>
        <time>2026-04-26T15:16:10.561Z</time>
      </trkpt>
      <trkpt lat="49.311935" lon="10.252849">
        <ele>462.881818</ele>
        <time>2026-04-26T15:16:20.168Z</time>
      </trkpt>
      <trkpt lat="49.311974" lon="10.253177">
        <ele>462.203673</ele>
        <time>2026-04-26T15:16:23.858Z</time>
      </trkpt>
      <trkpt lat="49.312182" lon="10.253788">
        <ele>461.522153</ele>
        <time>2026-04-26T15:16:31.899Z</time>
      </trkpt>
      <trkpt lat="49.312169" lon="10.253940">
        <ele>461.372525</ele>
        <time>2026-04-26T15:16:33.835Z</time>
      </trkpt>
      <trkpt lat="49.312117" lon="10.254074">
        <ele>461.220322</ele>
        <time>2026-04-26T15:16:35.839Z</time>
      </trkpt>
      <trkpt lat="49.311954" lon="10.254046">
        <ele>460.974766</ele>
        <time>2026-04-26T15:16:39.020Z</time>
      </trkpt>
      <trkpt lat="49.311460" lon="10.253876">
        <ele>460.216806</ele>
        <time>2026-04-26T15:16:48.822Z</time>
      </trkpt>
      <trkpt lat="49.311221" lon="10.253745">
        <ele>459.836836</ele>
        <time>2026-04-26T15:16:53.820Z</time>
      </trkpt>
      <trkpt lat="49.311028" lon="10.253530">
        <ele>459.465618</ele>
        <time>2026-04-26T15:16:58.648Z</time>
      </trkpt>
      <trkpt lat="49.310797" lon="10.252939">
        <ele>458.130480</ele>
        <time>2026-04-26T15:17:08.140Z</time>
      </trkpt>
      <trkpt lat="49.310545" lon="10.251699">
        <ele>455.613844</ele>
        <time>2026-04-26T15:17:23.463Z</time>
      </trkpt>
      <trkpt lat="49.310462" lon="10.251451">
        <ele>455.073703</ele>
        <time>2026-04-26T15:17:26.342Z</time>
      </trkpt>
      <trkpt lat="49.310281" lon="10.251166">
        <ele>454.302790</ele>
        <time>2026-04-26T15:17:30.366Z</time>
      </trkpt>
      <trkpt lat="49.310155" lon="10.251016">
        <ele>453.551152</ele>
        <time>2026-04-26T15:17:32.796Z</time>
      </trkpt>
      <trkpt lat="49.309650" lon="10.250655">
        <ele>450.457843</ele>
        <time>2026-04-26T15:17:41.153Z</time>
      </trkpt>
      <trkpt lat="49.309401" lon="10.250308">
        <ele>448.590004</ele>
        <time>2026-04-26T15:17:46.210Z</time>
      </trkpt>
      <trkpt lat="49.309195" lon="10.249873">
        <ele>446.643872</ele>
        <time>2026-04-26T15:17:51.627Z</time>
      </trkpt>
      <trkpt lat="49.308973" lon="10.249550">
        <ele>444.945001</ele>
        <time>2026-04-26T15:17:56.555Z</time>
      </trkpt>
      <trkpt lat="49.308733" lon="10.249324">
        <ele>443.739845</ele>
        <time>2026-04-26T15:18:01.319Z</time>
      </trkpt>
      <trkpt lat="49.308404" lon="10.249172">
        <ele>442.707555</ele>
        <time>2026-04-26T15:18:07.407Z</time>
      </trkpt>
      <trkpt lat="49.307741" lon="10.249140">
        <ele>440.714703</ele>
        <time>2026-04-26T15:18:19.448Z</time>
      </trkpt>
      <trkpt lat="49.307513" lon="10.249080">
        <ele>440.019708</ele>
        <time>2026-04-26T15:18:23.522Z</time>
      </trkpt>
      <trkpt lat="49.306651" lon="10.248418">
        <ele>436.864062</ele>
        <time>2026-04-26T15:18:39.767Z</time>
      </trkpt>
      <trkpt lat="49.306292" lon="10.248217">
        <ele>435.533764</ele>
        <time>2026-04-26T15:18:46.232Z</time>
      </trkpt>
      <trkpt lat="49.305948" lon="10.248193">
        <ele>434.335104</ele>
        <time>2026-04-26T15:18:52.100Z</time>
      </trkpt>
      <trkpt lat="49.304724" lon="10.248312">
        <ele>429.895929</ele>
        <time>2026-04-26T15:19:12.538Z</time>
      </trkpt>
      <trkpt lat="49.304206" lon="10.248332">
        <ele>427.966163</ele>
        <time>2026-04-26T15:19:21.060Z</time>
      </trkpt>
      <trkpt lat="49.304003" lon="10.248280">
        <ele>427.199670</ele>
        <time>2026-04-26T15:19:24.424Z</time>
      </trkpt>
      <trkpt lat="49.303529" lon="10.247996">
        <ele>425.822203</ele>
        <time>2026-04-26T15:19:32.823Z</time>
      </trkpt>
      <trkpt lat="49.303238" lon="10.247813">
        <ele>425.876258</ele>
        <time>2026-04-26T15:19:38.258Z</time>
      </trkpt>
      <trkpt lat="49.303108" lon="10.247781">
        <ele>425.898886</ele>
        <time>2026-04-26T15:19:40.680Z</time>
      </trkpt>
      <trkpt lat="49.303004" lon="10.247825">
        <ele>425.917428</ele>
        <time>2026-04-26T15:19:42.792Z</time>
      </trkpt>
      <trkpt lat="49.302497" lon="10.248089">
        <ele>426.009449</ele>
        <time>2026-04-26T15:19:54.586Z</time>
      </trkpt>
      <trkpt lat="49.302414" lon="10.248162">
        <ele>426.025893</ele>
        <time>2026-04-26T15:19:56.801Z</time>
      </trkpt>
      <trkpt lat="49.302264" lon="10.248316">
        <ele>426.056916</ele>
        <time>2026-04-26T15:20:01.127Z</time>
      </trkpt>
      <trkpt lat="49.301862" lon="10.248908">
        <ele>428.044137</ele>
        <time>2026-04-26T15:20:15.758Z</time>
      </trkpt>
      <trkpt lat="49.301362" lon="10.249538">
        <ele>432.913066</ele>
        <time>2026-04-26T15:20:36.459Z</time>
      </trkpt>
      <trkpt lat="49.301255" lon="10.249711">
        <ele>434.082923</ele>
        <time>2026-04-26T15:20:41.890Z</time>
      </trkpt>
      <trkpt lat="49.301097" lon="10.250063">
        <ele>436.179536</ele>
        <time>2026-04-26T15:20:51.848Z</time>
      </trkpt>
      <trkpt lat="49.300991" lon="10.250562">
        <ele>438.754402</ele>
        <time>2026-04-26T15:21:04.247Z</time>
      </trkpt>
      <trkpt lat="49.300876" lon="10.251901">
        <ele>444.194713</ele>
        <time>2026-04-26T15:21:33.138Z</time>
      </trkpt>
      <trkpt lat="49.300816" lon="10.252100">
        <ele>445.048105</ele>
        <time>2026-04-26T15:21:37.271Z</time>
      </trkpt>
      <trkpt lat="49.300699" lon="10.252314">
        <ele>446.135133</ele>
        <time>2026-04-26T15:21:42.364Z</time>
      </trkpt>
      <trkpt lat="49.300463" lon="10.252591">
        <ele>447.909138</ele>
        <time>2026-04-26T15:21:50.308Z</time>
      </trkpt>
      <trkpt lat="49.299578" lon="10.253609">
        <ele>452.197357</ele>
        <time>2026-04-26T15:22:17.491Z</time>
      </trkpt>
      <trkpt lat="49.299094" lon="10.253897">
        <ele>453.560913</ele>
        <time>2026-04-26T15:22:30.109Z</time>
      </trkpt>
      <trkpt lat="49.298310" lon="10.254282">
        <ele>456.121439</ele>
        <time>2026-04-26T15:22:50.153Z</time>
      </trkpt>
      <trkpt lat="49.298048" lon="10.254465">
        <ele>457.362668</ele>
        <time>2026-04-26T15:22:57.248Z</time>
      </trkpt>
      <trkpt lat="49.297787" lon="10.254727">
        <ele>458.707592</ele>
        <time>2026-04-26T15:23:05.194Z</time>
      </trkpt>
      <trkpt lat="49.297748" lon="10.254802">
        <ele>458.977288</ele>
        <time>2026-04-26T15:23:06.816Z</time>
      </trkpt>
      <trkpt lat="49.297435" lon="10.255419">
        <ele>461.175082</ele>
        <time>2026-04-26T15:23:20.459Z</time>
      </trkpt>
      <trkpt lat="49.297167" lon="10.255844">
        <ele>462.837269</ele>
        <time>2026-04-26T15:23:31.466Z</time>
      </trkpt>
      <trkpt lat="49.297027" lon="10.256003">
        <ele>464.204165</ele>
        <time>2026-04-26T15:23:36.699Z</time>
      </trkpt>
      <trkpt lat="49.296809" lon="10.256165">
        <ele>466.127495</ele>
        <time>2026-04-26T15:23:44.325Z</time>
      </trkpt>
      <trkpt lat="49.296504" lon="10.256296">
        <ele>468.642221</ele>
        <time>2026-04-26T15:23:54.681Z</time>
      </trkpt>
      <trkpt lat="49.296115" lon="10.256292">
        <ele>471.730729</ele>
        <time>2026-04-26T15:24:07.733Z</time>
      </trkpt>
      <trkpt lat="49.295904" lon="10.256211">
        <ele>473.457650</ele>
        <time>2026-04-26T15:24:15.044Z</time>
      </trkpt>
      <trkpt lat="49.295273" lon="10.255935">
        <ele>478.730952</ele>
        <time>2026-04-26T15:24:37.338Z</time>
      </trkpt>
      <trkpt lat="49.294925" lon="10.255894">
        <ele>481.617326</ele>
        <time>2026-04-26T15:24:49.176Z</time>
      </trkpt>
      <trkpt lat="49.294076" lon="10.256055">
        <ele>488.691880</ele>
        <time>2026-04-26T15:25:17.659Z</time>
      </trkpt>
      <trkpt lat="49.293708" lon="10.255977">
        <ele>491.764106</ele>
        <time>2026-04-26T15:25:29.695Z</time>
      </trkpt>
      <trkpt lat="49.293120" lon="10.255697">
        <ele>495.362581</ele>
        <time>2026-04-26T15:25:48.691Z</time>
      </trkpt>
      <trkpt lat="49.292644" lon="10.255534">
        <ele>498.152749</ele>
        <time>2026-04-26T15:26:03.019Z</time>
      </trkpt>
      <trkpt lat="49.292418" lon="10.255514">
        <ele>499.447792</ele>
        <time>2026-04-26T15:26:09.348Z</time>
      </trkpt>
      <trkpt lat="49.292070" lon="10.255519">
        <ele>501.438705</ele>
        <time>2026-04-26T15:26:18.714Z</time>
      </trkpt>
      <trkpt lat="49.291795" lon="10.255538">
        <ele>502.229727</ele>
        <time>2026-04-26T15:26:25.722Z</time>
      </trkpt>
      <trkpt lat="49.291646" lon="10.255420">
        <ele>502.133961</ele>
        <time>2026-04-26T15:26:29.780Z</time>
      </trkpt>
      <trkpt lat="49.291320" lon="10.255283">
        <ele>501.940931</ele>
        <time>2026-04-26T15:26:37.629Z</time>
      </trkpt>
      <trkpt lat="49.290885" lon="10.255176">
        <ele>501.689347</ele>
        <time>2026-04-26T15:26:46.615Z</time>
      </trkpt>
      <trkpt lat="49.290507" lon="10.255156">
        <ele>501.473360</ele>
        <time>2026-04-26T15:26:53.307Z</time>
      </trkpt>
      <trkpt lat="49.290154" lon="10.255302">
        <ele>501.228357</ele>
        <time>2026-04-26T15:26:59.486Z</time>
      </trkpt>
      <trkpt lat="49.289513" lon="10.255603">
        <ele>499.333769</ele>
        <time>2026-04-26T15:27:10.496Z</time>
      </trkpt>
      <trkpt lat="49.289324" lon="10.255761">
        <ele>498.725397</ele>
        <time>2026-04-26T15:27:14.132Z</time>
      </trkpt>
      <trkpt lat="49.289187" lon="10.255968">
        <ele>498.181803</ele>
        <time>2026-04-26T15:27:17.445Z</time>
      </trkpt>
      <trkpt lat="49.288958" lon="10.256529">
        <ele>496.961893</ele>
        <time>2026-04-26T15:27:25.087Z</time>
      </trkpt>
      <trkpt lat="49.288495" lon="10.257937">
        <ele>497.006749</ele>
        <time>2026-04-26T15:27:45.945Z</time>
      </trkpt>
      <trkpt lat="49.288423" lon="10.258208">
        <ele>497.212914</ele>
        <time>2026-04-26T15:27:50.425Z</time>
      </trkpt>
      <trkpt lat="49.288391" lon="10.258433">
        <ele>497.375163</ele>
        <time>2026-04-26T15:27:54.018Z</time>
      </trkpt>
      <trkpt lat="49.288401" lon="10.258839">
        <ele>497.661414</ele>
        <time>2026-04-26T15:28:00.487Z</time>
      </trkpt>
      <trkpt lat="49.288360" lon="10.258971">
        <ele>497.764422</ele>
        <time>2026-04-26T15:28:02.841Z</time>
      </trkpt>
      <trkpt lat="49.288374" lon="10.259186">
        <ele>497.916653</ele>
        <time>2026-04-26T15:28:06.284Z</time>
      </trkpt>
      <trkpt lat="49.288332" lon="10.259384">
        <ele>498.063346</ele>
        <time>2026-04-26T15:28:09.651Z</time>
      </trkpt>
      <trkpt lat="49.288278" lon="10.259498">
        <ele>498.199602</ele>
        <time>2026-04-26T15:28:11.951Z</time>
      </trkpt>
      <trkpt lat="49.288209" lon="10.259591">
        <ele>498.424807</ele>
        <time>2026-04-26T15:28:14.249Z</time>
      </trkpt>
      <trkpt lat="49.288112" lon="10.259661">
        <ele>498.687604</ele>
        <time>2026-04-26T15:28:16.987Z</time>
      </trkpt>
      <trkpt lat="49.287647" lon="10.259933">
        <ele>499.907594</ele>
        <time>2026-04-26T15:28:29.883Z</time>
      </trkpt>
      <trkpt lat="49.287458" lon="10.259933">
        <ele>500.370885</ele>
        <time>2026-04-26T15:28:34.674Z</time>
      </trkpt>
      <trkpt lat="49.287188" lon="10.259825">
        <ele>501.054886</ele>
        <time>2026-04-26T15:28:41.388Z</time>
      </trkpt>
      <trkpt lat="49.287014" lon="10.259808">
        <ele>501.482273</ele>
        <time>2026-04-26T15:28:45.419Z</time>
      </trkpt>
      <trkpt lat="49.286651" lon="10.259763">
        <ele>502.374991</ele>
        <time>2026-04-26T15:28:53.500Z</time>
      </trkpt>
      <trkpt lat="49.286501" lon="10.259879">
        <ele>502.329177</ele>
        <time>2026-04-26T15:28:56.976Z</time>
      </trkpt>
      <trkpt lat="49.286381" lon="10.259668">
        <ele>501.938556</ele>
        <time>2026-04-26T15:29:00.604Z</time>
      </trkpt>
      <trkpt lat="49.285736" lon="10.258970">
        <ele>500.249625</ele>
        <time>2026-04-26T15:29:14.452Z</time>
      </trkpt>
      <trkpt lat="49.285056" lon="10.258364">
        <ele>498.557828</ele>
        <time>2026-04-26T15:29:27.002Z</time>
      </trkpt>
      <trkpt lat="49.284672" lon="10.257944">
        <ele>497.476068</ele>
        <time>2026-04-26T15:29:34.612Z</time>
      </trkpt>
      <trkpt lat="49.284263" lon="10.257605">
        <ele>496.409813</ele>
        <time>2026-04-26T15:29:42.410Z</time>
      </trkpt>
      <trkpt lat="49.283816" lon="10.257052">
        <ele>495.092570</ele>
        <time>2026-04-26T15:29:52.847Z</time>
      </trkpt>
      <trkpt lat="49.283594" lon="10.256617">
        <ele>494.536981</ele>
        <time>2026-04-26T15:29:59.762Z</time>
      </trkpt>
      <trkpt lat="49.283473" lon="10.256433">
        <ele>494.494512</ele>
        <time>2026-04-26T15:30:03.187Z</time>
      </trkpt>
      <trkpt lat="49.283408" lon="10.256394">
        <ele>494.477119</ele>
        <time>2026-04-26T15:30:04.576Z</time>
      </trkpt>
      <trkpt lat="49.283275" lon="10.256365">
        <ele>494.443644</ele>
        <time>2026-04-26T15:30:07.285Z</time>
      </trkpt>
      <trkpt lat="49.283193" lon="10.256396">
        <ele>494.422598</ele>
        <time>2026-04-26T15:30:09.013Z</time>
      </trkpt>
      <trkpt lat="49.283071" lon="10.256572">
        <ele>494.380854</ele>
        <time>2026-04-26T15:30:12.502Z</time>
      </trkpt>
      <trkpt lat="49.282847" lon="10.256731">
        <ele>494.319343</ele>
        <time>2026-04-26T15:30:17.819Z</time>
      </trkpt>
      <trkpt lat="49.282723" lon="10.256864">
        <ele>494.281632</ele>
        <time>2026-04-26T15:30:21.103Z</time>
      </trkpt>
      <trkpt lat="49.282711" lon="10.256881">
        <ele>494.277561</ele>
        <time>2026-04-26T15:30:21.457Z</time>
      </trkpt>
      <trkpt lat="49.282652" lon="10.257003">
        <ele>494.252875</ele>
        <time>2026-04-26T15:30:23.590Z</time>
      </trkpt>
      <trkpt lat="49.282628" lon="10.257057">
        <ele>494.242253</ele>
        <time>2026-04-26T15:30:24.493Z</time>
      </trkpt>
      <trkpt lat="49.282652" lon="10.257003">
        <ele>494.231632</ele>
        <time>2026-04-26T15:30:25.413Z</time>
      </trkpt>
      <trkpt lat="49.282711" lon="10.256881">
        <ele>494.206946</ele>
        <time>2026-04-26T15:30:27.432Z</time>
      </trkpt>
      <trkpt lat="49.282723" lon="10.256864">
        <ele>494.202874</ele>
        <time>2026-04-26T15:30:27.767Z</time>
      </trkpt>
      <trkpt lat="49.282847" lon="10.256731">
        <ele>494.165163</ele>
        <time>2026-04-26T15:30:30.859Z</time>
      </trkpt>
      <trkpt lat="49.283071" lon="10.256572">
        <ele>494.207438</ele>
        <time>2026-04-26T15:30:35.937Z</time>
      </trkpt>
      <trkpt lat="49.283193" lon="10.256396">
        <ele>494.404705</ele>
        <time>2026-04-26T15:30:39.523Z</time>
      </trkpt>
      <trkpt lat="49.283275" lon="10.256365">
        <ele>494.504155</ele>
        <time>2026-04-26T15:30:41.376Z</time>
      </trkpt>
      <trkpt lat="49.283408" lon="10.256394">
        <ele>494.662342</ele>
        <time>2026-04-26T15:30:44.312Z</time>
      </trkpt>
      <trkpt lat="49.283473" lon="10.256433">
        <ele>494.744535</ele>
        <time>2026-04-26T15:30:45.840Z</time>
      </trkpt>
      <trkpt lat="49.283594" lon="10.256617">
        <ele>494.945224</ele>
        <time>2026-04-26T15:30:49.600Z</time>
      </trkpt>
      <trkpt lat="49.283816" lon="10.257052">
        <ele>495.369463</ele>
        <time>2026-04-26T15:30:57.743Z</time>
      </trkpt>
      <trkpt lat="49.284263" lon="10.257605">
        <ele>496.045832</ele>
        <time>2026-04-26T15:31:10.992Z</time>
      </trkpt>
      <trkpt lat="49.284672" lon="10.257944">
        <ele>497.222719</ele>
        <time>2026-04-26T15:31:22.144Z</time>
      </trkpt>
      <trkpt lat="49.285056" lon="10.258364">
        <ele>498.766874</ele>
        <time>2026-04-26T15:31:33.778Z</time>
      </trkpt>
      <trkpt lat="49.285736" lon="10.258970">
        <ele>501.341635</ele>
        <time>2026-04-26T15:31:53.397Z</time>
      </trkpt>
      <trkpt lat="49.286381" lon="10.259668">
        <ele>504.069448</ele>
        <time>2026-04-26T15:32:12.959Z</time>
      </trkpt>
      <trkpt lat="49.286501" lon="10.259879">
        <ele>504.714833</ele>
        <time>2026-04-26T15:32:17.487Z</time>
      </trkpt>
      <trkpt lat="49.286656" lon="10.260189">
        <ele>505.615336</ele>
        <time>2026-04-26T15:32:23.943Z</time>
      </trkpt>
      <trkpt lat="49.286740" lon="10.260419">
        <ele>506.223045</ele>
        <time>2026-04-26T15:32:28.282Z</time>
      </trkpt>
      <trkpt lat="49.286856" lon="10.260736">
        <ele>507.061017</ele>
        <time>2026-04-26T15:32:34.258Z</time>
      </trkpt>
      <trkpt lat="49.286946" lon="10.261004">
        <ele>507.755949</ele>
        <time>2026-04-26T15:32:39.230Z</time>
      </trkpt>
      <trkpt lat="49.287104" lon="10.261792">
        <ele>510.673113</ele>
        <time>2026-04-26T15:32:52.643Z</time>
      </trkpt>
      <trkpt lat="49.287252" lon="10.262338">
        <ele>513.218917</ele>
        <time>2026-04-26T15:33:02.532Z</time>
      </trkpt>
      <trkpt lat="49.287323" lon="10.262583">
        <ele>514.373229</ele>
        <time>2026-04-26T15:33:07.357Z</time>
      </trkpt>
      <trkpt lat="49.287667" lon="10.263672">
        <ele>519.582980</ele>
        <time>2026-04-26T15:33:33.634Z</time>
      </trkpt>
      <trkpt lat="49.287777" lon="10.263966">
        <ele>521.266202</ele>
        <time>2026-04-26T15:33:41.950Z</time>
      </trkpt>
      <trkpt lat="49.287915" lon="10.264238">
        <ele>523.235187</ele>
        <time>2026-04-26T15:33:50.376Z</time>
      </trkpt>
      <trkpt lat="49.288158" lon="10.264577">
        <ele>526.113276</ele>
        <time>2026-04-26T15:34:02.486Z</time>
      </trkpt>
      <trkpt lat="49.288222" lon="10.264713">
        <ele>527.071495</ele>
        <time>2026-04-26T15:34:06.451Z</time>
      </trkpt>
      <trkpt lat="49.288279" lon="10.264897">
        <ele>528.235393</ele>
        <time>2026-04-26T15:34:11.198Z</time>
      </trkpt>
      <trkpt lat="49.288317" lon="10.265256">
        <ele>530.313494</ele>
        <time>2026-04-26T15:34:19.857Z</time>
      </trkpt>
      <trkpt lat="49.288295" lon="10.265375">
        <ele>531.020225</ele>
        <time>2026-04-26T15:34:22.730Z</time>
      </trkpt>
      <trkpt lat="49.288157" lon="10.265760">
        <ele>533.530341</ele>
        <time>2026-04-26T15:34:32.424Z</time>
      </trkpt>
      <trkpt lat="49.287911" lon="10.266359">
        <ele>536.769662</ele>
        <time>2026-04-26T15:34:46.172Z</time>
      </trkpt>
      <trkpt lat="49.288323" lon="10.266525">
        <ele>538.444335</ele>
        <time>2026-04-26T15:34:58.934Z</time>
      </trkpt>
      <trkpt lat="49.288207" lon="10.266869">
        <ele>539.437317</ele>
        <time>2026-04-26T15:35:06.330Z</time>
      </trkpt>
      <trkpt lat="49.288382" lon="10.267077">
        <ele>540.307812</ele>
        <time>2026-04-26T15:35:12.819Z</time>
      </trkpt>
      <trkpt lat="49.288533" lon="10.267061">
        <ele>540.902846</ele>
        <time>2026-04-26T15:35:17.255Z</time>
      </trkpt>
      <trkpt lat="49.288653" lon="10.266964">
        <ele>541.436148</ele>
        <time>2026-04-26T15:35:21.266Z</time>
      </trkpt>
      <trkpt lat="49.288595" lon="10.267155">
        <ele>541.976378</ele>
        <time>2026-04-26T15:35:24.650Z</time>
      </trkpt>
      <trkpt lat="49.288443" lon="10.267640">
        <ele>543.197693</ele>
        <time>2026-04-26T15:35:32.876Z</time>
      </trkpt>
      <trkpt lat="49.288181" lon="10.268499">
        <ele>543.377438</ele>
        <time>2026-04-26T15:35:46.691Z</time>
      </trkpt>
      <trkpt lat="49.287560" lon="10.270663">
        <ele>543.399338</ele>
        <time>2026-04-26T15:36:18.013Z</time>
      </trkpt>
      <trkpt lat="49.287504" lon="10.270862">
        <ele>543.291806</ele>
        <time>2026-04-26T15:36:20.764Z</time>
      </trkpt>
      <trkpt lat="49.287457" lon="10.271027">
        <ele>543.202475</ele>
        <time>2026-04-26T15:36:23.057Z</time>
      </trkpt>
      <trkpt lat="49.286348" lon="10.274829">
        <ele>540.867149</ele>
        <time>2026-04-26T15:37:16.331Z</time>
      </trkpt>
      <trkpt lat="49.286204" lon="10.275300">
        <ele>540.469937</ele>
        <time>2026-04-26T15:37:22.923Z</time>
      </trkpt>
      <trkpt lat="49.285309" lon="10.278423">
        <ele>536.388754</ele>
        <time>2026-04-26T15:38:03.043Z</time>
      </trkpt>
      <trkpt lat="49.285211" lon="10.278614">
        <ele>535.981638</ele>
        <time>2026-04-26T15:38:05.653Z</time>
      </trkpt>
      <trkpt lat="49.285096" lon="10.278733">
        <ele>535.625290</ele>
        <time>2026-04-26T15:38:07.925Z</time>
      </trkpt>
      <trkpt lat="49.284928" lon="10.278993">
        <ele>535.012172</ele>
        <time>2026-04-26T15:38:11.773Z</time>
      </trkpt>
      <trkpt lat="49.284882" lon="10.279238">
        <ele>534.585051</ele>
        <time>2026-04-26T15:38:14.484Z</time>
      </trkpt>
      <trkpt lat="49.284869" lon="10.279799">
        <ele>533.644595</ele>
        <time>2026-04-26T15:38:20.494Z</time>
      </trkpt>
      <trkpt lat="49.284836" lon="10.280034">
        <ele>533.241872</ele>
        <time>2026-04-26T15:38:23.064Z</time>
      </trkpt>
      <trkpt lat="49.284675" lon="10.280516">
        <ele>532.670585</ele>
        <time>2026-04-26T15:38:28.995Z</time>
      </trkpt>
      <trkpt lat="49.284535" lon="10.280844">
        <ele>532.274891</ele>
        <time>2026-04-26T15:38:33.484Z</time>
      </trkpt>
      <trkpt lat="49.284454" lon="10.281019">
        <ele>532.058277</ele>
        <time>2026-04-26T15:38:35.984Z</time>
      </trkpt>
      <trkpt lat="49.284187" lon="10.281910">
        <ele>531.068459</ele>
        <time>2026-04-26T15:38:48.105Z</time>
      </trkpt>
      <trkpt lat="49.283969" lon="10.282802">
        <ele>530.308639</ele>
        <time>2026-04-26T15:39:00.605Z</time>
      </trkpt>
      <trkpt lat="49.283505" lon="10.284329">
        <ele>529.793272</ele>
        <time>2026-04-26T15:39:22.897Z</time>
      </trkpt>
      <trkpt lat="49.283241" lon="10.285516">
        <ele>528.730641</ele>
        <time>2026-04-26T15:39:39.700Z</time>
      </trkpt>
      <trkpt lat="49.283166" lon="10.286197">
        <ele>527.517618</ele>
        <time>2026-04-26T15:39:48.485Z</time>
      </trkpt>
      <trkpt lat="49.283134" lon="10.286868">
        <ele>526.335940</ele>
        <time>2026-04-26T15:39:56.104Z</time>
      </trkpt>
      <trkpt lat="49.282664" lon="10.287341">
        <ele>524.822129</ele>
        <time>2026-04-26T15:40:11.585Z</time>
      </trkpt>
      <trkpt lat="49.282491" lon="10.287348">
        <ele>524.455933</ele>
        <time>2026-04-26T15:40:14.390Z</time>
      </trkpt>
      <trkpt lat="49.282280" lon="10.287307">
        <ele>524.044769</ele>
        <time>2026-04-26T15:40:17.809Z</time>
      </trkpt>
      <trkpt lat="49.282105" lon="10.287192">
        <ele>523.676689</ele>
        <time>2026-04-26T15:40:20.951Z</time>
      </trkpt>
      <trkpt lat="49.281955" lon="10.286929">
        <ele>523.236136</ele>
        <time>2026-04-26T15:40:24.911Z</time>
      </trkpt>
      <trkpt lat="49.281812" lon="10.286862">
        <ele>522.947068</ele>
        <time>2026-04-26T15:40:27.637Z</time>
      </trkpt>
      <trkpt lat="49.281648" lon="10.286874">
        <ele>522.629666</ele>
        <time>2026-04-26T15:40:30.864Z</time>
      </trkpt>
      <trkpt lat="49.281475" lon="10.286967">
        <ele>522.275259</ele>
        <time>2026-04-26T15:40:34.858Z</time>
      </trkpt>
      <trkpt lat="49.281449" lon="10.287008">
        <ele>522.203150</ele>
        <time>2026-04-26T15:40:35.693Z</time>
      </trkpt>
      <trkpt lat="49.281475" lon="10.286967">
        <ele>522.131041</ele>
        <time>2026-04-26T15:40:36.615Z</time>
      </trkpt>
      <trkpt lat="49.281648" lon="10.286874">
        <ele>521.776633</ele>
        <time>2026-04-26T15:40:41.077Z</time>
      </trkpt>
      <trkpt lat="49.281812" lon="10.286862">
        <ele>521.459232</ele>
        <time>2026-04-26T15:40:45.220Z</time>
      </trkpt>
      <trkpt lat="49.281955" lon="10.286929">
        <ele>521.359494</ele>
        <time>2026-04-26T15:40:49.111Z</time>
      </trkpt>
      <trkpt lat="49.282105" lon="10.287192">
        <ele>522.249660</ele>
        <time>2026-04-26T15:40:55.408Z</time>
      </trkpt>
      <trkpt lat="49.282280" lon="10.287307">
        <ele>522.993388</ele>
        <time>2026-04-26T15:41:01.130Z</time>
      </trkpt>
      <trkpt lat="49.282491" lon="10.287348">
        <ele>523.824170</ele>
        <time>2026-04-26T15:41:07.929Z</time>
      </trkpt>
      <trkpt lat="49.282664" lon="10.287341">
        <ele>524.500161</ele>
        <time>2026-04-26T15:41:13.430Z</time>
      </trkpt>
      <trkpt lat="49.283134" lon="10.286868">
        <ele>526.696289</ele>
        <time>2026-04-26T15:41:33.266Z</time>
      </trkpt>
      <trkpt lat="49.283133" lon="10.288154">
        <ele>528.007283</ele>
        <time>2026-04-26T15:41:52.232Z</time>
      </trkpt>
      <trkpt lat="49.283171" lon="10.288686">
        <ele>527.807456</ele>
        <time>2026-04-26T15:41:59.181Z</time>
      </trkpt>
      <trkpt lat="49.283189" lon="10.289471">
        <ele>527.514170</ele>
        <time>2026-04-26T15:42:08.797Z</time>
      </trkpt>
      <trkpt lat="49.283134" lon="10.291235">
        <ele>526.133831</ele>
        <time>2026-04-26T15:42:29.183Z</time>
      </trkpt>
      <trkpt lat="49.283187" lon="10.292929">
        <ele>524.280685</ele>
        <time>2026-04-26T15:42:49.276Z</time>
      </trkpt>
      <trkpt lat="49.283182" lon="10.294574">
        <ele>522.511491</ele>
        <time>2026-04-26T15:43:09.494Z</time>
      </trkpt>
      <trkpt lat="49.283329" lon="10.296199">
        <ele>520.853530</ele>
        <time>2026-04-26T15:43:28.303Z</time>
      </trkpt>
      <trkpt lat="49.283334" lon="10.296948">
        <ele>520.216658</ele>
        <time>2026-04-26T15:43:36.687Z</time>
      </trkpt>
      <trkpt lat="49.283395" lon="10.297883">
        <ele>519.417707</ele>
        <time>2026-04-26T15:43:48.152Z</time>
      </trkpt>
      <trkpt lat="49.283132" lon="10.298030">
        <ele>519.052831</ele>
        <time>2026-04-26T15:43:53.842Z</time>
      </trkpt>
      <trkpt lat="49.283021" lon="10.298142">
        <ele>518.927243</ele>
        <time>2026-04-26T15:43:56.670Z</time>
      </trkpt>
      <trkpt lat="49.282909" lon="10.298428">
        <ele>519.118680</ele>
        <time>2026-04-26T15:44:01.411Z</time>
      </trkpt>
      <trkpt lat="49.282900" lon="10.298441">
        <ele>519.129559</ele>
        <time>2026-04-26T15:44:01.684Z</time>
      </trkpt>
      <trkpt lat="49.282792" lon="10.298595">
        <ele>519.259322</ele>
        <time>2026-04-26T15:44:04.983Z</time>
      </trkpt>
      <trkpt lat="49.282646" lon="10.298666">
        <ele>519.394076</ele>
        <time>2026-04-26T15:44:08.445Z</time>
      </trkpt>
      <trkpt lat="49.282055" lon="10.298708">
        <ele>519.914573</ele>
        <time>2026-04-26T15:44:22.126Z</time>
      </trkpt>
      <trkpt lat="49.281444" lon="10.298854">
        <ele>520.458598</ele>
        <time>2026-04-26T15:44:36.170Z</time>
      </trkpt>
      <trkpt lat="49.281113" lon="10.298967">
        <ele>520.079548</ele>
        <time>2026-04-26T15:44:43.605Z</time>
      </trkpt>
      <trkpt lat="49.280916" lon="10.299068">
        <ele>519.797794</ele>
        <time>2026-04-26T15:44:47.995Z</time>
      </trkpt>
      <trkpt lat="49.280032" lon="10.299744">
        <ele>518.457846</ele>
        <time>2026-04-26T15:45:06.806Z</time>
      </trkpt>
      <trkpt lat="49.279959" lon="10.299828">
        <ele>518.334038</ele>
        <time>2026-04-26T15:45:08.321Z</time>
      </trkpt>
      <trkpt lat="49.279890" lon="10.299845">
        <ele>518.239247</ele>
        <time>2026-04-26T15:45:09.474Z</time>
      </trkpt>
      <trkpt lat="49.279761" lon="10.299803">
        <ele>518.060372</ele>
        <time>2026-04-26T15:45:11.591Z</time>
      </trkpt>
      <trkpt lat="49.279440" lon="10.299624">
        <ele>515.563080</ele>
        <time>2026-04-26T15:45:16.843Z</time>
      </trkpt>
      <trkpt lat="49.278778" lon="10.299086">
        <ele>509.990953</ele>
        <time>2026-04-26T15:45:27.520Z</time>
      </trkpt>
      <trkpt lat="49.278392" lon="10.298739">
        <ele>506.663198</ele>
        <time>2026-04-26T15:45:33.631Z</time>
      </trkpt>
      <trkpt lat="49.278074" lon="10.298452">
        <ele>503.796780</ele>
        <time>2026-04-26T15:45:38.614Z</time>
      </trkpt>
      <trkpt lat="49.277862" lon="10.298313">
        <ele>501.805119</ele>
        <time>2026-04-26T15:45:41.726Z</time>
      </trkpt>
      <trkpt lat="49.277612" lon="10.298221">
        <ele>499.584357</ele>
        <time>2026-04-26T15:45:45.200Z</time>
      </trkpt>
      <trkpt lat="49.277281" lon="10.298176">
        <ele>496.714087</ele>
        <time>2026-04-26T15:45:49.746Z</time>
      </trkpt>
      <trkpt lat="49.277015" lon="10.298092">
        <ele>494.368230</ele>
        <time>2026-04-26T15:45:53.515Z</time>
      </trkpt>
      <trkpt lat="49.276321" lon="10.297755">
        <ele>488.588740</ele>
        <time>2026-04-26T15:46:03.924Z</time>
      </trkpt>
      <trkpt lat="49.276033" lon="10.297672">
        <ele>487.273289</ele>
        <time>2026-04-26T15:46:08.280Z</time>
      </trkpt>
      <trkpt lat="49.275031" lon="10.298028">
        <ele>482.656176</ele>
        <time>2026-04-26T15:46:24.231Z</time>
      </trkpt>
      <trkpt lat="49.274601" lon="10.298103">
        <ele>480.929706</ele>
        <time>2026-04-26T15:46:31.276Z</time>
      </trkpt>
      <trkpt lat="49.273716" lon="10.298181">
        <ele>479.396826</ele>
        <time>2026-04-26T15:46:46.754Z</time>
      </trkpt>
      <trkpt lat="49.273296" lon="10.298345">
        <ele>478.647359</ele>
        <time>2026-04-26T15:46:55.134Z</time>
      </trkpt>
      <trkpt lat="49.273084" lon="10.298523">
        <ele>478.229363</ele>
        <time>2026-04-26T15:46:59.932Z</time>
      </trkpt>
      <trkpt lat="49.272922" lon="10.298711">
        <ele>477.905564</ele>
        <time>2026-04-26T15:47:04.026Z</time>
      </trkpt>
      <trkpt lat="49.272745" lon="10.298975">
        <ele>477.631514</ele>
        <time>2026-04-26T15:47:08.986Z</time>
      </trkpt>
      <trkpt lat="49.272238" lon="10.299950">
        <ele>476.728880</ele>
        <time>2026-04-26T15:47:24.685Z</time>
      </trkpt>
      <trkpt lat="49.271517" lon="10.301177">
        <ele>475.587174</ele>
        <time>2026-04-26T15:47:44.544Z</time>
      </trkpt>
      <trkpt lat="49.271254" lon="10.301735">
        <ele>475.151751</ele>
        <time>2026-04-26T15:47:52.751Z</time>
      </trkpt>
      <trkpt lat="49.271118" lon="10.301949">
        <ele>474.962786</ele>
        <time>2026-04-26T15:47:56.453Z</time>
      </trkpt>
      <trkpt lat="49.270913" lon="10.302137">
        <ele>474.731183</ele>
        <time>2026-04-26T15:48:01.151Z</time>
      </trkpt>
      <trkpt lat="49.270527" lon="10.302357">
        <ele>474.331931</ele>
        <time>2026-04-26T15:48:09.571Z</time>
      </trkpt>
      <trkpt lat="49.270179" lon="10.302628">
        <ele>474.244134</ele>
        <time>2026-04-26T15:48:17.699Z</time>
      </trkpt>
      <trkpt lat="49.269235" lon="10.303588">
        <ele>474.364443</ele>
        <time>2026-04-26T15:48:41.946Z</time>
      </trkpt>
      <trkpt lat="49.268981" lon="10.303773">
        <ele>474.394307</ele>
        <time>2026-04-26T15:48:48.017Z</time>
      </trkpt>
      <trkpt lat="49.268614" lon="10.303950">
        <ele>474.498239</ele>
        <time>2026-04-26T15:48:56.261Z</time>
      </trkpt>
      <trkpt lat="49.267244" lon="10.304437">
        <ele>474.975598</ele>
        <time>2026-04-26T15:49:27.027Z</time>
      </trkpt>
      <trkpt lat="49.267175" lon="10.304453">
        <ele>474.999285</ele>
        <time>2026-04-26T15:49:28.595Z</time>
      </trkpt>
      <trkpt lat="49.267035" lon="10.304438">
        <ele>474.954739</ele>
        <time>2026-04-26T15:49:31.628Z</time>
      </trkpt>
      <trkpt lat="49.266812" lon="10.304356">
        <ele>474.793150</ele>
        <time>2026-04-26T15:49:36.459Z</time>
      </trkpt>
      <trkpt lat="49.266628" lon="10.304346">
        <ele>474.663420</ele>
        <time>2026-04-26T15:49:40.246Z</time>
      </trkpt>
      <trkpt lat="49.266221" lon="10.304469">
        <ele>474.371118</ele>
        <time>2026-04-26T15:49:48.627Z</time>
      </trkpt>
      <trkpt lat="49.266123" lon="10.304533">
        <ele>474.296057</ele>
        <time>2026-04-26T15:49:50.787Z</time>
      </trkpt>
      <trkpt lat="49.265543" lon="10.305065">
        <ele>473.819768</ele>
        <time>2026-04-26T15:50:03.281Z</time>
      </trkpt>
      <trkpt lat="49.265258" lon="10.305243">
        <ele>473.593881</ele>
        <time>2026-04-26T15:50:08.883Z</time>
      </trkpt>
      <trkpt lat="49.264767" lon="10.305478">
        <ele>473.209111</ele>
        <time>2026-04-26T15:50:18.512Z</time>
      </trkpt>
      <trkpt lat="49.263858" lon="10.306211">
        <ele>472.440775</ele>
        <time>2026-04-26T15:50:39.371Z</time>
      </trkpt>
      <trkpt lat="49.262967" lon="10.306779">
        <ele>472.313818</ele>
        <time>2026-04-26T15:50:59.875Z</time>
      </trkpt>
      <trkpt lat="49.262460" lon="10.307035">
        <ele>472.261156</ele>
        <time>2026-04-26T15:51:10.991Z</time>
      </trkpt>
      <trkpt lat="49.261851" lon="10.307268">
        <ele>472.183759</ele>
        <time>2026-04-26T15:51:23.994Z</time>
      </trkpt>
      <trkpt lat="49.261653" lon="10.307388">
        <ele>472.150946</ele>
        <time>2026-04-26T15:51:28.426Z</time>
      </trkpt>
      <trkpt lat="49.261473" lon="10.307589">
        <ele>472.116621</ele>
        <time>2026-04-26T15:51:32.878Z</time>
      </trkpt>
      <trkpt lat="49.261310" lon="10.307833">
        <ele>472.081504</ele>
        <time>2026-04-26T15:51:37.503Z</time>
      </trkpt>
      <trkpt lat="49.261165" lon="10.308130">
        <ele>472.044200</ele>
        <time>2026-04-26T15:51:42.614Z</time>
      </trkpt>
      <trkpt lat="49.261114" lon="10.308290">
        <ele>472.026292</ele>
        <time>2026-04-26T15:51:45.048Z</time>
      </trkpt>
      <trkpt lat="49.261116" lon="10.308624">
        <ele>471.992699</ele>
        <time>2026-04-26T15:51:49.693Z</time>
      </trkpt>
      <trkpt lat="49.260932" lon="10.308677">
        <ele>471.963846</ele>
        <time>2026-04-26T15:51:53.632Z</time>
      </trkpt>
      <trkpt lat="49.260946" lon="10.308997">
        <ele>471.933511</ele>
        <time>2026-04-26T15:51:58.134Z</time>
      </trkpt>
      <trkpt lat="49.260898" lon="10.309316">
        <ele>471.904105</ele>
        <time>2026-04-26T15:52:02.750Z</time>
      </trkpt>
      <trkpt lat="49.260480" lon="10.310480">
        <ele>471.784762</ele>
        <time>2026-04-26T15:52:21.009Z</time>
      </trkpt>
      <trkpt lat="49.260457" lon="10.310541">
        <ele>471.778434</ele>
        <time>2026-04-26T15:52:21.948Z</time>
      </trkpt>
      <trkpt lat="49.260345" lon="10.310856">
        <ele>471.746212</ele>
        <time>2026-04-26T15:52:26.716Z</time>
      </trkpt>
      <trkpt lat="49.259825" lon="10.312359">
        <ele>471.257442</ele>
        <time>2026-04-26T15:52:48.953Z</time>
      </trkpt>
      <trkpt lat="49.259683" lon="10.312943">
        <ele>471.028272</ele>
        <time>2026-04-26T15:52:57.238Z</time>
      </trkpt>
      <trkpt lat="49.259583" lon="10.313590">
        <ele>470.783774</ele>
        <time>2026-04-26T15:53:05.945Z</time>
      </trkpt>
      <trkpt lat="49.259388" lon="10.313873">
        <ele>470.571113</ele>
        <time>2026-04-26T15:53:11.255Z</time>
      </trkpt>
      <trkpt lat="49.259179" lon="10.314167">
        <ele>470.236557</ele>
        <time>2026-04-26T15:53:16.838Z</time>
      </trkpt>
      <trkpt lat="49.258620" lon="10.314714">
        <ele>469.454446</ele>
        <time>2026-04-26T15:53:29.710Z</time>
      </trkpt>
      <trkpt lat="49.258208" lon="10.314963">
        <ele>468.932198</ele>
        <time>2026-04-26T15:53:37.857Z</time>
      </trkpt>
      <trkpt lat="49.258027" lon="10.315001">
        <ele>468.716773</ele>
        <time>2026-04-26T15:53:41.119Z</time>
      </trkpt>
      <trkpt lat="49.257841" lon="10.314916">
        <ele>468.442551</ele>
        <time>2026-04-26T15:53:44.622Z</time>
      </trkpt>
      <trkpt lat="49.257410" lon="10.314459">
        <ele>467.473047</ele>
        <time>2026-04-26T15:53:54.025Z</time>
      </trkpt>
      <trkpt lat="49.257025" lon="10.314166">
        <ele>466.677902</ele>
        <time>2026-04-26T15:54:01.609Z</time>
      </trkpt>
      <trkpt lat="49.256008" lon="10.313753">
        <ele>464.962239</ele>
        <time>2026-04-26T15:54:20.124Z</time>
      </trkpt>
      <trkpt lat="49.255064" lon="10.313555">
        <ele>463.997904</ele>
        <time>2026-04-26T15:54:39.072Z</time>
      </trkpt>
      <trkpt lat="49.252445" lon="10.313849">
        <ele>463.091258</ele>
        <time>2026-04-26T15:55:35.861Z</time>
      </trkpt>
      <trkpt lat="49.252113" lon="10.313839">
        <ele>463.068791</ele>
        <time>2026-04-26T15:55:43.294Z</time>
      </trkpt>
      <trkpt lat="49.251905" lon="10.313898">
        <ele>463.054479</ele>
        <time>2026-04-26T15:55:48.030Z</time>
      </trkpt>
      <trkpt lat="49.251341" lon="10.314267">
        <ele>463.012986</ele>
        <time>2026-04-26T15:56:01.539Z</time>
      </trkpt>
      <trkpt lat="49.251121" lon="10.314324">
        <ele>462.997890</ele>
        <time>2026-04-26T15:56:06.361Z</time>
      </trkpt>
      <trkpt lat="49.250815" lon="10.314294">
        <ele>462.908270</ele>
        <time>2026-04-26T15:56:12.882Z</time>
      </trkpt>
      <trkpt lat="49.250564" lon="10.314360">
        <ele>462.769774</ele>
        <time>2026-04-26T15:56:18.208Z</time>
      </trkpt>
      <trkpt lat="49.250042" lon="10.314653">
        <ele>462.467442</ele>
        <time>2026-04-26T15:56:29.598Z</time>
      </trkpt>
      <trkpt lat="49.249771" lon="10.314844">
        <ele>462.305216</ele>
        <time>2026-04-26T15:56:35.683Z</time>
      </trkpt>
      <trkpt lat="49.249505" lon="10.315158">
        <ele>462.122595</ele>
        <time>2026-04-26T15:56:42.673Z</time>
      </trkpt>
      <trkpt lat="49.249283" lon="10.315647">
        <ele>462.428345</ele>
        <time>2026-04-26T15:56:51.039Z</time>
      </trkpt>
      <trkpt lat="49.249141" lon="10.315903">
        <ele>462.940833</ele>
        <time>2026-04-26T15:56:55.914Z</time>
      </trkpt>
      <trkpt lat="49.248827" lon="10.316368">
        <ele>463.961469</ele>
        <time>2026-04-26T15:57:06.033Z</time>
      </trkpt>
      <trkpt lat="49.248173" lon="10.316993">
        <ele>465.762884</ele>
        <time>2026-04-26T15:57:24.955Z</time>
      </trkpt>
      <trkpt lat="49.248435" lon="10.317614">
        <ele>467.823081</ele>
        <time>2026-04-26T15:57:38.205Z</time>
      </trkpt>
      <trkpt lat="49.248474" lon="10.317790">
        <ele>468.496078</ele>
        <time>2026-04-26T15:57:41.661Z</time>
      </trkpt>
      <trkpt lat="49.248485" lon="10.318114">
        <ele>469.670839</ele>
        <time>2026-04-26T15:57:47.751Z</time>
      </trkpt>
      <trkpt lat="49.248516" lon="10.318240">
        <ele>470.158402</ele>
        <time>2026-04-26T15:57:50.306Z</time>
      </trkpt>
      <trkpt lat="49.248582" lon="10.318357">
        <ele>470.718315</ele>
        <time>2026-04-26T15:57:53.286Z</time>
      </trkpt>
      <trkpt lat="49.248682" lon="10.318397">
        <ele>471.291603</ele>
        <time>2026-04-26T15:57:56.336Z</time>
      </trkpt>
      <trkpt lat="49.248971" lon="10.318269">
        <ele>472.960315</ele>
        <time>2026-04-26T15:58:05.009Z</time>
      </trkpt>
      <trkpt lat="49.249112" lon="10.318292">
        <ele>473.746851</ele>
        <time>2026-04-26T15:58:08.925Z</time>
      </trkpt>
      <trkpt lat="49.249240" lon="10.318499">
        <ele>474.779268</ele>
        <time>2026-04-26T15:58:13.910Z</time>
      </trkpt>
      <trkpt lat="49.249297" lon="10.318656">
        <ele>475.429751</ele>
        <time>2026-04-26T15:58:17.092Z</time>
      </trkpt>
      <trkpt lat="49.249331" lon="10.318790">
        <ele>475.950310</ele>
        <time>2026-04-26T15:58:19.603Z</time>
      </trkpt>
      <trkpt lat="49.249336" lon="10.318943">
        <ele>476.384873</ele>
        <time>2026-04-26T15:58:22.288Z</time>
      </trkpt>
      <trkpt lat="49.249296" lon="10.319016">
        <ele>476.598739</ele>
        <time>2026-04-26T15:58:23.948Z</time>
      </trkpt>
      <trkpt lat="49.249207" lon="10.319079">
        <ele>476.935759</ele>
        <time>2026-04-26T15:58:26.548Z</time>
      </trkpt>
      <trkpt lat="49.248941" lon="10.319104">
        <ele>477.851857</ele>
        <time>2026-04-26T15:58:33.564Z</time>
      </trkpt>
      <trkpt lat="49.248866" lon="10.319153">
        <ele>478.132138</ele>
        <time>2026-04-26T15:58:35.675Z</time>
      </trkpt>
      <trkpt lat="49.248750" lon="10.319323">
        <ele>478.683972</ele>
        <time>2026-04-26T15:58:39.762Z</time>
      </trkpt>
      <trkpt lat="49.248677" lon="10.319505">
        <ele>479.163301</ele>
        <time>2026-04-26T15:58:43.234Z</time>
      </trkpt>
      <trkpt lat="49.248685" lon="10.320264">
        <ele>480.866667</ele>
        <time>2026-04-26T15:58:56.034Z</time>
      </trkpt>
      <trkpt lat="49.248638" lon="10.320693">
        <ele>481.842777</ele>
        <time>2026-04-26T15:59:03.264Z</time>
      </trkpt>
      <trkpt lat="49.248244" lon="10.322427">
        <ele>483.491062</ele>
        <time>2026-04-26T15:59:32.752Z</time>
      </trkpt>
      <trkpt lat="49.248230" lon="10.322652">
        <ele>483.649126</ele>
        <time>2026-04-26T15:59:36.183Z</time>
      </trkpt>
      <trkpt lat="49.248325" lon="10.323201">
        <ele>484.046322</ele>
        <time>2026-04-26T15:59:44.960Z</time>
      </trkpt>
      <trkpt lat="49.248286" lon="10.323793">
        <ele>484.689785</ele>
        <time>2026-04-26T15:59:54.384Z</time>
      </trkpt>
      <trkpt lat="49.248336" lon="10.324181">
        <ele>485.350882</ele>
        <time>2026-04-26T16:00:00.768Z</time>
      </trkpt>
      <trkpt lat="49.248382" lon="10.324389">
        <ele>485.717985</ele>
        <time>2026-04-26T16:00:04.318Z</time>
      </trkpt>
      <trkpt lat="49.248470" lon="10.324599">
        <ele>486.135125</ele>
        <time>2026-04-26T16:00:08.407Z</time>
      </trkpt>
      <trkpt lat="49.248708" lon="10.324876">
        <ele>486.900520</ele>
        <time>2026-04-26T16:00:15.980Z</time>
      </trkpt>
      <trkpt lat="49.248826" lon="10.325308">
        <ele>487.683314</ele>
        <time>2026-04-26T16:00:23.922Z</time>
      </trkpt>
      <trkpt lat="49.248905" lon="10.325466">
        <ele>488.015998</ele>
        <time>2026-04-26T16:00:27.363Z</time>
      </trkpt>
      <trkpt lat="49.249128" lon="10.325607">
        <ele>488.633768</ele>
        <time>2026-04-26T16:00:33.861Z</time>
      </trkpt>
      <trkpt lat="49.249207" lon="10.325725">
        <ele>488.921585</ele>
        <time>2026-04-26T16:00:36.879Z</time>
      </trkpt>
      <trkpt lat="49.249267" lon="10.326291">
        <ele>490.316924</ele>
        <time>2026-04-26T16:00:47.234Z</time>
      </trkpt>
      <trkpt lat="49.249348" lon="10.326481">
        <ele>490.869134</ele>
        <time>2026-04-26T16:00:51.348Z</time>
      </trkpt>
      <trkpt lat="49.249926" lon="10.326848">
        <ele>493.201534</ele>
        <time>2026-04-26T16:01:08.370Z</time>
      </trkpt>
      <trkpt lat="49.250089" lon="10.327068">
        <ele>494.011348</ele>
        <time>2026-04-26T16:01:14.167Z</time>
      </trkpt>
      <trkpt lat="49.250359" lon="10.328173">
        <ele>496.398189</ele>
        <time>2026-04-26T16:01:33.689Z</time>
      </trkpt>
      <trkpt lat="49.250411" lon="10.328466">
        <ele>496.855938</ele>
        <time>2026-04-26T16:01:38.531Z</time>
      </trkpt>
      <trkpt lat="49.250647" lon="10.330295">
        <ele>499.666610</ele>
        <time>2026-04-26T16:02:09.775Z</time>
      </trkpt>
      <trkpt lat="49.250767" lon="10.330399">
        <ele>499.610873</ele>
        <time>2026-04-26T16:02:14.403Z</time>
      </trkpt>
      <trkpt lat="49.250990" lon="10.330230">
        <ele>499.214025</ele>
        <time>2026-04-26T16:02:22.933Z</time>
      </trkpt>
      <trkpt lat="49.251176" lon="10.330416">
        <ele>498.859726</ele>
        <time>2026-04-26T16:02:30.631Z</time>
      </trkpt>
      <trkpt lat="49.251295" lon="10.330438">
        <ele>498.668534</ele>
        <time>2026-04-26T16:02:34.777Z</time>
      </trkpt>
      <trkpt lat="49.251351" lon="10.330409">
        <ele>498.574244</ele>
        <time>2026-04-26T16:02:36.822Z</time>
      </trkpt>
      <trkpt lat="49.251295" lon="10.330438">
        <ele>498.479953</ele>
        <time>2026-04-26T16:02:38.761Z</time>
      </trkpt>
      <trkpt lat="49.251176" lon="10.330416">
        <ele>498.288761</ele>
        <time>2026-04-26T16:02:42.829Z</time>
      </trkpt>
      <trkpt lat="49.250990" lon="10.330230">
        <ele>497.934462</ele>
        <time>2026-04-26T16:02:50.194Z</time>
      </trkpt>
      <trkpt lat="49.250767" lon="10.330399">
        <ele>497.537614</ele>
        <time>2026-04-26T16:02:57.818Z</time>
      </trkpt>
      <trkpt lat="49.250647" lon="10.330295">
        <ele>497.317697</ele>
        <time>2026-04-26T16:03:01.751Z</time>
      </trkpt>
      <trkpt lat="49.250768" lon="10.331308">
        <ele>495.451063</ele>
        <time>2026-04-26T16:03:19.557Z</time>
      </trkpt>
      <trkpt lat="49.250789" lon="10.331853">
        <ele>494.187135</ele>
        <time>2026-04-26T16:03:29.632Z</time>
      </trkpt>
      <trkpt lat="49.250837" lon="10.332390">
        <ele>492.932323</ele>
        <time>2026-04-26T16:03:40.361Z</time>
      </trkpt>
      <trkpt lat="49.250828" lon="10.332486">
        <ele>492.707793</ele>
        <time>2026-04-26T16:03:42.306Z</time>
      </trkpt>
      <trkpt lat="49.250570" lon="10.333322">
        <ele>490.566952</ele>
        <time>2026-04-26T16:04:00.862Z</time>
      </trkpt>
      <trkpt lat="49.250493" lon="10.333507">
        <ele>490.285295</ele>
        <time>2026-04-26T16:04:05.249Z</time>
      </trkpt>
      <trkpt lat="49.250011" lon="10.334034">
        <ele>489.226227</ele>
        <time>2026-04-26T16:04:23.437Z</time>
      </trkpt>
      <trkpt lat="49.249921" lon="10.334234">
        <ele>488.942634</ele>
        <time>2026-04-26T16:04:28.437Z</time>
      </trkpt>
      <trkpt lat="49.249740" lon="10.334934">
        <ele>488.063647</ele>
        <time>2026-04-26T16:04:44.362Z</time>
      </trkpt>
      <trkpt lat="49.249630" lon="10.335222">
        <ele>487.674097</ele>
        <time>2026-04-26T16:04:51.733Z</time>
      </trkpt>
      <trkpt lat="49.249434" lon="10.335596">
        <ele>487.024236</ele>
        <time>2026-04-26T16:05:02.478Z</time>
      </trkpt>
      <trkpt lat="49.249156" lon="10.336096">
        <ele>485.883728</ele>
        <time>2026-04-26T16:05:16.950Z</time>
      </trkpt>
      <trkpt lat="49.249006" lon="10.336234">
        <ele>485.418272</ele>
        <time>2026-04-26T16:05:22.627Z</time>
      </trkpt>
      <trkpt lat="49.248844" lon="10.336273">
        <ele>484.982032</ele>
        <time>2026-04-26T16:05:27.827Z</time>
      </trkpt>
      <trkpt lat="49.248641" lon="10.336180">
        <ele>484.418383</ele>
        <time>2026-04-26T16:05:34.375Z</time>
      </trkpt>
      <trkpt lat="49.248523" lon="10.335918">
        <ele>483.865635</ele>
        <time>2026-04-26T16:05:40.573Z</time>
      </trkpt>
      <trkpt lat="49.247963" lon="10.333343">
        <ele>476.414536</ele>
        <time>2026-04-26T16:06:29.393Z</time>
      </trkpt>
      <trkpt lat="49.247867" lon="10.333134">
        <ele>475.609298</ele>
        <time>2026-04-26T16:06:34.017Z</time>
      </trkpt>
      <trkpt lat="49.247759" lon="10.333010">
        <ele>474.957822</ele>
        <time>2026-04-26T16:06:37.778Z</time>
      </trkpt>
      <trkpt lat="49.247118" lon="10.332489">
        <ele>471.437022</ele>
        <time>2026-04-26T16:06:57.815Z</time>
      </trkpt>
      <trkpt lat="49.246559" lon="10.331631">
        <ele>467.588105</ele>
        <time>2026-04-26T16:07:19.269Z</time>
      </trkpt>
      <trkpt lat="49.246365" lon="10.331441">
        <ele>466.468142</ele>
        <time>2026-04-26T16:07:25.508Z</time>
      </trkpt>
      <trkpt lat="49.246156" lon="10.331369">
        <ele>465.426201</ele>
        <time>2026-04-26T16:07:31.413Z</time>
      </trkpt>
      <trkpt lat="49.245947" lon="10.331007">
        <ele>464.703947</ele>
        <time>2026-04-26T16:07:40.517Z</time>
      </trkpt>
      <trkpt lat="49.245850" lon="10.330764">
        <ele>464.415822</ele>
        <time>2026-04-26T16:07:46.141Z</time>
      </trkpt>
      <trkpt lat="49.245812" lon="10.330535">
        <ele>464.176804</ele>
        <time>2026-04-26T16:07:50.963Z</time>
      </trkpt>
      <trkpt lat="49.245850" lon="10.329998">
        <ele>463.630405</ele>
        <time>2026-04-26T16:08:02.513Z</time>
      </trkpt>
      <trkpt lat="49.245687" lon="10.329310">
        <ele>462.890024</ele>
        <time>2026-04-26T16:08:19.062Z</time>
      </trkpt>
      <trkpt lat="49.245539" lon="10.328940">
        <ele>462.451066</ele>
        <time>2026-04-26T16:08:28.825Z</time>
      </trkpt>
      <trkpt lat="49.244821" lon="10.327864">
        <ele>461.809373</ele>
        <time>2026-04-26T16:09:03.593Z</time>
      </trkpt>
      <trkpt lat="49.244450" lon="10.327452">
        <ele>461.562618</ele>
        <time>2026-04-26T16:09:18.710Z</time>
      </trkpt>
      <trkpt lat="49.243913" lon="10.326945">
        <ele>461.442046</ele>
        <time>2026-04-26T16:09:40.353Z</time>
      </trkpt>
      <trkpt lat="49.243432" lon="10.326556">
        <ele>461.759805</ele>
        <time>2026-04-26T16:09:59.108Z</time>
      </trkpt>
      <trkpt lat="49.243303" lon="10.328692">
        <ele>462.539252</ele>
        <time>2026-04-26T16:10:30.979Z</time>
      </trkpt>
      <trkpt lat="49.243188" lon="10.330557">
        <ele>463.114933</ele>
        <time>2026-04-26T16:10:57.453Z</time>
      </trkpt>
      <trkpt lat="49.243140" lon="10.331026">
        <ele>463.239286</ele>
        <time>2026-04-26T16:11:03.923Z</time>
      </trkpt>
      <trkpt lat="49.243053" lon="10.331490">
        <ele>463.297326</ele>
        <time>2026-04-26T16:11:10.568Z</time>
      </trkpt>
      <trkpt lat="49.242926" lon="10.331902">
        <ele>463.352103</ele>
        <time>2026-04-26T16:11:16.895Z</time>
      </trkpt>
      <trkpt lat="49.242757" lon="10.332277">
        <ele>463.406886</ele>
        <time>2026-04-26T16:11:23.326Z</time>
      </trkpt>
      <trkpt lat="49.242546" lon="10.332606">
        <ele>463.462333</ele>
        <time>2026-04-26T16:11:29.842Z</time>
      </trkpt>
      <trkpt lat="49.242298" lon="10.332866">
        <ele>463.517677</ele>
        <time>2026-04-26T16:11:36.273Z</time>
      </trkpt>
      <trkpt lat="49.242053" lon="10.333060">
        <ele>463.616734</ele>
        <time>2026-04-26T16:11:42.159Z</time>
      </trkpt>
      <trkpt lat="49.241753" lon="10.333199">
        <ele>463.910710</ele>
        <time>2026-04-26T16:11:48.896Z</time>
      </trkpt>
      <trkpt lat="49.241027" lon="10.333355">
        <ele>464.598326</ele>
        <time>2026-04-26T16:12:05.247Z</time>
      </trkpt>
      <trkpt lat="49.240663" lon="10.333415">
        <ele>464.941709</ele>
        <time>2026-04-26T16:12:13.716Z</time>
      </trkpt>
      <trkpt lat="49.240417" lon="10.333495">
        <ele>465.177587</ele>
        <time>2026-04-26T16:12:19.598Z</time>
      </trkpt>
      <trkpt lat="49.239533" lon="10.333930">
        <ele>465.036799</ele>
        <time>2026-04-26T16:12:40.504Z</time>
      </trkpt>
      <trkpt lat="49.239168" lon="10.334104">
        <ele>464.944616</ele>
        <time>2026-04-26T16:12:48.198Z</time>
      </trkpt>
      <trkpt lat="49.238835" lon="10.334289">
        <ele>464.859195</ele>
        <time>2026-04-26T16:12:54.639Z</time>
      </trkpt>
      <trkpt lat="49.238533" lon="10.334554">
        <ele>464.576659</ele>
        <time>2026-04-26T16:13:00.560Z</time>
      </trkpt>
      <trkpt lat="49.238076" lon="10.335054">
        <ele>463.666205</ele>
        <time>2026-04-26T16:13:09.996Z</time>
      </trkpt>
      <trkpt lat="49.237785" lon="10.335296">
        <ele>463.129408</ele>
        <time>2026-04-26T16:13:15.875Z</time>
      </trkpt>
      <trkpt lat="49.237233" lon="10.335549">
        <ele>462.195348</ele>
        <time>2026-04-26T16:13:26.954Z</time>
      </trkpt>
      <trkpt lat="49.236916" lon="10.335771">
        <ele>461.911975</ele>
        <time>2026-04-26T16:13:33.962Z</time>
      </trkpt>
      <trkpt lat="49.236555" lon="10.336223">
        <ele>461.962949</ele>
        <time>2026-04-26T16:13:43.500Z</time>
      </trkpt>
      <trkpt lat="49.236252" lon="10.336729">
        <ele>462.011956</ele>
        <time>2026-04-26T16:13:52.900Z</time>
      </trkpt>
      <trkpt lat="49.236095" lon="10.336936">
        <ele>462.034603</ele>
        <time>2026-04-26T16:13:57.375Z</time>
      </trkpt>
      <trkpt lat="49.235871" lon="10.337157">
        <ele>462.063731</ele>
        <time>2026-04-26T16:14:03.225Z</time>
      </trkpt>
      <trkpt lat="49.236170" lon="10.337781">
        <ele>462.719207</ele>
        <time>2026-04-26T16:14:14.590Z</time>
      </trkpt>
      <trkpt lat="49.236333" lon="10.338230">
        <ele>463.537115</ele>
        <time>2026-04-26T16:14:22.323Z</time>
      </trkpt>
      <trkpt lat="49.236367" lon="10.338454">
        <ele>463.903252</ele>
        <time>2026-04-26T16:14:25.831Z</time>
      </trkpt>
      <trkpt lat="49.236406" lon="10.339083">
        <ele>464.909180</ele>
        <time>2026-04-26T16:14:35.628Z</time>
      </trkpt>
      <trkpt lat="49.236432" lon="10.339182">
        <ele>465.079068</ele>
        <time>2026-04-26T16:14:37.302Z</time>
      </trkpt>
      <trkpt lat="49.236595" lon="10.339531">
        <ele>465.762221</ele>
        <time>2026-04-26T16:14:44.103Z</time>
      </trkpt>
      <trkpt lat="49.236747" lon="10.339791">
        <ele>466.317839</ele>
        <time>2026-04-26T16:14:49.764Z</time>
      </trkpt>
      <trkpt lat="49.236848" lon="10.339902">
        <ele>466.855832</ele>
        <time>2026-04-26T16:14:52.895Z</time>
      </trkpt>
      <trkpt lat="49.237171" lon="10.340112">
        <ele>469.102630</ele>
        <time>2026-04-26T16:15:02.056Z</time>
      </trkpt>
      <trkpt lat="49.237459" lon="10.340316">
        <ele>471.134360</ele>
        <time>2026-04-26T16:15:10.799Z</time>
      </trkpt>
      <trkpt lat="49.237662" lon="10.340540">
        <ele>472.736381</ele>
        <time>2026-04-26T16:15:18.038Z</time>
      </trkpt>
      <trkpt lat="49.237765" lon="10.340704">
        <ele>473.687714</ele>
        <time>2026-04-26T16:15:22.490Z</time>
      </trkpt>
      <trkpt lat="49.237969" lon="10.341199">
        <ele>476.134889</ele>
        <time>2026-04-26T16:15:34.488Z</time>
      </trkpt>
      <trkpt lat="49.238044" lon="10.341565">
        <ele>477.738588</ele>
        <time>2026-04-26T16:15:42.710Z</time>
      </trkpt>
      <trkpt lat="49.238137" lon="10.343954">
        <ele>491.454811</ele>
        <time>2026-04-26T16:16:36.309Z</time>
      </trkpt>
      <trkpt lat="49.238184" lon="10.344471">
        <ele>494.375479</ele>
        <time>2026-04-26T16:16:47.593Z</time>
      </trkpt>
      <trkpt lat="49.238422" lon="10.345669">
        <ele>500.444541</ele>
        <time>2026-04-26T16:17:13.843Z</time>
      </trkpt>
      <trkpt lat="49.238499" lon="10.346188">
        <ele>503.024044</ele>
        <time>2026-04-26T16:17:24.773Z</time>
      </trkpt>
      <trkpt lat="49.238532" lon="10.346739">
        <ele>505.705724</ele>
        <time>2026-04-26T16:17:35.594Z</time>
      </trkpt>
      <trkpt lat="49.238488" lon="10.347524">
        <ele>508.382244</ele>
        <time>2026-04-26T16:17:49.948Z</time>
      </trkpt>
      <trkpt lat="49.238416" lon="10.347988">
        <ele>509.535847</ele>
        <time>2026-04-26T16:17:58.133Z</time>
      </trkpt>
      <trkpt lat="49.237964" lon="10.350136">
        <ele>514.615079</ele>
        <time>2026-04-26T16:18:33.354Z</time>
      </trkpt>
      <trkpt lat="49.237553" lon="10.352063">
        <ele>517.805914</ele>
        <time>2026-04-26T16:19:04.874Z</time>
      </trkpt>
      <trkpt lat="49.237459" lon="10.352450">
        <ele>518.306051</ele>
        <time>2026-04-26T16:19:11.225Z</time>
      </trkpt>
      <trkpt lat="49.237285" lon="10.353005">
        <ele>518.590487</ele>
        <time>2026-04-26T16:19:20.531Z</time>
      </trkpt>
      <trkpt lat="49.236995" lon="10.353787">
        <ele>519.005977</ele>
        <time>2026-04-26T16:19:33.818Z</time>
      </trkpt>
      <trkpt lat="49.236726" lon="10.354533">
        <ele>519.399697</ele>
        <time>2026-04-26T16:19:45.414Z</time>
      </trkpt>
      <trkpt lat="49.236834" lon="10.354561">
        <ele>519.477202</ele>
        <time>2026-04-26T16:19:48.316Z</time>
      </trkpt>
      <trkpt lat="49.236036" lon="10.356671">
        <ele>517.409241</ele>
        <time>2026-04-26T16:20:19.788Z</time>
      </trkpt>
      <trkpt lat="49.235388" lon="10.358622">
        <ele>514.308852</ele>
        <time>2026-04-26T16:20:45.504Z</time>
      </trkpt>
      <trkpt lat="49.235212" lon="10.359091">
        <ele>513.479381</ele>
        <time>2026-04-26T16:20:51.651Z</time>
      </trkpt>
      <trkpt lat="49.235101" lon="10.359081">
        <ele>513.218259</ele>
        <time>2026-04-26T16:20:53.599Z</time>
      </trkpt>
      <trkpt lat="49.235040" lon="10.359198">
        <ele>512.988676</ele>
        <time>2026-04-26T16:20:55.245Z</time>
      </trkpt>
      <trkpt lat="49.234721" lon="10.359867">
        <ele>512.190278</ele>
        <time>2026-04-26T16:21:04.594Z</time>
      </trkpt>
      <trkpt lat="49.234672" lon="10.359970">
        <ele>512.078121</ele>
        <time>2026-04-26T16:21:06.071Z</time>
      </trkpt>
      <trkpt lat="49.234588" lon="10.360180">
        <ele>511.861379</ele>
        <time>2026-04-26T16:21:08.950Z</time>
      </trkpt>
      <trkpt lat="49.234175" lon="10.360050">
        <ele>511.293080</ele>
        <time>2026-04-26T16:21:38.237Z</time>
      </trkpt>
      <trkpt lat="49.234588" lon="10.360180">
        <ele>510.724782</ele>
        <time>2026-04-26T16:22:07.522Z</time>
      </trkpt>
      <trkpt lat="49.234361" lon="10.360929">
        <ele>510.668364</ele>
        <time>2026-04-26T16:22:18.959Z</time>
      </trkpt>
      <trkpt lat="49.234073" lon="10.362064">
        <ele>511.376622</ele>
        <time>2026-04-26T16:22:36.897Z</time>
      </trkpt>
      <trkpt lat="49.233982" lon="10.362507">
        <ele>511.646741</ele>
        <time>2026-04-26T16:22:43.869Z</time>
      </trkpt>
      <trkpt lat="49.233980" lon="10.362726">
        <ele>511.774133</ele>
        <time>2026-04-26T16:22:47.174Z</time>
      </trkpt>
      <trkpt lat="49.234043" lon="10.363381">
        <ele>511.793947</ele>
        <time>2026-04-26T16:22:57.136Z</time>
      </trkpt>
      <trkpt lat="49.234037" lon="10.363661">
        <ele>511.573911</ele>
        <time>2026-04-26T16:23:01.257Z</time>
      </trkpt>
      <trkpt lat="49.233990" lon="10.363883">
        <ele>511.390611</ele>
        <time>2026-04-26T16:23:04.615Z</time>
      </trkpt>
      <trkpt lat="49.233897" lon="10.363980">
        <ele>511.255267</ele>
        <time>2026-04-26T16:23:06.997Z</time>
      </trkpt>
      <trkpt lat="49.233952" lon="10.364098">
        <ele>511.141397</ele>
        <time>2026-04-26T16:23:08.958Z</time>
      </trkpt>
      <trkpt lat="49.234167" lon="10.364130">
        <ele>510.881567</ele>
        <time>2026-04-26T16:23:13.220Z</time>
      </trkpt>
      <trkpt lat="49.233952" lon="10.364098">
        <ele>510.621737</ele>
        <time>2026-04-26T16:23:17.111Z</time>
      </trkpt>
      <trkpt lat="49.233897" lon="10.363980">
        <ele>510.507868</ele>
        <time>2026-04-26T16:23:18.706Z</time>
      </trkpt>
      <trkpt lat="49.233818" lon="10.363961">
        <ele>510.411678</ele>
        <time>2026-04-26T16:23:20.032Z</time>
      </trkpt>
      <trkpt lat="49.233712" lon="10.363873">
        <ele>510.266648</ele>
        <time>2026-04-26T16:23:22.010Z</time>
      </trkpt>
      <trkpt lat="49.233489" lon="10.363655">
        <ele>509.948422</ele>
        <time>2026-04-26T16:23:26.214Z</time>
      </trkpt>
      <trkpt lat="49.233463" lon="10.363556">
        <ele>509.864611</ele>
        <time>2026-04-26T16:23:27.717Z</time>
      </trkpt>
      <trkpt lat="49.233280" lon="10.363218">
        <ele>509.291026</ele>
        <time>2026-04-26T16:23:33.834Z</time>
      </trkpt>
      <trkpt lat="49.232963" lon="10.362963">
        <ele>508.553024</ele>
        <time>2026-04-26T16:23:41.589Z</time>
      </trkpt>
      <trkpt lat="49.233007" lon="10.362711">
        <ele>508.201959</ele>
        <time>2026-04-26T16:23:44.352Z</time>
      </trkpt>
      <trkpt lat="49.233016" lon="10.362454">
        <ele>507.855583</ele>
        <time>2026-04-26T16:23:47.151Z</time>
      </trkpt>
      <trkpt lat="49.232992" lon="10.362266">
        <ele>507.597776</ele>
        <time>2026-04-26T16:23:49.303Z</time>
      </trkpt>
      <trkpt lat="49.232940" lon="10.362154">
        <ele>507.412825</ele>
        <time>2026-04-26T16:23:50.878Z</time>
      </trkpt>
      <trkpt lat="49.232130" lon="10.361111">
        <ele>507.016244</ele>
        <time>2026-04-26T16:24:13.282Z</time>
      </trkpt>
      <trkpt lat="49.231828" lon="10.360772">
        <ele>507.772106</ele>
        <time>2026-04-26T16:24:22.140Z</time>
      </trkpt>
      <trkpt lat="49.231653" lon="10.360887">
        <ele>508.156518</ele>
        <time>2026-04-26T16:24:27.548Z</time>
      </trkpt>
      <trkpt lat="49.231516" lon="10.360780">
        <ele>508.466961</ele>
        <time>2026-04-26T16:24:31.236Z</time>
      </trkpt>
      <trkpt lat="49.230977" lon="10.360633">
        <ele>509.572125</ele>
        <time>2026-04-26T16:24:44.577Z</time>
      </trkpt>
      <trkpt lat="49.230070" lon="10.360302">
        <ele>512.000947</ele>
        <time>2026-04-26T16:25:07.467Z</time>
      </trkpt>
      <trkpt lat="49.229336" lon="10.360056">
        <ele>514.008226</ele>
        <time>2026-04-26T16:25:25.440Z</time>
      </trkpt>
      <trkpt lat="49.228509" lon="10.359627">
        <ele>514.719371</ele>
        <time>2026-04-26T16:25:45.362Z</time>
      </trkpt>
      <trkpt lat="49.228208" lon="10.359412">
        <ele>514.794641</ele>
        <time>2026-04-26T16:25:52.575Z</time>
      </trkpt>
      <trkpt lat="49.227504" lon="10.359076">
        <ele>514.961755</ele>
        <time>2026-04-26T16:26:07.356Z</time>
      </trkpt>
      <trkpt lat="49.226932" lon="10.358722">
        <ele>514.324737</ele>
        <time>2026-04-26T16:26:18.432Z</time>
      </trkpt>
      <trkpt lat="49.226009" lon="10.358337">
        <ele>513.192996</ele>
        <time>2026-04-26T16:26:35.884Z</time>
      </trkpt>
      <trkpt lat="49.224941" lon="10.357640">
        <ele>512.391007</ele>
        <time>2026-04-26T16:26:59.791Z</time>
      </trkpt>
      <trkpt lat="49.224319" lon="10.357334">
        <ele>512.047238</ele>
        <time>2026-04-26T16:27:13.283Z</time>
      </trkpt>
      <trkpt lat="49.223944" lon="10.357044">
        <ele>511.733834</ele>
        <time>2026-04-26T16:27:21.481Z</time>
      </trkpt>
      <trkpt lat="49.223061" lon="10.356502">
        <ele>510.626649</ele>
        <time>2026-04-26T16:27:39.232Z</time>
      </trkpt>
      <trkpt lat="49.222551" lon="10.356331">
        <ele>510.019019</ele>
        <time>2026-04-26T16:27:49.039Z</time>
      </trkpt>
      <trkpt lat="49.222020" lon="10.356041">
        <ele>509.391638</ele>
        <time>2026-04-26T16:28:00.097Z</time>
      </trkpt>
      <trkpt lat="49.221760" lon="10.355935">
        <ele>509.098680</ele>
        <time>2026-04-26T16:28:05.324Z</time>
      </trkpt>
      <trkpt lat="49.220997" lon="10.355722">
        <ele>508.254212</ele>
        <time>2026-04-26T16:28:20.251Z</time>
      </trkpt>
      <trkpt lat="49.220977" lon="10.355547">
        <ele>508.127869</ele>
        <time>2026-04-26T16:28:22.461Z</time>
      </trkpt>
      <trkpt lat="49.220996" lon="10.355380">
        <ele>508.007317</ele>
        <time>2026-04-26T16:28:24.664Z</time>
      </trkpt>
      <trkpt lat="49.220327" lon="10.355205">
        <ele>507.329838</ele>
        <time>2026-04-26T16:28:47.089Z</time>
      </trkpt>
      <trkpt lat="49.220016" lon="10.355168">
        <ele>507.026065</ele>
        <time>2026-04-26T16:28:57.243Z</time>
      </trkpt>
      <trkpt lat="49.219676" lon="10.355066">
        <ele>506.688668</ele>
        <time>2026-04-26T16:29:08.830Z</time>
      </trkpt>
      <trkpt lat="49.219384" lon="10.355049">
        <ele>506.404105</ele>
        <time>2026-04-26T16:29:18.860Z</time>
      </trkpt>
      <trkpt lat="49.217293" lon="10.354649">
        <ele>505.719390</ele>
        <time>2026-04-26T16:30:31.830Z</time>
      </trkpt>
      <trkpt lat="49.216346" lon="10.354485">
        <ele>505.623929</ele>
        <time>2026-04-26T16:31:04.823Z</time>
      </trkpt>
      <trkpt lat="49.215906" lon="10.354303">
        <ele>505.578524</ele>
        <time>2026-04-26T16:31:20.605Z</time>
      </trkpt>
      <trkpt lat="49.214866" lon="10.354053">
        <ele>506.156434</ele>
        <time>2026-04-26T16:31:56.994Z</time>
      </trkpt>
      <trkpt lat="49.213053" lon="10.353747">
        <ele>508.060537</ele>
        <time>2026-04-26T16:32:58.595Z</time>
      </trkpt>
      <trkpt lat="49.211870" lon="10.353611">
        <ele>509.367355</ele>
        <time>2026-04-26T16:33:38.655Z</time>
      </trkpt>
      <trkpt lat="49.210393" lon="10.353324">
        <ele>508.220441</ele>
        <time>2026-04-26T16:34:30.134Z</time>
      </trkpt>
      <trkpt lat="49.210367" lon="10.353494">
        <ele>508.132576</ele>
        <time>2026-04-26T16:34:32.238Z</time>
      </trkpt>
      <trkpt lat="49.209105" lon="10.353259">
        <ele>504.235451</ele>
        <time>2026-04-26T16:34:52.710Z</time>
      </trkpt>
      <trkpt lat="49.208929" lon="10.353230">
        <ele>503.648743</ele>
        <time>2026-04-26T16:34:55.471Z</time>
      </trkpt>
      <trkpt lat="49.208671" lon="10.353126">
        <ele>502.764467</ele>
        <time>2026-04-26T16:34:59.645Z</time>
      </trkpt>
      <trkpt lat="49.208524" lon="10.353005">
        <ele>502.211267</ele>
        <time>2026-04-26T16:35:02.249Z</time>
      </trkpt>
      <trkpt lat="49.208200" lon="10.352618">
        <ele>501.846156</ele>
        <time>2026-04-26T16:35:08.695Z</time>
      </trkpt>
      <trkpt lat="49.207577" lon="10.351785">
        <ele>501.333826</ele>
        <time>2026-04-26T16:35:24.326Z</time>
      </trkpt>
      <trkpt lat="49.207316" lon="10.351528">
        <ele>501.141618</ele>
        <time>2026-04-26T16:35:31.500Z</time>
      </trkpt>
      <trkpt lat="49.207017" lon="10.351252">
        <ele>501.094930</ele>
        <time>2026-04-26T16:35:39.910Z</time>
      </trkpt>
      <trkpt lat="49.206432" lon="10.350750">
        <ele>502.639236</ele>
        <time>2026-04-26T16:35:56.390Z</time>
      </trkpt>
      <trkpt lat="49.206394" lon="10.350854">
        <ele>502.818500</ele>
        <time>2026-04-26T16:35:58.361Z</time>
      </trkpt>
      <trkpt lat="49.206318" lon="10.350757">
        <ele>503.046360</ele>
        <time>2026-04-26T16:36:01.694Z</time>
      </trkpt>
      <trkpt lat="49.204811" lon="10.349486">
        <ele>507.015498</ele>
        <time>2026-04-26T16:36:59.686Z</time>
      </trkpt>
      <trkpt lat="49.204296" lon="10.349086">
        <ele>508.350268</ele>
        <time>2026-04-26T16:37:19.055Z</time>
      </trkpt>
      <trkpt lat="49.203893" lon="10.348700">
        <ele>509.499960</ele>
        <time>2026-04-26T16:37:35.092Z</time>
      </trkpt>
      <trkpt lat="49.203606" lon="10.348515">
        <ele>510.413585</ele>
        <time>2026-04-26T16:37:45.666Z</time>
      </trkpt>
      <trkpt lat="49.203530" lon="10.348481">
        <ele>510.645883</ele>
        <time>2026-04-26T16:37:48.313Z</time>
      </trkpt>
      <trkpt lat="49.202883" lon="10.347911">
        <ele>512.836047</ele>
        <time>2026-04-26T16:38:13.360Z</time>
      </trkpt>
      <trkpt lat="49.201022" lon="10.346417">
        <ele>517.676128</ele>
        <time>2026-04-26T16:39:23.819Z</time>
      </trkpt>
      <trkpt lat="49.199019" lon="10.344559">
        <ele>517.845600</ele>
        <time>2026-04-26T16:40:44.930Z</time>
      </trkpt>
      <trkpt lat="49.198750" lon="10.344393">
        <ele>517.551035</ele>
        <time>2026-04-26T16:40:54.478Z</time>
      </trkpt>
      <trkpt lat="49.196706" lon="10.342513">
        <ele>514.744206</ele>
        <time>2026-04-26T16:41:39.827Z</time>
      </trkpt>
      <trkpt lat="49.194787" lon="10.340823">
        <ele>511.492165</ele>
        <time>2026-04-26T16:42:20.120Z</time>
      </trkpt>
      <trkpt lat="49.193425" lon="10.339665">
        <ele>510.035717</ele>
        <time>2026-04-26T16:42:49.453Z</time>
      </trkpt>
      <trkpt lat="49.193061" lon="10.339379">
        <ele>509.696747</ele>
        <time>2026-04-26T16:42:58.088Z</time>
      </trkpt>
      <trkpt lat="49.192458" lon="10.339051">
        <ele>509.956494</ele>
        <time>2026-04-26T16:43:12.222Z</time>
      </trkpt>
      <trkpt lat="49.191776" lon="10.338755">
        <ele>510.354618</ele>
        <time>2026-04-26T16:43:28.120Z</time>
      </trkpt>
      <trkpt lat="49.190660" lon="10.338429">
        <ele>510.678554</ele>
        <time>2026-04-26T16:43:52.799Z</time>
      </trkpt>
      <trkpt lat="49.189165" lon="10.338050">
        <ele>510.712907</ele>
        <time>2026-04-26T16:44:24.392Z</time>
      </trkpt>
      <trkpt lat="49.188654" lon="10.337919">
        <ele>510.673038</ele>
        <time>2026-04-26T16:44:35.180Z</time>
      </trkpt>
      <trkpt lat="49.186113" lon="10.337237">
        <ele>510.384451</ele>
        <time>2026-04-26T16:45:29.594Z</time>
      </trkpt>
      <trkpt lat="49.184543" lon="10.336780">
        <ele>509.648594</ele>
        <time>2026-04-26T16:46:01.186Z</time>
      </trkpt>
      <trkpt lat="49.184234" lon="10.336640">
        <ele>509.487788</ele>
        <time>2026-04-26T16:46:07.756Z</time>
      </trkpt>
      <trkpt lat="49.183830" lon="10.336373">
        <ele>509.608411</ele>
        <time>2026-04-26T16:46:17.150Z</time>
      </trkpt>
      <trkpt lat="49.183627" lon="10.336287">
        <ele>509.685225</ele>
        <time>2026-04-26T16:46:21.743Z</time>
      </trkpt>
      <trkpt lat="49.183501" lon="10.336220">
        <ele>509.733870</ele>
        <time>2026-04-26T16:46:24.701Z</time>
      </trkpt>
      <trkpt lat="49.183064" lon="10.336083">
        <ele>509.896544</ele>
        <time>2026-04-26T16:46:34.573Z</time>
      </trkpt>
      <trkpt lat="49.182999" lon="10.336035">
        <ele>509.922865</ele>
        <time>2026-04-26T16:46:36.170Z</time>
      </trkpt>
      <trkpt lat="49.182955" lon="10.335928">
        <ele>509.952998</ele>
        <time>2026-04-26T16:46:38.463Z</time>
      </trkpt>
      <trkpt lat="49.182804" lon="10.335971">
        <ele>510.009010</ele>
        <time>2026-04-26T16:46:41.860Z</time>
      </trkpt>
      <trkpt lat="49.182399" lon="10.335890">
        <ele>510.156391</ele>
        <time>2026-04-26T16:46:50.814Z</time>
      </trkpt>
      <trkpt lat="49.182271" lon="10.335848">
        <ele>510.202124</ele>
        <time>2026-04-26T16:46:53.670Z</time>
      </trkpt>
      <trkpt lat="49.181478" lon="10.335574">
        <ele>510.486127</ele>
        <time>2026-04-26T16:47:11.117Z</time>
      </trkpt>
      <trkpt lat="49.181439" lon="10.335561">
        <ele>510.500070</ele>
        <time>2026-04-26T16:47:11.977Z</time>
      </trkpt>
      <trkpt lat="49.180648" lon="10.335308">
        <ele>510.784768</ele>
        <time>2026-04-26T16:47:29.461Z</time>
      </trkpt>
      <trkpt lat="49.179591" lon="10.334952">
        <ele>511.190015</ele>
        <time>2026-04-26T16:47:53.360Z</time>
      </trkpt>
      <trkpt lat="49.177870" lon="10.334357">
        <ele>510.489005</ele>
        <time>2026-04-26T16:48:30.817Z</time>
      </trkpt>
      <trkpt lat="49.177863" lon="10.334258">
        <ele>510.435870</ele>
        <time>2026-04-26T16:48:32.100Z</time>
      </trkpt>
      <trkpt lat="49.177787" lon="10.334169">
        <ele>510.357743</ele>
        <time>2026-04-26T16:48:33.992Z</time>
      </trkpt>
      <trkpt lat="49.177724" lon="10.334184">
        <ele>510.305699</ele>
        <time>2026-04-26T16:48:35.228Z</time>
      </trkpt>
      <trkpt lat="49.177669" lon="10.334301">
        <ele>510.228801</ele>
        <time>2026-04-26T16:48:37.018Z</time>
      </trkpt>
      <trkpt lat="49.176825" lon="10.334037">
        <ele>507.360679</ele>
        <time>2026-04-26T16:48:51.224Z</time>
      </trkpt>
      <trkpt lat="49.176681" lon="10.333986">
        <ele>506.630707</ele>
        <time>2026-04-26T16:48:53.493Z</time>
      </trkpt>
      <trkpt lat="49.176139" lon="10.333799">
        <ele>503.886739</ele>
        <time>2026-04-26T16:49:01.706Z</time>
      </trkpt>
      <trkpt lat="49.176042" lon="10.333774">
        <ele>503.400941</ele>
        <time>2026-04-26T16:49:03.126Z</time>
      </trkpt>
      <trkpt lat="49.175803" lon="10.333718">
        <ele>502.206847</ele>
        <time>2026-04-26T16:49:06.638Z</time>
      </trkpt>
      <trkpt lat="49.175496" lon="10.333739">
        <ele>500.756487</ele>
        <time>2026-04-26T16:49:11.049Z</time>
      </trkpt>
      <trkpt lat="49.175426" lon="10.333767">
        <ele>500.462069</ele>
        <time>2026-04-26T16:49:12.075Z</time>
      </trkpt>
      <trkpt lat="49.175380" lon="10.333836">
        <ele>500.199908</ele>
        <time>2026-04-26T16:49:13.020Z</time>
      </trkpt>
      <trkpt lat="49.175307" lon="10.333773">
        <ele>499.858845</ele>
        <time>2026-04-26T16:49:14.207Z</time>
      </trkpt>
      <trkpt lat="49.175219" lon="10.333753">
        <ele>499.496829</ele>
        <time>2026-04-26T16:49:15.509Z</time>
      </trkpt>
      <trkpt lat="49.174827" lon="10.333763">
        <ele>497.901503</ele>
        <time>2026-04-26T16:49:21.300Z</time>
      </trkpt>
      <trkpt lat="49.174243" lon="10.333569">
        <ele>495.469728</ele>
        <time>2026-04-26T16:49:31.154Z</time>
      </trkpt>
      <trkpt lat="49.173869" lon="10.333500">
        <ele>493.936838</ele>
        <time>2026-04-26T16:49:38.036Z</time>
      </trkpt>
      <trkpt lat="49.173547" lon="10.333422">
        <ele>492.742473</ele>
        <time>2026-04-26T16:49:43.945Z</time>
      </trkpt>
      <trkpt lat="49.173418" lon="10.333382">
        <ele>492.268874</ele>
        <time>2026-04-26T16:49:46.282Z</time>
      </trkpt>
      <trkpt lat="49.173310" lon="10.333326">
        <ele>491.858555</ele>
        <time>2026-04-26T16:49:48.291Z</time>
      </trkpt>
      <trkpt lat="49.172984" lon="10.332915">
        <ele>490.338475</ele>
        <time>2026-04-26T16:49:55.262Z</time>
      </trkpt>
      <trkpt lat="49.172627" lon="10.332395">
        <ele>488.564686</ele>
        <time>2026-04-26T16:50:03.156Z</time>
      </trkpt>
      <trkpt lat="49.172389" lon="10.332047">
        <ele>487.379992</ele>
        <time>2026-04-26T16:50:08.083Z</time>
      </trkpt>
      <trkpt lat="49.172219" lon="10.331869">
        <ele>485.957234</ele>
        <time>2026-04-26T16:50:11.069Z</time>
      </trkpt>
      <trkpt lat="49.172066" lon="10.331774">
        <ele>484.732505</ele>
        <time>2026-04-26T16:50:13.399Z</time>
      </trkpt>
      <trkpt lat="49.171788" lon="10.331682">
        <ele>482.622887</ele>
        <time>2026-04-26T16:50:17.356Z</time>
      </trkpt>
      <trkpt lat="49.171595" lon="10.331628">
        <ele>481.167666</ele>
        <time>2026-04-26T16:50:20.073Z</time>
      </trkpt>
      <trkpt lat="49.171447" lon="10.331521">
        <ele>479.953510</ele>
        <time>2026-04-26T16:50:22.344Z</time>
      </trkpt>
      <trkpt lat="49.171306" lon="10.331390">
        <ele>478.729906</ele>
        <time>2026-04-26T16:50:24.674Z</time>
      </trkpt>
      <trkpt lat="49.171075" lon="10.331148">
        <ele>476.653237</ele>
        <time>2026-04-26T16:50:28.660Z</time>
      </trkpt>
      <trkpt lat="49.171030" lon="10.331108">
        <ele>476.267205</ele>
        <time>2026-04-26T16:50:29.408Z</time>
      </trkpt>
      <trkpt lat="49.170852" lon="10.331002">
        <ele>474.850455</ele>
        <time>2026-04-26T16:50:32.113Z</time>
      </trkpt>
      <trkpt lat="49.170721" lon="10.330970">
        <ele>473.890905</ele>
        <time>2026-04-26T16:50:33.962Z</time>
      </trkpt>
      <trkpt lat="49.170536" lon="10.330999">
        <ele>472.966790</ele>
        <time>2026-04-26T16:50:36.566Z</time>
      </trkpt>
      <trkpt lat="49.170381" lon="10.331076">
        <ele>472.156958</ele>
        <time>2026-04-26T16:50:38.867Z</time>
      </trkpt>
      <trkpt lat="49.170245" lon="10.331245">
        <ele>471.286215</ele>
        <time>2026-04-26T16:50:41.376Z</time>
      </trkpt>
      <trkpt lat="49.170116" lon="10.331453">
        <ele>470.354772</ele>
        <time>2026-04-26T16:50:44.137Z</time>
      </trkpt>
      <trkpt lat="49.170027" lon="10.331665">
        <ele>469.536236</ele>
        <time>2026-04-26T16:50:46.667Z</time>
      </trkpt>
      <trkpt lat="49.169856" lon="10.332109">
        <ele>467.862039</ele>
        <time>2026-04-26T16:50:52.022Z</time>
      </trkpt>
      <trkpt lat="49.169719" lon="10.332500">
        <ele>466.420781</ele>
        <time>2026-04-26T16:50:56.718Z</time>
      </trkpt>
      <trkpt lat="49.169223" lon="10.333398">
        <ele>463.747339</ele>
        <time>2026-04-26T16:51:09.410Z</time>
      </trkpt>
      <trkpt lat="49.169174" lon="10.333467">
        <ele>463.574311</ele>
        <time>2026-04-26T16:51:10.549Z</time>
      </trkpt>
      <trkpt lat="49.168946" lon="10.333773">
        <ele>462.786303</ele>
        <time>2026-04-26T16:51:15.750Z</time>
      </trkpt>
      <trkpt lat="49.168397" lon="10.334509">
        <ele>460.889771</ele>
        <time>2026-04-26T16:51:28.129Z</time>
      </trkpt>
      <trkpt lat="49.168264" lon="10.334715">
        <ele>460.398033</ele>
        <time>2026-04-26T16:51:31.379Z</time>
      </trkpt>
      <trkpt lat="49.167888" lon="10.334834">
        <ele>459.562648</ele>
        <time>2026-04-26T16:51:38.053Z</time>
      </trkpt>
      <trkpt lat="49.167437" lon="10.334836">
        <ele>458.595333</ele>
        <time>2026-04-26T16:51:45.798Z</time>
      </trkpt>
      <trkpt lat="49.167325" lon="10.334613">
        <ele>458.200989</ele>
        <time>2026-04-26T16:51:48.977Z</time>
      </trkpt>
      <trkpt lat="49.167198" lon="10.334248">
        <ele>457.621151</ele>
        <time>2026-04-26T16:51:53.824Z</time>
      </trkpt>
      <trkpt lat="49.167150" lon="10.334109">
        <ele>457.400701</ele>
        <time>2026-04-26T16:51:55.663Z</time>
      </trkpt>
      <trkpt lat="49.166902" lon="10.333559">
        <ele>456.463732</ele>
        <time>2026-04-26T16:52:03.331Z</time>
      </trkpt>
      <trkpt lat="49.166816" lon="10.333528">
        <ele>456.273699</ele>
        <time>2026-04-26T16:52:04.859Z</time>
      </trkpt>
      <trkpt lat="49.166785" lon="10.333563">
        <ele>456.190826</ele>
        <time>2026-04-26T16:52:05.517Z</time>
      </trkpt>
      <trkpt lat="49.166711" lon="10.333941">
        <ele>455.635935</ele>
        <time>2026-04-26T16:52:09.964Z</time>
      </trkpt>
      <trkpt lat="49.166670" lon="10.334037">
        <ele>455.474685</ele>
        <time>2026-04-26T16:52:11.285Z</time>
      </trkpt>
      <trkpt lat="49.166541" lon="10.333868">
        <ele>455.109362</ele>
        <time>2026-04-26T16:52:14.286Z</time>
      </trkpt>
      <trkpt lat="49.166513" lon="10.333827">
        <ele>455.025990</ele>
        <time>2026-04-26T16:52:14.985Z</time>
      </trkpt>
      <trkpt lat="49.166390" lon="10.333598">
        <ele>454.609224</ele>
        <time>2026-04-26T16:52:18.444Z</time>
      </trkpt>
      <trkpt lat="49.166155" lon="10.333082">
        <ele>453.724903</ele>
        <time>2026-04-26T16:52:25.906Z</time>
      </trkpt>
      <trkpt lat="49.165996" lon="10.332639">
        <ele>453.014225</ele>
        <time>2026-04-26T16:52:31.654Z</time>
      </trkpt>
      <trkpt lat="49.165888" lon="10.332376">
        <ele>452.573756</ele>
        <time>2026-04-26T16:52:34.973Z</time>
      </trkpt>
      <trkpt lat="49.165684" lon="10.331999">
        <ele>451.788735</ele>
        <time>2026-04-26T16:52:40.158Z</time>
      </trkpt>
      <trkpt lat="49.165441" lon="10.331373">
        <ele>450.620866</ele>
        <time>2026-04-26T16:52:48.084Z</time>
      </trkpt>
      <trkpt lat="49.165376" lon="10.331144">
        <ele>450.220380</ele>
        <time>2026-04-26T16:52:50.819Z</time>
      </trkpt>
      <trkpt lat="49.165340" lon="10.331018">
        <ele>449.999795</ele>
        <time>2026-04-26T16:52:52.313Z</time>
      </trkpt>
      <trkpt lat="49.165388" lon="10.330947">
        <ele>449.835962</ele>
        <time>2026-04-26T16:52:53.453Z</time>
      </trkpt>
      <trkpt lat="49.165398" lon="10.330847">
        <ele>449.673675</ele>
        <time>2026-04-26T16:52:54.570Z</time>
      </trkpt>
      <trkpt lat="49.165352" lon="10.330738">
        <ele>449.465558</ele>
        <time>2026-04-26T16:52:56.034Z</time>
      </trkpt>
      <trkpt lat="49.165268" lon="10.330717">
        <ele>449.256738</ele>
        <time>2026-04-26T16:52:57.480Z</time>
      </trkpt>
      <trkpt lat="49.165209" lon="10.330780">
        <ele>449.080196</ele>
        <time>2026-04-26T16:52:58.723Z</time>
      </trkpt>
      <trkpt lat="49.165189" lon="10.330886">
        <ele>448.903210</ele>
        <time>2026-04-26T16:52:59.954Z</time>
      </trkpt>
      <trkpt lat="49.165075" lon="10.330892">
        <ele>448.623358</ele>
        <time>2026-04-26T16:53:01.954Z</time>
      </trkpt>
      <trkpt lat="49.164558" lon="10.330940">
        <ele>447.866468</ele>
        <time>2026-04-26T16:53:11.709Z</time>
      </trkpt>
      <trkpt lat="49.164133" lon="10.330969">
        <ele>447.462355</ele>
        <time>2026-04-26T16:53:20.697Z</time>
      </trkpt>
      <trkpt lat="49.163656" lon="10.331035">
        <ele>447.007398</ele>
        <time>2026-04-26T16:53:30.628Z</time>
      </trkpt>
      <trkpt lat="49.163225" lon="10.331205">
        <ele>446.584588</ele>
        <time>2026-04-26T16:53:39.871Z</time>
      </trkpt>
      <trkpt lat="49.162894" lon="10.331514">
        <ele>446.326291</ele>
        <time>2026-04-26T16:53:47.935Z</time>
      </trkpt>
      <trkpt lat="49.162552" lon="10.331918">
        <ele>446.085432</ele>
        <time>2026-04-26T16:53:56.863Z</time>
      </trkpt>
      <trkpt lat="49.162168" lon="10.332459">
        <ele>445.794430</ele>
        <time>2026-04-26T16:54:07.765Z</time>
      </trkpt>
      <trkpt lat="49.161226" lon="10.333698">
        <ele>445.240186</ele>
        <time>2026-04-26T16:54:34.434Z</time>
      </trkpt>
      <trkpt lat="49.160876" lon="10.333987">
        <ele>445.099543</ele>
        <time>2026-04-26T16:54:42.918Z</time>
      </trkpt>
      <trkpt lat="49.160264" lon="10.334286">
        <ele>444.872375</ele>
        <time>2026-04-26T16:54:56.507Z</time>
      </trkpt>
      <trkpt lat="49.160062" lon="10.334402">
        <ele>444.801315</ele>
        <time>2026-04-26T16:55:01.097Z</time>
      </trkpt>
      <trkpt lat="49.159828" lon="10.334615">
        <ele>444.715516</ele>
        <time>2026-04-26T16:55:06.844Z</time>
      </trkpt>
      <trkpt lat="49.159717" lon="10.334724">
        <ele>444.673953</ele>
        <time>2026-04-26T16:55:09.640Z</time>
      </trkpt>
      <trkpt lat="49.159508" lon="10.335067">
        <ele>444.577358</ele>
        <time>2026-04-26T16:55:16.132Z</time>
      </trkpt>
      <trkpt lat="49.158865" lon="10.336274">
        <ele>444.258146</ele>
        <time>2026-04-26T16:55:38.284Z</time>
      </trkpt>
      <trkpt lat="49.158534" lon="10.336746">
        <ele>444.126174</ele>
        <time>2026-04-26T16:55:47.988Z</time>
      </trkpt>
      <trkpt lat="49.158291" lon="10.336963">
        <ele>444.044120</ele>
        <time>2026-04-26T16:55:53.960Z</time>
      </trkpt>
      <trkpt lat="49.158010" lon="10.337069">
        <ele>443.959727</ele>
        <time>2026-04-26T16:56:00.113Z</time>
      </trkpt>
      <trkpt lat="49.157979" lon="10.336937">
        <ele>443.932982</ele>
        <time>2026-04-26T16:56:02.006Z</time>
      </trkpt>
      <trkpt lat="49.157911" lon="10.336880">
        <ele>443.910370</ele>
        <time>2026-04-26T16:56:03.605Z</time>
      </trkpt>
      <trkpt lat="49.157870" lon="10.336882">
        <ele>443.898408</ele>
        <time>2026-04-26T16:56:04.447Z</time>
      </trkpt>
      <trkpt lat="49.157796" lon="10.336534">
        <ele>443.828627</ele>
        <time>2026-04-26T16:56:09.340Z</time>
      </trkpt>
      <trkpt lat="49.157768" lon="10.336552">
        <ele>443.819770</ele>
        <time>2026-04-26T16:56:09.966Z</time>
      </trkpt>
      <trkpt lat="49.157643" lon="10.336555">
        <ele>443.783317</ele>
        <time>2026-04-26T16:56:12.506Z</time>
      </trkpt>
      <trkpt lat="49.157351" lon="10.336394">
        <ele>443.769642</ele>
        <time>2026-04-26T16:56:18.813Z</time>
      </trkpt>
      <trkpt lat="49.157171" lon="10.336404">
        <ele>443.784193</ele>
        <time>2026-04-26T16:56:22.431Z</time>
      </trkpt>
      <trkpt lat="49.157019" lon="10.336477">
        <ele>443.797063</ele>
        <time>2026-04-26T16:56:25.671Z</time>
      </trkpt>
      <trkpt lat="49.156814" lon="10.336737">
        <ele>443.818580</ele>
        <time>2026-04-26T16:56:31.224Z</time>
      </trkpt>
      <trkpt lat="49.156650" lon="10.336841">
        <ele>443.832923</ele>
        <time>2026-04-26T16:56:35.085Z</time>
      </trkpt>
      <trkpt lat="49.155980" lon="10.337016">
        <ele>443.887832</ele>
        <time>2026-04-26T16:56:50.028Z</time>
      </trkpt>
      <trkpt lat="49.155416" lon="10.337419">
        <ele>443.718431</ele>
        <time>2026-04-26T16:57:03.632Z</time>
      </trkpt>
      <trkpt lat="49.155224" lon="10.337879">
        <ele>443.588309</ele>
        <time>2026-04-26T16:57:10.852Z</time>
      </trkpt>
      <trkpt lat="49.154870" lon="10.338441">
        <ele>443.402252</ele>
        <time>2026-04-26T16:57:21.006Z</time>
      </trkpt>
      <trkpt lat="49.154831" lon="10.338432">
        <ele>443.387871</ele>
        <time>2026-04-26T16:57:21.772Z</time>
      </trkpt>
      <trkpt lat="49.154786" lon="10.338261">
        <ele>443.343919</ele>
        <time>2026-04-26T16:57:24.164Z</time>
      </trkpt>
      <trkpt lat="49.154641" lon="10.338127">
        <ele>443.282146</ele>
        <time>2026-04-26T16:57:27.483Z</time>
      </trkpt>
      <trkpt lat="49.154616" lon="10.338106">
        <ele>443.271746</ele>
        <time>2026-04-26T16:57:28.019Z</time>
      </trkpt>
      <trkpt lat="49.154514" lon="10.338012">
        <ele>443.242567</ele>
        <time>2026-04-26T16:57:30.333Z</time>
      </trkpt>
      <trkpt lat="49.154435" lon="10.337948">
        <ele>443.242735</ele>
        <time>2026-04-26T16:57:33.315Z</time>
      </trkpt>
      <trkpt lat="49.154315" lon="10.337899">
        <ele>443.242969</ele>
        <time>2026-04-26T16:57:37.422Z</time>
      </trkpt>
      <trkpt lat="49.154203" lon="10.337923">
        <ele>443.243181</ele>
        <time>2026-04-26T16:57:39.684Z</time>
      </trkpt>
      <trkpt lat="49.154080" lon="10.338046">
        <ele>443.243457</ele>
        <time>2026-04-26T16:57:42.646Z</time>
      </trkpt>
      <trkpt lat="49.153983" lon="10.338090">
        <ele>443.243647</ele>
        <time>2026-04-26T16:57:44.700Z</time>
      </trkpt>
      <trkpt lat="49.153878" lon="10.338065">
        <ele>443.243847</ele>
        <time>2026-04-26T16:57:46.846Z</time>
      </trkpt>
      <trkpt lat="49.153820" lon="10.337936">
        <ele>443.244039</ele>
        <time>2026-04-26T16:57:48.977Z</time>
      </trkpt>
      <trkpt lat="49.153601" lon="10.337148">
        <ele>443.245091</ele>
        <time>2026-04-26T16:58:01.586Z</time>
      </trkpt>
      <trkpt lat="49.153385" lon="10.337295">
        <ele>443.245535</ele>
        <time>2026-04-26T16:58:07.090Z</time>
      </trkpt>
      <trkpt lat="49.152618" lon="10.337487">
        <ele>444.119727</ele>
        <time>2026-04-26T16:58:25.459Z</time>
      </trkpt>
      <trkpt lat="49.152304" lon="10.337608">
        <ele>444.593444</ele>
        <time>2026-04-26T16:58:33.205Z</time>
      </trkpt>
      <trkpt lat="49.151823" lon="10.337991">
        <ele>445.386807</ele>
        <time>2026-04-26T16:58:46.085Z</time>
      </trkpt>
      <trkpt lat="49.151582" lon="10.338262">
        <ele>445.824453</ele>
        <time>2026-04-26T16:58:53.167Z</time>
      </trkpt>
      <trkpt lat="49.150482" lon="10.339639">
        <ele>447.405559</ele>
        <time>2026-04-26T16:59:26.085Z</time>
      </trkpt>
      <trkpt lat="49.150040" lon="10.340317">
        <ele>448.179442</ele>
        <time>2026-04-26T16:59:40.728Z</time>
      </trkpt>
      <trkpt lat="49.149808" lon="10.340599">
        <ele>448.622133</ele>
        <time>2026-04-26T16:59:47.776Z</time>
      </trkpt>
      <trkpt lat="49.149622" lon="10.340733">
        <ele>448.929244</ele>
        <time>2026-04-26T16:59:52.702Z</time>
      </trkpt>
      <trkpt lat="49.149231" lon="10.340848">
        <ele>449.523956</ele>
        <time>2026-04-26T17:00:02.296Z</time>
      </trkpt>
      <trkpt lat="49.149143" lon="10.340857">
        <ele>449.655688</ele>
        <time>2026-04-26T17:00:04.413Z</time>
      </trkpt>
      <trkpt lat="49.148887" lon="10.340885">
        <ele>450.039030</ele>
        <time>2026-04-26T17:00:10.516Z</time>
      </trkpt>
      <trkpt lat="49.148498" lon="10.340877">
        <ele>450.562099</ele>
        <time>2026-04-26T17:00:19.595Z</time>
      </trkpt>
      <trkpt lat="49.148305" lon="10.340855">
        <ele>450.620088</ele>
        <time>2026-04-26T17:00:24.050Z</time>
      </trkpt>
      <trkpt lat="49.148231" lon="10.340846">
        <ele>450.642330</ele>
        <time>2026-04-26T17:00:25.738Z</time>
      </trkpt>
      <trkpt lat="49.147926" lon="10.340797">
        <ele>450.734219</ele>
        <time>2026-04-26T17:00:32.661Z</time>
      </trkpt>
      <trkpt lat="49.147610" lon="10.340796">
        <ele>450.828902</ele>
        <time>2026-04-26T17:00:39.717Z</time>
      </trkpt>
      <trkpt lat="49.147098" lon="10.340942">
        <ele>450.984956</ele>
        <time>2026-04-26T17:00:51.035Z</time>
      </trkpt>
      <trkpt lat="49.146834" lon="10.341071">
        <ele>451.068000</ele>
        <time>2026-04-26T17:00:56.912Z</time>
      </trkpt>
      <trkpt lat="49.146524" lon="10.341331">
        <ele>451.171480</ele>
        <time>2026-04-26T17:01:04.618Z</time>
      </trkpt>
      <trkpt lat="49.144935" lon="10.343142">
        <ele>452.791544</ele>
        <time>2026-04-26T17:01:49.217Z</time>
      </trkpt>
      <trkpt lat="49.142662" lon="10.345418">
        <ele>458.718971</ele>
        <time>2026-04-26T17:02:57.697Z</time>
      </trkpt>
      <trkpt lat="49.141444" lon="10.346930">
        <ele>458.312340</ele>
        <time>2026-04-26T17:03:26.038Z</time>
      </trkpt>
      <trkpt lat="49.141107" lon="10.347195">
        <ele>457.930600</ele>
        <time>2026-04-26T17:03:33.499Z</time>
      </trkpt>
      <trkpt lat="49.140712" lon="10.347404">
        <ele>458.286838</ele>
        <time>2026-04-26T17:03:42.968Z</time>
      </trkpt>
      <trkpt lat="49.140239" lon="10.343635">
        <ele>468.166878</ele>
        <time>2026-04-26T17:04:50.163Z</time>
      </trkpt>
      <trkpt lat="49.140198" lon="10.343052">
        <ele>469.793121</ele>
        <time>2026-04-26T17:05:00.375Z</time>
      </trkpt>
      <trkpt lat="49.140266" lon="10.340981">
        <ele>474.439243</ele>
        <time>2026-04-26T17:05:34.572Z</time>
      </trkpt>
      <trkpt lat="49.140223" lon="10.340061">
        <ele>476.180426</ele>
        <time>2026-04-26T17:05:49.328Z</time>
      </trkpt>
      <trkpt lat="49.140067" lon="10.338915">
        <ele>478.156710</ele>
        <time>2026-04-26T17:06:07.897Z</time>
      </trkpt>
      <trkpt lat="49.139890" lon="10.338150">
        <ele>479.368063</ele>
        <time>2026-04-26T17:06:20.795Z</time>
      </trkpt>
      <trkpt lat="49.139533" lon="10.336978">
        <ele>481.298055</ele>
        <time>2026-04-26T17:06:41.289Z</time>
      </trkpt>
      <trkpt lat="49.139352" lon="10.336528">
        <ele>481.959292</ele>
        <time>2026-04-26T17:06:49.624Z</time>
      </trkpt>
      <trkpt lat="49.138301" lon="10.333911">
        <ele>485.288495</ele>
        <time>2026-04-26T17:07:37.542Z</time>
      </trkpt>
      <trkpt lat="49.138079" lon="10.333390">
        <ele>485.713427</ele>
        <time>2026-04-26T17:07:47.049Z</time>
      </trkpt>
      <trkpt lat="49.137727" lon="10.332542">
        <ele>486.399792</ele>
        <time>2026-04-26T17:08:02.092Z</time>
      </trkpt>
      <trkpt lat="49.137229" lon="10.331476">
        <ele>487.586453</ele>
        <time>2026-04-26T17:08:21.251Z</time>
      </trkpt>
      <trkpt lat="49.136639" lon="10.330473">
        <ele>488.908404</ele>
        <time>2026-04-26T17:08:42.104Z</time>
      </trkpt>
      <trkpt lat="49.135900" lon="10.329440">
        <ele>491.655862</ele>
        <time>2026-04-26T17:09:07.544Z</time>
      </trkpt>
      <trkpt lat="49.135606" lon="10.328991">
        <ele>492.990501</ele>
        <time>2026-04-26T17:09:18.398Z</time>
      </trkpt>
      <trkpt lat="49.135357" lon="10.328546">
        <ele>494.220749</ele>
        <time>2026-04-26T17:09:28.103Z</time>
      </trkpt>
      <trkpt lat="49.135154" lon="10.328079">
        <ele>495.043792</ele>
        <time>2026-04-26T17:09:37.136Z</time>
      </trkpt>
      <trkpt lat="49.134937" lon="10.327415">
        <ele>494.787449</ele>
        <time>2026-04-26T17:09:48.598Z</time>
      </trkpt>
      <trkpt lat="49.134803" lon="10.327362">
        <ele>494.714385</ele>
        <time>2026-04-26T17:09:51.756Z</time>
      </trkpt>
      <trkpt lat="49.134439" lon="10.327231">
        <ele>494.516988</ele>
        <time>2026-04-26T17:09:59.577Z</time>
      </trkpt>
      <trkpt lat="49.133918" lon="10.326623">
        <ele>494.170968</ele>
        <time>2026-04-26T17:10:10.960Z</time>
      </trkpt>
      <trkpt lat="49.133767" lon="10.326502">
        <ele>493.968970</ele>
        <time>2026-04-26T17:10:13.800Z</time>
      </trkpt>
      <trkpt lat="49.133607" lon="10.326475">
        <ele>493.734111</ele>
        <time>2026-04-26T17:10:16.585Z</time>
      </trkpt>
      <trkpt lat="49.133112" lon="10.326482">
        <ele>493.011876</ele>
        <time>2026-04-26T17:10:25.248Z</time>
      </trkpt>
      <trkpt lat="49.133024" lon="10.326432">
        <ele>492.874899</ele>
        <time>2026-04-26T17:10:26.863Z</time>
      </trkpt>
      <trkpt lat="49.132952" lon="10.326346">
        <ele>492.741575</ele>
        <time>2026-04-26T17:10:28.463Z</time>
      </trkpt>
      <trkpt lat="49.132902" lon="10.325990">
        <ele>492.393984</ele>
        <time>2026-04-26T17:10:32.805Z</time>
      </trkpt>
      <trkpt lat="49.132848" lon="10.325700">
        <ele>492.106148</ele>
        <time>2026-04-26T17:10:36.763Z</time>
      </trkpt>
      <trkpt lat="49.132754" lon="10.325558">
        <ele>491.913314</ele>
        <time>2026-04-26T17:10:39.626Z</time>
      </trkpt>
      <trkpt lat="49.132366" lon="10.325273">
        <ele>491.974962</ele>
        <time>2026-04-26T17:10:49.737Z</time>
      </trkpt>
      <trkpt lat="49.132059" lon="10.325038">
        <ele>492.944265</ele>
        <time>2026-04-26T17:10:58.472Z</time>
      </trkpt>
      <trkpt lat="49.131850" lon="10.324792">
        <ele>493.688980</ele>
        <time>2026-04-26T17:11:05.137Z</time>
      </trkpt>
      <trkpt lat="49.131747" lon="10.324563">
        <ele>494.202283</ele>
        <time>2026-04-26T17:11:09.703Z</time>
      </trkpt>
      <trkpt lat="49.131507" lon="10.324244">
        <ele>495.100203</ele>
        <time>2026-04-26T17:11:17.928Z</time>
      </trkpt>
      <trkpt lat="49.130655" lon="10.323361">
        <ele>496.810851</ele>
        <time>2026-04-26T17:11:43.563Z</time>
      </trkpt>
      <trkpt lat="49.130116" lon="10.322589">
        <ele>497.126188</ele>
        <time>2026-04-26T17:12:00.108Z</time>
      </trkpt>
      <trkpt lat="49.129746" lon="10.322120">
        <ele>497.331389</ele>
        <time>2026-04-26T17:12:09.292Z</time>
      </trkpt>
      <trkpt lat="49.129502" lon="10.321870">
        <ele>496.901487</ele>
        <time>2026-04-26T17:12:14.600Z</time>
      </trkpt>
      <trkpt lat="49.127722" lon="10.320740">
        <ele>492.851854</ele>
        <time>2026-04-26T17:12:49.371Z</time>
      </trkpt>
      <trkpt lat="49.127426" lon="10.320438">
        <ele>492.225476</ele>
        <time>2026-04-26T17:12:56.071Z</time>
      </trkpt>
      <trkpt lat="49.127131" lon="10.319696">
        <ele>491.225579</ele>
        <time>2026-04-26T17:13:06.728Z</time>
      </trkpt>
      <trkpt lat="49.126632" lon="10.318437">
        <ele>489.373428</ele>
        <time>2026-04-26T17:13:25.750Z</time>
      </trkpt>
      <trkpt lat="49.126254" lon="10.317651">
        <ele>488.017517</ele>
        <time>2026-04-26T17:13:37.271Z</time>
      </trkpt>
      <trkpt lat="49.125824" lon="10.316179">
        <ele>486.104505</ele>
        <time>2026-04-26T17:13:56.048Z</time>
      </trkpt>
      <trkpt lat="49.125440" lon="10.315470">
        <ele>485.431768</ele>
        <time>2026-04-26T17:14:06.967Z</time>
      </trkpt>
      <trkpt lat="49.125117" lon="10.315004">
        <ele>484.935579</ele>
        <time>2026-04-26T17:14:16.178Z</time>
      </trkpt>
      <trkpt lat="49.124563" lon="10.314494">
        <ele>484.641681</ele>
        <time>2026-04-26T17:14:31.030Z</time>
      </trkpt>
      <trkpt lat="49.123785" lon="10.313716">
        <ele>485.413780</ele>
        <time>2026-04-26T17:14:52.764Z</time>
      </trkpt>
      <trkpt lat="49.123513" lon="10.312940">
        <ele>485.892169</ele>
        <time>2026-04-26T17:15:06.072Z</time>
      </trkpt>
      <trkpt lat="49.123454" lon="10.312743">
        <ele>485.984588</ele>
        <time>2026-04-26T17:15:09.333Z</time>
      </trkpt>
      <trkpt lat="49.123287" lon="10.312213">
        <ele>486.163174</ele>
        <time>2026-04-26T17:15:18.017Z</time>
      </trkpt>
      <trkpt lat="49.123266" lon="10.312132">
        <ele>486.189625</ele>
        <time>2026-04-26T17:15:19.251Z</time>
      </trkpt>
      <trkpt lat="49.122827" lon="10.311070">
        <ele>486.570981</ele>
        <time>2026-04-26T17:15:37.346Z</time>
      </trkpt>
      <trkpt lat="49.122623" lon="10.310569">
        <ele>486.750123</ele>
        <time>2026-04-26T17:15:46.250Z</time>
      </trkpt>
      <trkpt lat="49.122264" lon="10.309424">
        <ele>487.670558</ele>
        <time>2026-04-26T17:16:05.611Z</time>
      </trkpt>
      <trkpt lat="49.122010" lon="10.308441">
        <ele>488.483779</ele>
        <time>2026-04-26T17:16:22.039Z</time>
      </trkpt>
      <trkpt lat="49.121615" lon="10.307701">
        <ele>488.706570</ele>
        <time>2026-04-26T17:16:36.669Z</time>
      </trkpt>
      <trkpt lat="49.121532" lon="10.307497">
        <ele>488.592712</ele>
        <time>2026-04-26T17:16:40.225Z</time>
      </trkpt>
      <trkpt lat="49.121413" lon="10.306946">
        <ele>488.317685</ele>
        <time>2026-04-26T17:16:48.496Z</time>
      </trkpt>
      <trkpt lat="49.121292" lon="10.306513">
        <ele>488.094517</ele>
        <time>2026-04-26T17:16:54.813Z</time>
      </trkpt>
      <trkpt lat="49.121151" lon="10.305540">
        <ele>487.622144</ele>
        <time>2026-04-26T17:17:06.401Z</time>
      </trkpt>
      <trkpt lat="49.121264" lon="10.305376">
        <ele>487.194418</ele>
        <time>2026-04-26T17:17:09.003Z</time>
      </trkpt>
      <trkpt lat="49.121503" lon="10.305028">
        <ele>486.116831</ele>
        <time>2026-04-26T17:17:14.392Z</time>
      </trkpt>
      <trkpt lat="49.121545" lon="10.304939">
        <ele>485.882440</ele>
        <time>2026-04-26T17:17:15.556Z</time>
      </trkpt>
      <trkpt lat="49.121569" lon="10.304810">
        <ele>485.595956</ele>
        <time>2026-04-26T17:17:16.976Z</time>
      </trkpt>
      <trkpt lat="49.121534" lon="10.304515">
        <ele>484.955514</ele>
        <time>2026-04-26T17:17:20.122Z</time>
      </trkpt>
      <trkpt lat="49.121254" lon="10.303301">
        <ele>482.205862</ele>
        <time>2026-04-26T17:17:33.568Z</time>
      </trkpt>
      <trkpt lat="49.121175" lon="10.302813">
        <ele>480.930117</ele>
        <time>2026-04-26T17:17:38.860Z</time>
      </trkpt>
      <trkpt lat="49.121101" lon="10.301414">
        <ele>476.916699</ele>
        <time>2026-04-26T17:17:53.586Z</time>
      </trkpt>
      <trkpt lat="49.120993" lon="10.300674">
        <ele>474.748724</ele>
        <time>2026-04-26T17:18:01.157Z</time>
      </trkpt>
      <trkpt lat="49.120856" lon="10.300266">
        <ele>473.169006</ele>
        <time>2026-04-26T17:18:05.616Z</time>
      </trkpt>
      <trkpt lat="49.119969" lon="10.298533">
        <ele>462.970141</ele>
        <time>2026-04-26T17:18:25.960Z</time>
      </trkpt>
      <trkpt lat="49.119718" lon="10.297927">
        <ele>460.012179</ele>
        <time>2026-04-26T17:18:32.603Z</time>
      </trkpt>
      <trkpt lat="49.119442" lon="10.297137">
        <ele>456.886583</ele>
        <time>2026-04-26T17:18:41.134Z</time>
      </trkpt>
      <trkpt lat="49.119353" lon="10.296883">
        <ele>455.880986</ele>
        <time>2026-04-26T17:18:43.959Z</time>
      </trkpt>
      <trkpt lat="49.119316" lon="10.296760">
        <ele>455.408502</ele>
        <time>2026-04-26T17:18:45.300Z</time>
      </trkpt>
      <trkpt lat="49.119267" lon="10.296554">
        <ele>454.643483</ele>
        <time>2026-04-26T17:18:47.512Z</time>
      </trkpt>
      <trkpt lat="49.119241" lon="10.296431">
        <ele>454.192338</ele>
        <time>2026-04-26T17:18:48.816Z</time>
      </trkpt>
      <trkpt lat="49.119213" lon="10.296270">
        <ele>453.610895</ele>
        <time>2026-04-26T17:18:50.534Z</time>
      </trkpt>
      <trkpt lat="49.119204" lon="10.296225">
        <ele>453.446660</ele>
        <time>2026-04-26T17:18:51.023Z</time>
      </trkpt>
      <trkpt lat="49.119074" lon="10.295697">
        <ele>451.497302</ele>
        <time>2026-04-26T17:18:56.922Z</time>
      </trkpt>
      <trkpt lat="49.118854" lon="10.294955">
        <ele>449.589152</ele>
        <time>2026-04-26T17:19:05.539Z</time>
      </trkpt>
      <trkpt lat="49.118826" lon="10.294649">
        <ele>448.865381</ele>
        <time>2026-04-26T17:19:08.843Z</time>
      </trkpt>
      <trkpt lat="49.118844" lon="10.293729">
        <ele>446.709337</ele>
        <time>2026-04-26T17:19:18.357Z</time>
      </trkpt>
      <trkpt lat="49.118815" lon="10.293530">
        <ele>446.231768</ele>
        <time>2026-04-26T17:19:20.436Z</time>
      </trkpt>
      <trkpt lat="49.118785" lon="10.293459">
        <ele>446.033804</ele>
        <time>2026-04-26T17:19:21.312Z</time>
      </trkpt>
      <trkpt lat="49.118705" lon="10.293364">
        <ele>445.671168</ele>
        <time>2026-04-26T17:19:22.892Z</time>
      </trkpt>
      <trkpt lat="49.118507" lon="10.293280">
        <ele>445.065837</ele>
        <time>2026-04-26T17:19:26.173Z</time>
      </trkpt>
      <trkpt lat="49.118395" lon="10.293206">
        <ele>444.975307</ele>
        <time>2026-04-26T17:19:28.144Z</time>
      </trkpt>
      <trkpt lat="49.118229" lon="10.292890">
        <ele>444.778555</ele>
        <time>2026-04-26T17:19:32.535Z</time>
      </trkpt>
      <trkpt lat="49.118082" lon="10.292477">
        <ele>444.550275</ele>
        <time>2026-04-26T17:19:37.903Z</time>
      </trkpt>
      <trkpt lat="49.117975" lon="10.292118">
        <ele>444.358729</ele>
        <time>2026-04-26T17:19:42.896Z</time>
      </trkpt>
      <trkpt lat="49.117684" lon="10.291098">
        <ele>443.818430</ele>
        <time>2026-04-26T17:19:59.002Z</time>
      </trkpt>
      <trkpt lat="49.117638" lon="10.290869">
        <ele>443.985842</ele>
        <time>2026-04-26T17:20:02.744Z</time>
      </trkpt>
      <trkpt lat="49.117617" lon="10.290611">
        <ele>444.425137</ele>
        <time>2026-04-26T17:20:06.875Z</time>
      </trkpt>
      <trkpt lat="49.117613" lon="10.290333">
        <ele>444.894981</ele>
        <time>2026-04-26T17:20:11.344Z</time>
      </trkpt>
      <trkpt lat="49.117667" lon="10.289412">
        <ele>446.457406</ele>
        <time>2026-04-26T17:20:26.355Z</time>
      </trkpt>
      <trkpt lat="49.117655" lon="10.288923">
        <ele>447.284239</ele>
        <time>2026-04-26T17:20:34.167Z</time>
      </trkpt>
      <trkpt lat="49.117621" lon="10.288674">
        <ele>447.714027</ele>
        <time>2026-04-26T17:20:38.163Z</time>
      </trkpt>
      <trkpt lat="49.117506" lon="10.288210">
        <ele>448.389385</ele>
        <time>2026-04-26T17:20:45.777Z</time>
      </trkpt>
      <trkpt lat="49.117427" lon="10.287947">
        <ele>448.323159</ele>
        <time>2026-04-26T17:20:50.113Z</time>
      </trkpt>
      <trkpt lat="49.117311" lon="10.287689">
        <ele>448.251525</ele>
        <time>2026-04-26T17:20:54.677Z</time>
      </trkpt>
      <trkpt lat="49.117154" lon="10.287951">
        <ele>448.170230</ele>
        <time>2026-04-26T17:20:59.891Z</time>
      </trkpt>
      <trkpt lat="49.117021" lon="10.288273">
        <ele>448.083090</ele>
        <time>2026-04-26T17:21:05.193Z</time>
      </trkpt>
      <trkpt lat="49.116542" lon="10.289429">
        <ele>447.735521</ele>
        <time>2026-04-26T17:21:22.210Z</time>
      </trkpt>
      <trkpt lat="49.116361" lon="10.289791">
        <ele>447.270059</ele>
        <time>2026-04-26T17:21:27.670Z</time>
      </trkpt>
      <trkpt lat="49.116053" lon="10.290299">
        <ele>446.562514</ele>
        <time>2026-04-26T17:21:36.096Z</time>
      </trkpt>
      <trkpt lat="49.115760" lon="10.290628">
        <ele>445.994862</ele>
        <time>2026-04-26T17:21:42.988Z</time>
      </trkpt>
      <trkpt lat="49.115591" lon="10.290759">
        <ele>445.699021</ele>
        <time>2026-04-26T17:21:46.638Z</time>
      </trkpt>
      <trkpt lat="49.115211" lon="10.290960">
        <ele>445.071253</ele>
        <time>2026-04-26T17:21:54.630Z</time>
      </trkpt>
      <trkpt lat="49.114021" lon="10.291388">
        <ele>443.617703</ele>
        <time>2026-04-26T17:22:19.491Z</time>
      </trkpt>
      <trkpt lat="49.113802" lon="10.291522">
        <ele>443.342026</ele>
        <time>2026-04-26T17:22:24.184Z</time>
      </trkpt>
      <trkpt lat="49.113568" lon="10.291741">
        <ele>443.021353</ele>
        <time>2026-04-26T17:22:29.538Z</time>
      </trkpt>
      <trkpt lat="49.112897" lon="10.292521">
        <ele>442.002025</ele>
        <time>2026-04-26T17:22:45.681Z</time>
      </trkpt>
      <trkpt lat="49.112770" lon="10.292627">
        <ele>441.826011</ele>
        <time>2026-04-26T17:22:48.444Z</time>
      </trkpt>
      <trkpt lat="49.112522" lon="10.292741">
        <ele>441.511021</ele>
        <time>2026-04-26T17:22:53.456Z</time>
      </trkpt>
      <trkpt lat="49.111964" lon="10.292790">
        <ele>440.831229</ele>
        <time>2026-04-26T17:23:04.667Z</time>
      </trkpt>
      <trkpt lat="49.111765" lon="10.292772">
        <ele>440.681948</ele>
        <time>2026-04-26T17:23:08.801Z</time>
      </trkpt>
      <trkpt lat="49.111315" lon="10.292658">
        <ele>440.678095</ele>
        <time>2026-04-26T17:23:18.414Z</time>
      </trkpt>
      <trkpt lat="49.110947" lon="10.292385">
        <ele>440.674639</ele>
        <time>2026-04-26T17:23:27.286Z</time>
      </trkpt>
      <trkpt lat="49.110821" lon="10.292307">
        <ele>440.673490</ele>
        <time>2026-04-26T17:23:30.350Z</time>
      </trkpt>
      <trkpt lat="49.110414" lon="10.292233">
        <ele>440.670028</ele>
        <time>2026-04-26T17:23:39.653Z</time>
      </trkpt>
      <trkpt lat="49.109917" lon="10.291929">
        <ele>440.816037</ele>
        <time>2026-04-26T17:23:51.884Z</time>
      </trkpt>
      <trkpt lat="49.109702" lon="10.291873">
        <ele>440.960159</ele>
        <time>2026-04-26T17:23:56.893Z</time>
      </trkpt>
      <trkpt lat="49.109568" lon="10.291937">
        <ele>441.052932</ele>
        <time>2026-04-26T17:24:00.106Z</time>
      </trkpt>
      <trkpt lat="49.108922" lon="10.292610">
        <ele>441.569625</ele>
        <time>2026-04-26T17:24:18.082Z</time>
      </trkpt>
      <trkpt lat="49.108844" lon="10.292664">
        <ele>441.626213</ele>
        <time>2026-04-26T17:24:20.050Z</time>
      </trkpt>
      <trkpt lat="49.108168" lon="10.292822">
        <ele>441.932697</ele>
        <time>2026-04-26T17:24:35.633Z</time>
      </trkpt>
      <trkpt lat="49.107267" lon="10.292916">
        <ele>442.138870</ele>
        <time>2026-04-26T17:24:55.979Z</time>
      </trkpt>
      <trkpt lat="49.106935" lon="10.292987">
        <ele>442.215403</ele>
        <time>2026-04-26T17:25:03.317Z</time>
      </trkpt>
      <trkpt lat="49.106355" lon="10.293172">
        <ele>442.229121</ele>
        <time>2026-04-26T17:25:16.062Z</time>
      </trkpt>
      <trkpt lat="49.106093" lon="10.293172">
        <ele>442.202494</ele>
        <time>2026-04-26T17:25:21.608Z</time>
      </trkpt>
      <trkpt lat="49.105868" lon="10.293100">
        <ele>442.179132</ele>
        <time>2026-04-26T17:25:26.476Z</time>
      </trkpt>
      <trkpt lat="49.104889" lon="10.292566">
        <ele>442.098994</ele>
        <time>2026-04-26T17:25:49.244Z</time>
      </trkpt>
      <trkpt lat="49.104757" lon="10.292442">
        <ele>442.122304</ele>
        <time>2026-04-26T17:25:52.739Z</time>
      </trkpt>
      <trkpt lat="49.104330" lon="10.292862">
        <ele>442.198701</ele>
        <time>2026-04-26T17:26:03.810Z</time>
      </trkpt>
      <trkpt lat="49.103285" lon="10.293800">
        <ele>442.323045</ele>
        <time>2026-04-26T17:26:29.679Z</time>
      </trkpt>
      <trkpt lat="49.102605" lon="10.294315">
        <ele>442.189259</ele>
        <time>2026-04-26T17:26:45.364Z</time>
      </trkpt>
      <trkpt lat="49.102225" lon="10.294480">
        <ele>442.119624</ele>
        <time>2026-04-26T17:26:53.465Z</time>
      </trkpt>
      <trkpt lat="49.101620" lon="10.294680">
        <ele>442.065568</ele>
        <time>2026-04-26T17:27:06.120Z</time>
      </trkpt>
      <trkpt lat="49.101065" lon="10.294780">
        <ele>442.169605</ele>
        <time>2026-04-26T17:27:18.503Z</time>
      </trkpt>
      <trkpt lat="49.100691" lon="10.294802">
        <ele>442.239281</ele>
        <time>2026-04-26T17:27:26.870Z</time>
      </trkpt>
      <trkpt lat="49.100222" lon="10.294836">
        <ele>442.326689</ele>
        <time>2026-04-26T17:27:37.339Z</time>
      </trkpt>
      <trkpt lat="49.099871" lon="10.294923">
        <ele>442.426171</ele>
        <time>2026-04-26T17:27:45.343Z</time>
      </trkpt>
      <trkpt lat="49.099327" lon="10.295243">
        <ele>442.708702</ele>
        <time>2026-04-26T17:27:58.758Z</time>
      </trkpt>
      <trkpt lat="49.098670" lon="10.295726">
        <ele>443.062088</ele>
        <time>2026-04-26T17:28:15.407Z</time>
      </trkpt>
      <trkpt lat="49.098588" lon="10.296020">
        <ele>443.163496</ele>
        <time>2026-04-26T17:28:20.163Z</time>
      </trkpt>
      <trkpt lat="49.098482" lon="10.296664">
        <ele>443.074982</ele>
        <time>2026-04-26T17:28:29.904Z</time>
      </trkpt>
      <trkpt lat="49.098354" lon="10.297075">
        <ele>442.887905</ele>
        <time>2026-04-26T17:28:36.387Z</time>
      </trkpt>
      <trkpt lat="49.097888" lon="10.297868">
        <ele>442.449917</ele>
        <time>2026-04-26T17:28:50.753Z</time>
      </trkpt>
      <trkpt lat="49.097410" lon="10.298597">
        <ele>442.020881</ele>
        <time>2026-04-26T17:29:03.903Z</time>
      </trkpt>
      <trkpt lat="49.096979" lon="10.299143">
        <ele>441.649717</ele>
        <time>2026-04-26T17:29:15.093Z</time>
      </trkpt>
      <trkpt lat="49.096679" lon="10.299381">
        <ele>441.425643</ele>
        <time>2026-04-26T17:29:22.071Z</time>
      </trkpt>
      <trkpt lat="49.096350" lon="10.299584">
        <ele>441.190450</ele>
        <time>2026-04-26T17:29:29.616Z</time>
      </trkpt>
      <trkpt lat="49.095403" lon="10.300688">
        <ele>440.990366</ele>
        <time>2026-04-26T17:29:55.740Z</time>
      </trkpt>
      <trkpt lat="49.095066" lon="10.301004">
        <ele>441.024451</ele>
        <time>2026-04-26T17:30:04.563Z</time>
      </trkpt>
      <trkpt lat="49.094603" lon="10.301371">
        <ele>441.069412</ele>
        <time>2026-04-26T17:30:16.290Z</time>
      </trkpt>
      <trkpt lat="49.093891" lon="10.301806">
        <ele>441.089568</ele>
        <time>2026-04-26T17:30:33.301Z</time>
      </trkpt>
      <trkpt lat="49.093615" lon="10.302129">
        <ele>441.095783</ele>
        <time>2026-04-26T17:30:40.996Z</time>
      </trkpt>
      <trkpt lat="49.093382" lon="10.302616">
        <ele>441.102843</ele>
        <time>2026-04-26T17:30:49.648Z</time>
      </trkpt>
      <trkpt lat="49.093162" lon="10.303158">
        <ele>441.098253</ele>
        <time>2026-04-26T17:30:58.612Z</time>
      </trkpt>
      <trkpt lat="49.092911" lon="10.303611">
        <ele>440.967773</ele>
        <time>2026-04-26T17:31:06.821Z</time>
      </trkpt>
      <trkpt lat="49.092368" lon="10.304465">
        <ele>440.706036</ele>
        <time>2026-04-26T17:31:23.288Z</time>
      </trkpt>
      <trkpt lat="49.092072" lon="10.304958">
        <ele>440.558963</ele>
        <time>2026-04-26T17:31:32.675Z</time>
      </trkpt>
      <trkpt lat="49.091899" lon="10.305186">
        <ele>440.513898</ele>
        <time>2026-04-26T17:31:37.649Z</time>
      </trkpt>
      <trkpt lat="49.091652" lon="10.305331">
        <ele>440.544728</ele>
        <time>2026-04-26T17:31:43.455Z</time>
      </trkpt>
      <trkpt lat="49.091110" lon="10.305483">
        <ele>440.608929</ele>
        <time>2026-04-26T17:31:55.716Z</time>
      </trkpt>
      <trkpt lat="49.090909" lon="10.305572">
        <ele>440.633311</ele>
        <time>2026-04-26T17:32:00.425Z</time>
      </trkpt>
      <trkpt lat="49.090623" lon="10.305811">
        <ele>440.671294</ele>
        <time>2026-04-26T17:32:07.756Z</time>
      </trkpt>
      <trkpt lat="49.090268" lon="10.306262">
        <ele>440.735030</ele>
        <time>2026-04-26T17:32:18.044Z</time>
      </trkpt>
      <trkpt lat="49.089660" lon="10.307541">
        <ele>440.977791</ele>
        <time>2026-04-26T17:32:40.587Z</time>
      </trkpt>
      <trkpt lat="49.089483" lon="10.307806">
        <ele>441.035933</ele>
        <time>2026-04-26T17:32:45.970Z</time>
      </trkpt>
      <trkpt lat="49.087790" lon="10.309821">
        <ele>442.819541</ele>
        <time>2026-04-26T17:33:35.618Z</time>
      </trkpt>
      <trkpt lat="49.086902" lon="10.310459">
        <ele>444.557453</ele>
        <time>2026-04-26T17:33:59.023Z</time>
      </trkpt>
      <trkpt lat="49.086504" lon="10.310838">
        <ele>445.422642</ele>
        <time>2026-04-26T17:34:10.453Z</time>
      </trkpt>
      <trkpt lat="49.086326" lon="10.311143">
        <ele>445.916151</ele>
        <time>2026-04-26T17:34:16.972Z</time>
      </trkpt>
      <trkpt lat="49.086222" lon="10.311260">
        <ele>446.154428</ele>
        <time>2026-04-26T17:34:20.069Z</time>
      </trkpt>
      <trkpt lat="49.085842" lon="10.311502">
        <ele>446.299609</ele>
        <time>2026-04-26T17:34:29.804Z</time>
      </trkpt>
      <trkpt lat="49.085689" lon="10.311682">
        <ele>446.340792</ele>
        <time>2026-04-26T17:34:34.277Z</time>
      </trkpt>
      <trkpt lat="49.085597" lon="10.311836">
        <ele>446.369900</ele>
        <time>2026-04-26T17:34:37.422Z</time>
      </trkpt>
      <trkpt lat="49.085267" lon="10.312555">
        <ele>446.492503</ele>
        <time>2026-04-26T17:34:50.403Z</time>
      </trkpt>
      <trkpt lat="49.085074" lon="10.312852">
        <ele>446.550929</ele>
        <time>2026-04-26T17:34:56.138Z</time>
      </trkpt>
      <trkpt lat="49.084345" lon="10.313753">
        <ele>445.247073</ele>
        <time>2026-04-26T17:35:13.181Z</time>
      </trkpt>
      <trkpt lat="49.083356" lon="10.314660">
        <ele>443.041581</ele>
        <time>2026-04-26T17:35:34.249Z</time>
      </trkpt>
      <trkpt lat="49.082414" lon="10.315336">
        <ele>441.989676</ele>
        <time>2026-04-26T17:35:54.563Z</time>
      </trkpt>
      <trkpt lat="49.081483" lon="10.316088">
        <ele>441.357399</ele>
        <time>2026-04-26T17:36:17.036Z</time>
      </trkpt>
      <trkpt lat="49.081167" lon="10.316382">
        <ele>441.446912</ele>
        <time>2026-04-26T17:36:25.152Z</time>
      </trkpt>
      <trkpt lat="49.080715" lon="10.316928">
        <ele>441.586332</ele>
        <time>2026-04-26T17:36:38.007Z</time>
      </trkpt>
      <trkpt lat="49.080193" lon="10.317606">
        <ele>441.839361</ele>
        <time>2026-04-26T17:36:53.937Z</time>
      </trkpt>
      <trkpt lat="49.079985" lon="10.317884">
        <ele>442.041612</ele>
        <time>2026-04-26T17:37:00.297Z</time>
      </trkpt>
      <trkpt lat="49.079778" lon="10.318224">
        <ele>442.264059</ele>
        <time>2026-04-26T17:37:07.204Z</time>
      </trkpt>
      <trkpt lat="49.079555" lon="10.319165">
        <ele>442.743607</ele>
        <time>2026-04-26T17:37:22.387Z</time>
      </trkpt>
      <trkpt lat="49.079364" lon="10.319617">
        <ele>443.001376</ele>
        <time>2026-04-26T17:37:30.547Z</time>
      </trkpt>
      <trkpt lat="49.079165" lon="10.319868">
        <ele>443.004293</ele>
        <time>2026-04-26T17:37:36.401Z</time>
      </trkpt>
      <trkpt lat="49.078578" lon="10.320396">
        <ele>442.942047</ele>
        <time>2026-04-26T17:37:50.999Z</time>
      </trkpt>
      <trkpt lat="49.078357" lon="10.320547">
        <ele>442.919927</ele>
        <time>2026-04-26T17:37:56.138Z</time>
      </trkpt>
      <trkpt lat="49.078167" lon="10.320668">
        <ele>442.901118</ele>
        <time>2026-04-26T17:38:00.524Z</time>
      </trkpt>
      <trkpt lat="49.078079" lon="10.320899">
        <ele>442.885126</ele>
        <time>2026-04-26T17:38:04.121Z</time>
      </trkpt>
      <trkpt lat="49.077824" lon="10.321309">
        <ele>442.886299</ele>
        <time>2026-04-26T17:38:11.845Z</time>
      </trkpt>
      <trkpt lat="49.077678" lon="10.321614">
        <ele>442.948647</ele>
        <time>2026-04-26T17:38:17.005Z</time>
      </trkpt>
      <trkpt lat="49.077611" lon="10.321675">
        <ele>442.968303</ele>
        <time>2026-04-26T17:38:18.624Z</time>
      </trkpt>
      <trkpt lat="49.077323" lon="10.321646">
        <ele>443.041026</ele>
        <time>2026-04-26T17:38:24.610Z</time>
      </trkpt>
      <trkpt lat="49.077218" lon="10.321535">
        <ele>443.073207</ele>
        <time>2026-04-26T17:38:27.372Z</time>
      </trkpt>
      <trkpt lat="49.077159" lon="10.321362">
        <ele>443.105398</ele>
        <time>2026-04-26T17:38:30.165Z</time>
      </trkpt>
      <trkpt lat="49.077017" lon="10.321245">
        <ele>443.146055</ele>
        <time>2026-04-26T17:38:33.709Z</time>
      </trkpt>
      <trkpt lat="49.076511" lon="10.321323">
        <ele>443.274198</ele>
        <time>2026-04-26T17:38:44.960Z</time>
      </trkpt>
      <trkpt lat="49.076364" lon="10.321268">
        <ele>443.312333</ele>
        <time>2026-04-26T17:38:48.293Z</time>
      </trkpt>
      <trkpt lat="49.075920" lon="10.321309">
        <ele>443.667365</ele>
        <time>2026-04-26T17:38:58.239Z</time>
      </trkpt>
      <trkpt lat="49.075151" lon="10.321295">
        <ele>444.286772</ele>
        <time>2026-04-26T17:39:15.934Z</time>
      </trkpt>
      <trkpt lat="49.074942" lon="10.321247">
        <ele>444.456998</ele>
        <time>2026-04-26T17:39:20.900Z</time>
      </trkpt>
      <trkpt lat="49.074740" lon="10.321151">
        <ele>444.627394</ele>
        <time>2026-04-26T17:39:25.904Z</time>
      </trkpt>
      <trkpt lat="49.074545" lon="10.321023">
        <ele>444.771477</ele>
        <time>2026-04-26T17:39:30.882Z</time>
      </trkpt>
      <trkpt lat="49.074201" lon="10.320695">
        <ele>444.853576</ele>
        <time>2026-04-26T17:39:40.310Z</time>
      </trkpt>
      <trkpt lat="49.073953" lon="10.320414">
        <ele>444.916093</ele>
        <time>2026-04-26T17:39:47.444Z</time>
      </trkpt>
      <trkpt lat="49.073599" lon="10.320009">
        <ele>445.005640</ele>
        <time>2026-04-26T17:39:56.986Z</time>
      </trkpt>
      <trkpt lat="49.073522" lon="10.319928">
        <ele>445.024569</ele>
        <time>2026-04-26T17:39:58.901Z</time>
      </trkpt>
      <trkpt lat="49.073405" lon="10.319831">
        <ele>445.051519</ele>
        <time>2026-04-26T17:40:01.500Z</time>
      </trkpt>
      <trkpt lat="49.073073" lon="10.319607">
        <ele>445.124994</ele>
        <time>2026-04-26T17:40:08.613Z</time>
      </trkpt>
      <trkpt lat="49.073004" lon="10.319569">
        <ele>445.133907</ele>
        <time>2026-04-26T17:40:10.078Z</time>
      </trkpt>
      <trkpt lat="49.072756" lon="10.319440">
        <ele>445.163294</ele>
        <time>2026-04-26T17:40:15.467Z</time>
      </trkpt>
      <trkpt lat="49.072608" lon="10.319354">
        <ele>445.181055</ele>
        <time>2026-04-26T17:40:18.837Z</time>
      </trkpt>
      <trkpt lat="49.072562" lon="10.319301">
        <ele>445.187519</ele>
        <time>2026-04-26T17:40:20.079Z</time>
      </trkpt>
      <trkpt lat="49.072031" lon="10.318799">
        <ele>445.257573</ele>
        <time>2026-04-26T17:40:34.000Z</time>
      </trkpt>
      <trkpt lat="49.071923" lon="10.318697">
        <ele>445.271817</ele>
        <time>2026-04-26T17:40:36.851Z</time>
      </trkpt>
      <trkpt lat="49.071808" lon="10.318627">
        <ele>445.285703</ele>
        <time>2026-04-26T17:40:39.640Z</time>
      </trkpt>
      <trkpt lat="49.071678" lon="10.318555">
        <ele>445.301214</ele>
        <time>2026-04-26T17:40:42.823Z</time>
      </trkpt>
      <trkpt lat="49.071418" lon="10.318563">
        <ele>445.335054</ele>
        <time>2026-04-26T17:40:48.869Z</time>
      </trkpt>
      <trkpt lat="49.071262" lon="10.318590">
        <ele>445.391593</ele>
        <time>2026-04-26T17:40:52.437Z</time>
      </trkpt>
      <trkpt lat="49.071101" lon="10.318614">
        <ele>445.449849</ele>
        <time>2026-04-26T17:40:56.043Z</time>
      </trkpt>
      <trkpt lat="49.070694" lon="10.318670">
        <ele>445.597014</ele>
        <time>2026-04-26T17:41:04.906Z</time>
      </trkpt>
      <trkpt lat="49.070633" lon="10.318678">
        <ele>445.619062</ele>
        <time>2026-04-26T17:41:06.213Z</time>
      </trkpt>
      <trkpt lat="49.070494" lon="10.318680">
        <ele>445.669122</ele>
        <time>2026-04-26T17:41:15.860Z</time>
      </trkpt>
      <trkpt lat="49.070354" lon="10.318682">
        <ele>445.719542</ele>
        <time>2026-04-26T17:41:25.590Z</time>
      </trkpt>
      <trkpt lat="49.070115" lon="10.318725">
        <ele>445.806207</ele>
        <time>2026-04-26T17:41:30.981Z</time>
      </trkpt>
      <trkpt lat="49.069873" lon="10.318797">
        <ele>445.894997</ele>
        <time>2026-04-26T17:41:36.652Z</time>
      </trkpt>
      <trkpt lat="49.069695" lon="10.318871">
        <ele>445.961435</ele>
        <time>2026-04-26T17:41:40.906Z</time>
      </trkpt>
      <trkpt lat="49.069458" lon="10.319004">
        <ele>446.390559</ele>
        <time>2026-04-26T17:41:46.815Z</time>
      </trkpt>
      <trkpt lat="49.069240" lon="10.319127">
        <ele>446.844923</ele>
        <time>2026-04-26T17:41:52.245Z</time>
      </trkpt>
      <trkpt lat="49.069157" lon="10.319123">
        <ele>447.007264</ele>
        <time>2026-04-26T17:41:54.221Z</time>
      </trkpt>
      <trkpt lat="49.069132" lon="10.319273">
        <ele>447.205501</ele>
        <time>2026-04-26T17:41:56.601Z</time>
      </trkpt>
      <trkpt lat="49.068758" lon="10.319121">
        <ele>447.962127</ele>
        <time>2026-04-26T17:42:05.823Z</time>
      </trkpt>
      <trkpt lat="49.068527" lon="10.319036">
        <ele>448.426657</ele>
        <time>2026-04-26T17:42:11.599Z</time>
      </trkpt>
      <trkpt lat="49.068314" lon="10.318941">
        <ele>448.860475</ele>
        <time>2026-04-26T17:42:17.144Z</time>
      </trkpt>
      <trkpt lat="49.068028" lon="10.318811">
        <ele>449.443857</ele>
        <time>2026-04-26T17:42:24.409Z</time>
      </trkpt>
      <trkpt lat="49.067938" lon="10.318772">
        <ele>449.656653</ele>
        <time>2026-04-26T17:42:26.653Z</time>
      </trkpt>
      <trkpt lat="49.067593" lon="10.318530">
        <ele>450.563927</ele>
        <time>2026-04-26T17:42:36.227Z</time>
      </trkpt>
      <trkpt lat="49.067298" lon="10.318674">
        <ele>451.304009</ele>
        <time>2026-04-26T17:42:45.196Z</time>
      </trkpt>
      <trkpt lat="49.067095" lon="10.319174">
        <ele>452.224897</ele>
        <time>2026-04-26T17:42:56.205Z</time>
      </trkpt>
      <trkpt lat="49.066867" lon="10.318965">
        <ele>452.860413</ele>
        <time>2026-04-26T17:43:03.758Z</time>
      </trkpt>
      <trkpt lat="49.066799" lon="10.318899">
        <ele>453.052972</ele>
        <time>2026-04-26T17:43:06.063Z</time>
      </trkpt>
      <trkpt lat="49.066592" lon="10.319542">
        <ele>453.406248</ele>
        <time>2026-04-26T17:43:17.113Z</time>
      </trkpt>
      <trkpt lat="49.066485" lon="10.319951">
        <ele>452.717681</ele>
        <time>2026-04-26T17:43:23.394Z</time>
      </trkpt>
      <trkpt lat="49.066139" lon="10.319650">
        <ele>451.767297</ele>
        <time>2026-04-26T17:43:33.160Z</time>
      </trkpt>
      <trkpt lat="49.065985" lon="10.320075">
        <ele>451.007948</ele>
        <time>2026-04-26T17:43:38.209Z</time>
      </trkpt>
      <trkpt lat="49.065862" lon="10.320548">
        <ele>450.212282</ele>
        <time>2026-04-26T17:43:43.369Z</time>
      </trkpt>
      <trkpt lat="49.065843" lon="10.320655">
        <ele>450.038950</ele>
        <time>2026-04-26T17:43:44.484Z</time>
      </trkpt>
      <trkpt lat="49.065757" lon="10.321118">
        <ele>449.117502</ele>
        <time>2026-04-26T17:43:49.273Z</time>
      </trkpt>
      <trkpt lat="49.065701" lon="10.321722">
        <ele>447.401348</ele>
        <time>2026-04-26T17:43:55.191Z</time>
      </trkpt>
      <trkpt lat="49.065640" lon="10.322259">
        <ele>445.868074</ele>
        <time>2026-04-26T17:44:00.516Z</time>
      </trkpt>
      <trkpt lat="49.065606" lon="10.322756">
        <ele>444.462266</ele>
        <time>2026-04-26T17:44:05.594Z</time>
      </trkpt>
      <trkpt lat="49.065618" lon="10.323059">
        <ele>443.608282</ele>
        <time>2026-04-26T17:44:08.754Z</time>
      </trkpt>
      <trkpt lat="49.065498" lon="10.323363">
        <ele>442.609818</ele>
        <time>2026-04-26T17:44:12.482Z</time>
      </trkpt>
      <trkpt lat="49.065365" lon="10.323805">
        <ele>441.618818</ele>
        <time>2026-04-26T17:44:17.727Z</time>
      </trkpt>
      <trkpt lat="49.065695" lon="10.324188">
        <ele>441.098009</ele>
        <time>2026-04-26T17:44:24.879Z</time>
      </trkpt>
      <trkpt lat="49.065716" lon="10.324210">
        <ele>441.066011</ele>
        <time>2026-04-26T17:44:25.322Z</time>
      </trkpt>
      <trkpt lat="49.065679" lon="10.324277">
        <ele>440.993888</ele>
        <time>2026-04-26T17:44:26.392Z</time>
      </trkpt>
      <trkpt lat="49.065669" lon="10.324294">
        <ele>440.975083</ele>
        <time>2026-04-26T17:44:26.667Z</time>
      </trkpt>
      <trkpt lat="49.065418" lon="10.324696">
        <ele>440.518017</ele>
        <time>2026-04-26T17:44:33.768Z</time>
      </trkpt>
      <trkpt lat="49.065222" lon="10.324913">
        <ele>440.213830</ele>
        <time>2026-04-26T17:44:38.873Z</time>
      </trkpt>
      <trkpt lat="49.065261" lon="10.324990">
        <ele>440.133723</ele>
        <time>2026-04-26T17:44:40.185Z</time>
      </trkpt>
      <trkpt lat="49.065280" lon="10.325020">
        <ele>440.099380</ele>
        <time>2026-04-26T17:44:40.752Z</time>
      </trkpt>
      <trkpt lat="49.065234" lon="10.325229">
        <ele>439.917906</ele>
        <time>2026-04-26T17:44:43.720Z</time>
      </trkpt>
      <trkpt lat="49.065257" lon="10.325315">
        <ele>439.841449</ele>
        <time>2026-04-26T17:44:44.963Z</time>
      </trkpt>
      <trkpt lat="49.065191" lon="10.325376">
        <ele>439.744519</ele>
        <time>2026-04-26T17:44:46.547Z</time>
      </trkpt>
      <trkpt lat="49.065145" lon="10.325430">
        <ele>439.671615</ele>
        <time>2026-04-26T17:44:47.741Z</time>
      </trkpt>
      <trkpt lat="49.065091" lon="10.325358">
        <ele>439.581537</ele>
        <time>2026-04-26T17:44:49.207Z</time>
      </trkpt>
      <trkpt lat="49.065024" lon="10.325337">
        <ele>439.525841</ele>
        <time>2026-04-26T17:44:50.669Z</time>
      </trkpt>
      <trkpt lat="49.064972" lon="10.325359">
        <ele>439.562002</ele>
        <time>2026-04-26T17:44:51.847Z</time>
      </trkpt>
      <trkpt lat="49.064824" lon="10.325520">
        <ele>439.683796</ele>
        <time>2026-04-26T17:44:55.836Z</time>
      </trkpt>
      <trkpt lat="49.064623" lon="10.325774">
        <ele>439.858671</ele>
        <time>2026-04-26T17:45:01.711Z</time>
      </trkpt>
      <trkpt lat="49.064605" lon="10.325843">
        <ele>439.891280</ele>
        <time>2026-04-26T17:45:02.792Z</time>
      </trkpt>
      <trkpt lat="49.063967" lon="10.326681">
        <ele>440.455356</ele>
        <time>2026-04-26T17:45:21.844Z</time>
      </trkpt>
      <trkpt lat="49.063789" lon="10.326856">
        <ele>440.597246</ele>
        <time>2026-04-26T17:45:26.492Z</time>
      </trkpt>
      <trkpt lat="49.063648" lon="10.326981">
        <ele>440.706519</ele>
        <time>2026-04-26T17:45:30.014Z</time>
      </trkpt>
      <trkpt lat="49.063227" lon="10.327285">
        <ele>440.764994</ele>
        <time>2026-04-26T17:45:39.943Z</time>
      </trkpt>
      <trkpt lat="49.062867" lon="10.327678">
        <ele>440.809129</ele>
        <time>2026-04-26T17:45:49.346Z</time>
      </trkpt>
      <trkpt lat="49.062533" lon="10.328135">
        <ele>440.853858</ele>
        <time>2026-04-26T17:45:58.763Z</time>
      </trkpt>
      <trkpt lat="49.062169" lon="10.328528">
        <ele>440.898318</ele>
        <time>2026-04-26T17:46:08.112Z</time>
      </trkpt>
      <trkpt lat="49.062135" lon="10.328517">
        <ele>440.899688</ele>
        <time>2026-04-26T17:46:08.846Z</time>
      </trkpt>
      <trkpt lat="49.061975" lon="10.328680">
        <ele>440.896254</ele>
        <time>2026-04-26T17:46:12.962Z</time>
      </trkpt>
      <trkpt lat="49.061214" lon="10.329403">
        <ele>440.880253</ele>
        <time>2026-04-26T17:46:31.934Z</time>
      </trkpt>
      <trkpt lat="49.060794" lon="10.329858">
        <ele>440.871059</ele>
        <time>2026-04-26T17:46:42.638Z</time>
      </trkpt>
      <trkpt lat="49.060507" lon="10.330188">
        <ele>440.864110</ele>
        <time>2026-04-26T17:46:50.209Z</time>
      </trkpt>
      <trkpt lat="49.060231" lon="10.330504">
        <ele>440.856939</ele>
        <time>2026-04-26T17:46:57.564Z</time>
      </trkpt>
      <trkpt lat="49.059975" lon="10.330797">
        <ele>440.850289</ele>
        <time>2026-04-26T17:47:04.444Z</time>
      </trkpt>
      <trkpt lat="49.059143" lon="10.331794">
        <ele>440.747342</ele>
        <time>2026-04-26T17:47:26.742Z</time>
      </trkpt>
      <trkpt lat="49.058270" lon="10.333131">
        <ele>439.782355</ele>
        <time>2026-04-26T17:47:50.852Z</time>
      </trkpt>
      <trkpt lat="49.057453" lon="10.334120">
        <ele>438.979958</ele>
        <time>2026-04-26T17:48:11.320Z</time>
      </trkpt>
      <trkpt lat="49.057375" lon="10.334258">
        <ele>438.889067</ele>
        <time>2026-04-26T17:48:13.703Z</time>
      </trkpt>
      <trkpt lat="49.056819" lon="10.334841">
        <ele>438.375635</ele>
        <time>2026-04-26T17:48:26.960Z</time>
      </trkpt>
      <trkpt lat="49.055946" lon="10.335605">
        <ele>438.155547</ele>
        <time>2026-04-26T17:48:46.875Z</time>
      </trkpt>
      <trkpt lat="49.054956" lon="10.336290">
        <ele>438.334971</ele>
        <time>2026-04-26T17:49:10.981Z</time>
      </trkpt>
      <trkpt lat="49.054556" lon="10.336525">
        <ele>438.407078</ele>
        <time>2026-04-26T17:49:20.482Z</time>
      </trkpt>
      <trkpt lat="49.054418" lon="10.336640">
        <ele>438.433729</ele>
        <time>2026-04-26T17:49:23.879Z</time>
      </trkpt>
      <trkpt lat="49.054352" lon="10.336788">
        <ele>438.453613</ele>
        <time>2026-04-26T17:49:26.376Z</time>
      </trkpt>
      <trkpt lat="49.054273" lon="10.336844">
        <ele>438.468378</ele>
        <time>2026-04-26T17:49:28.196Z</time>
      </trkpt>
      <trkpt lat="49.054106" lon="10.336797">
        <ele>438.497160</ele>
        <time>2026-04-26T17:49:31.766Z</time>
      </trkpt>
      <trkpt lat="49.054058" lon="10.336811">
        <ele>438.505443</ele>
        <time>2026-04-26T17:49:32.808Z</time>
      </trkpt>
      <trkpt lat="49.053909" lon="10.336896">
        <ele>438.532405</ele>
        <time>2026-04-26T17:49:36.179Z</time>
      </trkpt>
      <trkpt lat="49.053389" lon="10.337225">
        <ele>438.627818</ele>
        <time>2026-04-26T17:49:47.744Z</time>
      </trkpt>
      <trkpt lat="49.053212" lon="10.337477">
        <ele>438.713869</ele>
        <time>2026-04-26T17:49:52.752Z</time>
      </trkpt>
      <trkpt lat="49.052946" lon="10.337700">
        <ele>439.027247</ele>
        <time>2026-04-26T17:49:59.272Z</time>
      </trkpt>
      <trkpt lat="49.052532" lon="10.338330">
        <ele>439.630963</ele>
        <time>2026-04-26T17:50:12.590Z</time>
      </trkpt>
      <trkpt lat="49.052248" lon="10.338914">
        <ele>440.123063</ele>
        <time>2026-04-26T17:50:23.676Z</time>
      </trkpt>
      <trkpt lat="49.051963" lon="10.339751">
        <ele>440.562185</ele>
        <time>2026-04-26T17:50:37.767Z</time>
      </trkpt>
      <trkpt lat="49.051608" lon="10.341122">
        <ele>440.746088</ele>
        <time>2026-04-26T17:50:58.573Z</time>
      </trkpt>
      <trkpt lat="49.051240" lon="10.342477">
        <ele>440.631782</ele>
        <time>2026-04-26T17:51:17.831Z</time>
      </trkpt>
      <trkpt lat="49.050984" lon="10.343301">
        <ele>440.259055</ele>
        <time>2026-04-26T17:51:29.884Z</time>
      </trkpt>
      <trkpt lat="49.050798" lon="10.343798">
        <ele>440.025124</ele>
        <time>2026-04-26T17:51:37.364Z</time>
      </trkpt>
      <trkpt lat="49.050429" lon="10.344667">
        <ele>439.586231</ele>
        <time>2026-04-26T17:51:50.739Z</time>
      </trkpt>
      <trkpt lat="49.050002" lon="10.345557">
        <ele>439.083442</ele>
        <time>2026-04-26T17:52:04.983Z</time>
      </trkpt>
      <trkpt lat="49.049744" lon="10.346056">
        <ele>438.793714</ele>
        <time>2026-04-26T17:52:13.175Z</time>
      </trkpt>
      <trkpt lat="49.049611" lon="10.346261">
        <ele>438.662222</ele>
        <time>2026-04-26T17:52:16.918Z</time>
      </trkpt>
      <trkpt lat="49.048952" lon="10.347024">
        <ele>438.556423</ele>
        <time>2026-04-26T17:52:33.757Z</time>
      </trkpt>
      <trkpt lat="49.048563" lon="10.347395">
        <ele>438.611959</ele>
        <time>2026-04-26T17:52:43.555Z</time>
      </trkpt>
      <trkpt lat="49.048118" lon="10.347767">
        <ele>438.673388</ele>
        <time>2026-04-26T17:52:54.675Z</time>
      </trkpt>
      <trkpt lat="49.046899" lon="10.348636">
        <ele>439.121315</ele>
        <time>2026-04-26T17:53:24.426Z</time>
      </trkpt>
      <trkpt lat="49.045613" lon="10.350036">
        <ele>439.606243</ele>
        <time>2026-04-26T17:53:57.765Z</time>
      </trkpt>
      <trkpt lat="49.045173" lon="10.350373">
        <ele>439.726747</ele>
        <time>2026-04-26T17:54:08.491Z</time>
      </trkpt>
      <trkpt lat="49.044768" lon="10.350701">
        <ele>439.827989</ele>
        <time>2026-04-26T17:54:18.641Z</time>
      </trkpt>
      <trkpt lat="49.044025" lon="10.351415">
        <ele>439.593495</ele>
        <time>2026-04-26T17:54:37.617Z</time>
      </trkpt>
      <trkpt lat="49.043745" lon="10.351714">
        <ele>439.502226</ele>
        <time>2026-04-26T17:54:44.469Z</time>
      </trkpt>
      <trkpt lat="49.043502" lon="10.352040">
        <ele>439.415813</ele>
        <time>2026-04-26T17:54:50.811Z</time>
      </trkpt>
      <trkpt lat="49.043156" lon="10.352571">
        <ele>439.133352</ele>
        <time>2026-04-26T17:55:00.161Z</time>
      </trkpt>
      <trkpt lat="49.043088" lon="10.352544">
        <ele>439.073207</ele>
        <time>2026-04-26T17:55:01.476Z</time>
      </trkpt>
      <trkpt lat="49.043043" lon="10.352507">
        <ele>439.029451</ele>
        <time>2026-04-26T17:55:02.440Z</time>
      </trkpt>
      <trkpt lat="49.042973" lon="10.352626">
        <ele>438.939740</ele>
        <time>2026-04-26T17:55:04.407Z</time>
      </trkpt>
      <trkpt lat="49.042668" lon="10.353142">
        <ele>438.549899</ele>
        <time>2026-04-26T17:55:13.054Z</time>
      </trkpt>
      <trkpt lat="49.042034" lon="10.354343">
        <ele>437.774923</ele>
        <time>2026-04-26T17:55:33.402Z</time>
      </trkpt>
      <trkpt lat="49.041735" lon="10.354717">
        <ele>437.675196</ele>
        <time>2026-04-26T17:55:41.309Z</time>
      </trkpt>
      <trkpt lat="49.040082" lon="10.356402">
        <ele>437.507364</ele>
        <time>2026-04-26T17:56:22.591Z</time>
      </trkpt>
      <trkpt lat="49.039711" lon="10.356681">
        <ele>437.596939</ele>
        <time>2026-04-26T17:56:31.452Z</time>
      </trkpt>
      <trkpt lat="49.039555" lon="10.355370">
        <ele>437.937565</ele>
        <time>2026-04-26T17:56:51.367Z</time>
      </trkpt>
      <trkpt lat="49.037592" lon="10.356378">
        <ele>439.693657</ele>
        <time>2026-04-26T17:57:39.521Z</time>
      </trkpt>
      <trkpt lat="49.037234" lon="10.356614">
        <ele>439.933376</ele>
        <time>2026-04-26T17:57:48.468Z</time>
      </trkpt>
      <trkpt lat="49.037037" lon="10.357001">
        <ele>440.130812</ele>
        <time>2026-04-26T17:57:55.786Z</time>
      </trkpt>
      <trkpt lat="49.036780" lon="10.357595">
        <ele>440.417597</ele>
        <time>2026-04-26T17:58:06.229Z</time>
      </trkpt>
      <trkpt lat="49.036523" lon="10.358186">
        <ele>440.479676</ele>
        <time>2026-04-26T17:58:16.628Z</time>
      </trkpt>
      <trkpt lat="49.036470" lon="10.358309">
        <ele>440.473986</ele>
        <time>2026-04-26T17:58:18.776Z</time>
      </trkpt>
      <trkpt lat="49.035938" lon="10.359613">
        <ele>440.414614</ele>
        <time>2026-04-26T17:58:40.836Z</time>
      </trkpt>
      <trkpt lat="49.035920" lon="10.359659">
        <ele>440.412543</ele>
        <time>2026-04-26T17:58:41.581Z</time>
      </trkpt>
      <trkpt lat="49.035263" lon="10.361218">
        <ele>440.109149</ele>
        <time>2026-04-26T17:59:07.236Z</time>
      </trkpt>
      <trkpt lat="49.035175" lon="10.361394">
        <ele>440.062677</ele>
        <time>2026-04-26T17:59:10.284Z</time>
      </trkpt>
      <trkpt lat="49.035092" lon="10.361486">
        <ele>440.029819</ele>
        <time>2026-04-26T17:59:12.452Z</time>
      </trkpt>
      <trkpt lat="49.034952" lon="10.361530">
        <ele>439.984042</ele>
        <time>2026-04-26T17:59:15.475Z</time>
      </trkpt>
      <trkpt lat="49.034893" lon="10.361610">
        <ele>439.958761</ele>
        <time>2026-04-26T17:59:17.169Z</time>
      </trkpt>
      <trkpt lat="49.034899" lon="10.361750">
        <ele>439.929305</ele>
        <time>2026-04-26T17:59:19.116Z</time>
      </trkpt>
      <trkpt lat="49.034833" lon="10.361679">
        <ele>439.903440</ele>
        <time>2026-04-26T17:59:20.782Z</time>
      </trkpt>
      <trkpt lat="49.033180" lon="10.361840">
        <ele>440.352597</ele>
        <time>2026-04-26T17:59:56.175Z</time>
      </trkpt>
      <trkpt lat="49.032927" lon="10.361839">
        <ele>440.450259</ele>
        <time>2026-04-26T18:00:01.841Z</time>
      </trkpt>
      <trkpt lat="49.032833" lon="10.361751">
        <ele>440.492834</ele>
        <time>2026-04-26T18:00:04.305Z</time>
      </trkpt>
      <trkpt lat="49.031721" lon="10.361864">
        <ele>442.115012</ele>
        <time>2026-04-26T18:00:29.756Z</time>
      </trkpt>
      <trkpt lat="49.031478" lon="10.361842">
        <ele>442.481138</ele>
        <time>2026-04-26T18:00:35.400Z</time>
      </trkpt>
      <trkpt lat="49.031238" lon="10.361778">
        <ele>442.847584</ele>
        <time>2026-04-26T18:00:41.047Z</time>
      </trkpt>
      <trkpt lat="49.029281" lon="10.360750">
        <ele>446.855236</ele>
        <time>2026-04-26T18:01:29.521Z</time>
      </trkpt>
      <trkpt lat="49.028854" lon="10.360517">
        <ele>447.554725</ele>
        <time>2026-04-26T18:01:40.076Z</time>
      </trkpt>
      <trkpt lat="49.028467" lon="10.360399">
        <ele>448.163447</ele>
        <time>2026-04-26T18:01:49.192Z</time>
      </trkpt>
      <trkpt lat="49.028011" lon="10.360324">
        <ele>448.870860</ele>
        <time>2026-04-26T18:01:59.750Z</time>
      </trkpt>
      <trkpt lat="49.027541" lon="10.360340">
        <ele>449.590674</ele>
        <time>2026-04-26T18:02:10.487Z</time>
      </trkpt>
      <trkpt lat="49.025852" lon="10.360844">
        <ele>449.982797</ele>
        <time>2026-04-26T18:02:48.390Z</time>
      </trkpt>
      <trkpt lat="49.025843" lon="10.360969">
        <ele>449.973240</ele>
        <time>2026-04-26T18:02:49.960Z</time>
      </trkpt>
      <trkpt lat="49.025667" lon="10.360986">
        <ele>449.449853</ele>
        <time>2026-04-26T18:02:53.062Z</time>
      </trkpt>
      <trkpt lat="49.025415" lon="10.361009">
        <ele>448.700618</ele>
        <time>2026-04-26T18:02:57.324Z</time>
      </trkpt>
      <trkpt lat="49.024228" lon="10.360889">
        <ele>445.170053</ele>
        <time>2026-04-26T18:03:16.138Z</time>
      </trkpt>
      <trkpt lat="49.023309" lon="10.361451">
        <ele>442.581964</ele>
        <time>2026-04-26T18:03:32.370Z</time>
      </trkpt>
      <trkpt lat="49.022924" lon="10.361552">
        <ele>441.589787</ele>
        <time>2026-04-26T18:03:39.149Z</time>
      </trkpt>
      <trkpt lat="49.022658" lon="10.361605">
        <ele>440.908463</ele>
        <time>2026-04-26T18:03:43.830Z</time>
      </trkpt>
      <trkpt lat="49.022150" lon="10.361452">
        <ele>439.994469</ele>
        <time>2026-04-26T18:03:52.986Z</time>
      </trkpt>
      <trkpt lat="49.021650" lon="10.361281">
        <ele>439.737179</ele>
        <time>2026-04-26T18:04:02.611Z</time>
      </trkpt>
      <trkpt lat="49.020964" lon="10.361203">
        <ele>439.391778</ele>
        <time>2026-04-26T18:04:16.812Z</time>
      </trkpt>
      <trkpt lat="49.020751" lon="10.361172">
        <ele>439.284343</ele>
        <time>2026-04-26T18:04:21.645Z</time>
      </trkpt>
      <trkpt lat="49.020570" lon="10.361121">
        <ele>439.191924</ele>
        <time>2026-04-26T18:04:25.860Z</time>
      </trkpt>
      <trkpt lat="49.020309" lon="10.360917">
        <ele>439.533665</ele>
        <time>2026-04-26T18:04:32.707Z</time>
      </trkpt>
      <trkpt lat="49.020402" lon="10.360539">
        <ele>439.847383</ele>
        <time>2026-04-26T18:04:38.756Z</time>
      </trkpt>
      <trkpt lat="49.020485" lon="10.359981">
        <ele>440.291993</ele>
        <time>2026-04-26T18:04:47.341Z</time>
      </trkpt>
      <trkpt lat="49.020500" lon="10.359517">
        <ele>440.652984</ele>
        <time>2026-04-26T18:04:54.250Z</time>
      </trkpt>
      <trkpt lat="49.020447" lon="10.358714">
        <ele>441.280111</ele>
        <time>2026-04-26T18:05:06.318Z</time>
      </trkpt>
      <trkpt lat="49.020446" lon="10.358548">
        <ele>441.446320</ele>
        <time>2026-04-26T18:05:08.826Z</time>
      </trkpt>
      <trkpt lat="49.020366" lon="10.358546">
        <ele>441.581370</ele>
        <time>2026-04-26T18:05:10.688Z</time>
      </trkpt>
      <trkpt lat="49.020176" lon="10.358650">
        <ele>441.922104</ele>
        <time>2026-04-26T18:05:15.328Z</time>
      </trkpt>
      <trkpt lat="49.019973" lon="10.358866">
        <ele>442.339918</ele>
        <time>2026-04-26T18:05:20.977Z</time>
      </trkpt>
      <trkpt lat="49.019826" lon="10.358981">
        <ele>442.618786</ele>
        <time>2026-04-26T18:05:24.740Z</time>
      </trkpt>
      <trkpt lat="49.019512" lon="10.359118">
        <ele>443.170052</ele>
        <time>2026-04-26T18:05:32.200Z</time>
      </trkpt>
      <trkpt lat="49.019417" lon="10.359041">
        <ele>443.351646</ele>
        <time>2026-04-26T18:05:34.697Z</time>
      </trkpt>
      <trkpt lat="49.019298" lon="10.359023">
        <ele>443.553491</ele>
        <time>2026-04-26T18:05:37.463Z</time>
      </trkpt>
      <trkpt lat="49.018973" lon="10.359086">
        <ele>444.106470</ele>
        <time>2026-04-26T18:05:45.124Z</time>
      </trkpt>
      <trkpt lat="49.018911" lon="10.359103">
        <ele>444.212797</ele>
        <time>2026-04-26T18:05:46.612Z</time>
      </trkpt>
      <trkpt lat="49.018814" lon="10.359149">
        <ele>444.391242</ele>
        <time>2026-04-26T18:05:48.994Z</time>
      </trkpt>
      <trkpt lat="49.018605" lon="10.359220">
        <ele>444.846469</ele>
        <time>2026-04-26T18:05:54.083Z</time>
      </trkpt>
      <trkpt lat="49.018166" lon="10.359248">
        <ele>445.780597</ele>
        <time>2026-04-26T18:06:04.542Z</time>
      </trkpt>
      <trkpt lat="49.017951" lon="10.359222">
        <ele>446.239122</ele>
        <time>2026-04-26T18:06:09.699Z</time>
      </trkpt>
      <trkpt lat="49.017680" lon="10.359149">
        <ele>446.824188</ele>
        <time>2026-04-26T18:06:16.255Z</time>
      </trkpt>
      <trkpt lat="49.017277" lon="10.358941">
        <ele>447.728718</ele>
        <time>2026-04-26T18:06:26.267Z</time>
      </trkpt>
      <trkpt lat="49.017232" lon="10.358916">
        <ele>447.830540</ele>
        <time>2026-04-26T18:06:27.377Z</time>
      </trkpt>
      <trkpt lat="49.016872" lon="10.358721">
        <ele>448.399085</ele>
        <time>2026-04-26T18:06:36.068Z</time>
      </trkpt>
      <trkpt lat="49.015884" lon="10.358313">
        <ele>449.426218</ele>
        <time>2026-04-26T18:06:58.549Z</time>
      </trkpt>
      <trkpt lat="49.015804" lon="10.358098">
        <ele>449.588900</ele>
        <time>2026-04-26T18:07:02.230Z</time>
      </trkpt>
      <trkpt lat="49.015444" lon="10.357143">
        <ele>450.647374</ele>
        <time>2026-04-26T18:07:19.226Z</time>
      </trkpt>
      <trkpt lat="49.013977" lon="10.354269">
        <ele>453.762184</ele>
        <time>2026-04-26T18:08:17.059Z</time>
      </trkpt>
      <trkpt lat="49.012595" lon="10.351387">
        <ele>450.708695</ele>
        <time>2026-04-26T18:09:00.166Z</time>
      </trkpt>
      <trkpt lat="49.012511" lon="10.351276">
        <ele>450.466285</ele>
        <time>2026-04-26T18:09:02.072Z</time>
      </trkpt>
      <trkpt lat="49.012262" lon="10.350699">
        <ele>449.628996</ele>
        <time>2026-04-26T18:09:09.967Z</time>
      </trkpt>
      <trkpt lat="49.012196" lon="10.350488">
        <ele>449.397301</ele>
        <time>2026-04-26T18:09:12.716Z</time>
      </trkpt>
      <trkpt lat="49.011870" lon="10.349240">
        <ele>448.065865</ele>
        <time>2026-04-26T18:09:29.336Z</time>
      </trkpt>
      <trkpt lat="49.011810" lon="10.349083">
        <ele>447.885768</ele>
        <time>2026-04-26T18:09:31.813Z</time>
      </trkpt>
      <trkpt lat="49.011713" lon="10.348955">
        <ele>447.691910</ele>
        <time>2026-04-26T18:09:34.523Z</time>
      </trkpt>
      <trkpt lat="49.011593" lon="10.348881">
        <ele>447.496304</ele>
        <time>2026-04-26T18:09:37.265Z</time>
      </trkpt>
      <trkpt lat="49.011492" lon="10.348872">
        <ele>447.343421</ele>
        <time>2026-04-26T18:09:39.414Z</time>
      </trkpt>
      <trkpt lat="49.010833" lon="10.349001">
        <ele>447.270348</ele>
        <time>2026-04-26T18:09:53.667Z</time>
      </trkpt>
      <trkpt lat="49.010640" lon="10.348951">
        <ele>447.276643</ele>
        <time>2026-04-26T18:09:57.931Z</time>
      </trkpt>
      <trkpt lat="49.010449" lon="10.348769">
        <ele>447.283885</ele>
        <time>2026-04-26T18:10:02.819Z</time>
      </trkpt>
      <trkpt lat="49.010252" lon="10.348428">
        <ele>447.293468</ele>
        <time>2026-04-26T18:10:09.453Z</time>
      </trkpt>
      <trkpt lat="49.010154" lon="10.348047">
        <ele>447.302099</ele>
        <time>2026-04-26T18:10:15.501Z</time>
      </trkpt>
      <trkpt lat="49.010103" lon="10.347093">
        <ele>447.744388</ele>
        <time>2026-04-26T18:10:29.918Z</time>
      </trkpt>
      <trkpt lat="49.009981" lon="10.344430">
        <ele>449.760574</ele>
        <time>2026-04-26T18:11:10.913Z</time>
      </trkpt>
      <trkpt lat="49.009980" lon="10.343188">
        <ele>451.042769</ele>
        <time>2026-04-26T18:11:30.158Z</time>
      </trkpt>
      <trkpt lat="49.010009" lon="10.342455">
        <ele>451.800866</ele>
        <time>2026-04-26T18:11:41.638Z</time>
      </trkpt>
      <trkpt lat="49.009984" lon="10.341615">
        <ele>452.872692</ele>
        <time>2026-04-26T18:11:54.885Z</time>
      </trkpt>
      <trkpt lat="49.009824" lon="10.339872">
        <ele>455.247710</ele>
        <time>2026-04-26T18:12:22.795Z</time>
      </trkpt>
      <trkpt lat="49.009756" lon="10.339464">
        <ele>455.759643</ele>
        <time>2026-04-26T18:12:29.483Z</time>
      </trkpt>
      <trkpt lat="49.009298" lon="10.337766">
        <ele>456.970709</ele>
        <time>2026-04-26T18:12:57.828Z</time>
      </trkpt>
      <trkpt lat="49.009101" lon="10.336936">
        <ele>457.551304</ele>
        <time>2026-04-26T18:13:10.477Z</time>
      </trkpt>
      <trkpt lat="49.008978" lon="10.336417">
        <ele>457.899600</ele>
        <time>2026-04-26T18:13:18.210Z</time>
      </trkpt>
      <trkpt lat="49.008706" lon="10.335589">
        <ele>458.484076</ele>
        <time>2026-04-26T18:13:31.527Z</time>
      </trkpt>
      <trkpt lat="49.008462" lon="10.335047">
        <ele>458.898985</ele>
        <time>2026-04-26T18:13:41.667Z</time>
      </trkpt>
      <trkpt lat="49.008103" lon="10.334360">
        <ele>459.725405</ele>
        <time>2026-04-26T18:13:55.862Z</time>
      </trkpt>
      <trkpt lat="49.007696" lon="10.333680">
        <ele>461.066579</ele>
        <time>2026-04-26T18:14:11.275Z</time>
      </trkpt>
      <trkpt lat="49.007221" lon="10.333037">
        <ele>462.477514</ele>
        <time>2026-04-26T18:14:26.913Z</time>
      </trkpt>
      <trkpt lat="49.006528" lon="10.332298">
        <ele>462.759776</ele>
        <time>2026-04-26T18:14:45.275Z</time>
      </trkpt>
      <trkpt lat="49.006341" lon="10.332023">
        <ele>462.511102</ele>
        <time>2026-04-26T18:14:50.177Z</time>
      </trkpt>
      <trkpt lat="49.006197" lon="10.331742">
        <ele>462.287234</ele>
        <time>2026-04-26T18:14:54.497Z</time>
      </trkpt>
      <trkpt lat="49.005938" lon="10.330998">
        <ele>461.758438</ele>
        <time>2026-04-26T18:15:04.734Z</time>
      </trkpt>
      <trkpt lat="49.005722" lon="10.330105">
        <ele>461.654698</ele>
        <time>2026-04-26T18:15:17.403Z</time>
      </trkpt>
      <trkpt lat="49.005226" lon="10.327504">
        <ele>462.652296</ele>
        <time>2026-04-26T18:15:58.380Z</time>
      </trkpt>
      <trkpt lat="49.004686" lon="10.325085">
        <ele>464.694170</ele>
        <time>2026-04-26T18:16:38.290Z</time>
      </trkpt>
      <trkpt lat="49.004578" lon="10.325121">
        <ele>464.726631</ele>
        <time>2026-04-26T18:16:40.798Z</time>
      </trkpt>
      <trkpt lat="49.004022" lon="10.325290">
        <ele>464.893102</ele>
        <time>2026-04-26T18:16:53.006Z</time>
      </trkpt>
      <trkpt lat="49.003838" lon="10.325388">
        <ele>464.950333</ele>
        <time>2026-04-26T18:16:57.167Z</time>
      </trkpt>
      <trkpt lat="49.003711" lon="10.325488">
        <ele>464.992305</ele>
        <time>2026-04-26T18:17:00.229Z</time>
      </trkpt>
      <trkpt lat="49.003492" lon="10.325729">
        <ele>465.071615</ele>
        <time>2026-04-26T18:17:06.019Z</time>
      </trkpt>
      <trkpt lat="49.003246" lon="10.326100">
        <ele>465.210735</ele>
        <time>2026-04-26T18:17:13.641Z</time>
      </trkpt>
      <trkpt lat="49.002953" lon="10.326496">
        <ele>465.559520</ele>
        <time>2026-04-26T18:17:22.583Z</time>
      </trkpt>
      <trkpt lat="49.002671" lon="10.326780">
        <ele>465.860567</ele>
        <time>2026-04-26T18:17:30.365Z</time>
      </trkpt>
      <trkpt lat="49.002077" lon="10.327183">
        <ele>466.439686</ele>
        <time>2026-04-26T18:17:45.736Z</time>
      </trkpt>
      <trkpt lat="49.001772" lon="10.327430">
        <ele>466.747311</ele>
        <time>2026-04-26T18:17:53.832Z</time>
      </trkpt>
      <trkpt lat="49.001579" lon="10.327641">
        <ele>466.780723</ele>
        <time>2026-04-26T18:17:59.325Z</time>
      </trkpt>
      <trkpt lat="49.001294" lon="10.327999">
        <ele>466.819607</ele>
        <time>2026-04-26T18:18:07.695Z</time>
      </trkpt>
      <trkpt lat="49.001028" lon="10.328232">
        <ele>466.851909</ele>
        <time>2026-04-26T18:18:14.545Z</time>
      </trkpt>
      <trkpt lat="49.000994" lon="10.327771">
        <ele>466.883953</ele>
        <time>2026-04-26T18:18:21.049Z</time>
      </trkpt>
      <trkpt lat="49.000978" lon="10.326588">
        <ele>467.102905</ele>
        <time>2026-04-26T18:18:36.517Z</time>
      </trkpt>
      <trkpt lat="49.000622" lon="10.326730">
        <ele>467.414785</ele>
        <time>2026-04-26T18:18:43.549Z</time>
      </trkpt>
      <trkpt lat="49.000332" lon="10.326935">
        <ele>467.685713</ele>
        <time>2026-04-26T18:18:50.043Z</time>
      </trkpt>
      <trkpt lat="49.000084" lon="10.327408">
        <ele>468.022386</ele>
        <time>2026-04-26T18:18:58.726Z</time>
      </trkpt>
      <trkpt lat="48.999882" lon="10.327739">
        <ele>468.273747</ele>
        <time>2026-04-26T18:19:05.798Z</time>
      </trkpt>
      <trkpt lat="48.999622" lon="10.327958">
        <ele>468.916435</ele>
        <time>2026-04-26T18:19:13.284Z</time>
      </trkpt>
      <trkpt lat="48.999385" lon="10.328047">
        <ele>470.596714</ele>
        <time>2026-04-26T18:19:19.848Z</time>
      </trkpt>
      <trkpt lat="48.999139" lon="10.328091">
        <ele>472.301782</ele>
        <time>2026-04-26T18:19:26.924Z</time>
      </trkpt>
      <trkpt lat="48.998615" lon="10.328140">
        <ele>475.915747</ele>
        <time>2026-04-26T18:19:43.543Z</time>
      </trkpt>
      <trkpt lat="48.998523" lon="10.328165">
        <ele>476.559056</ele>
        <time>2026-04-26T18:19:46.648Z</time>
      </trkpt>
      <trkpt lat="48.998414" lon="10.328253">
        <ele>477.408164</ele>
        <time>2026-04-26T18:19:50.822Z</time>
      </trkpt>
      <trkpt lat="48.998260" lon="10.328571">
        <ele>479.193269</ele>
        <time>2026-04-26T18:19:59.648Z</time>
      </trkpt>
      <trkpt lat="48.998070" lon="10.329584">
        <ele>484.785411</ele>
        <time>2026-04-26T18:20:23.301Z</time>
      </trkpt>
      <trkpt lat="48.997889" lon="10.330258">
        <ele>488.959415</ele>
        <time>2026-04-26T18:20:39.450Z</time>
      </trkpt>
      <trkpt lat="48.997722" lon="10.330674">
        <ele>491.754577</ele>
        <time>2026-04-26T18:20:50.023Z</time>
      </trkpt>
      <trkpt lat="48.997566" lon="10.330880">
        <ele>493.557659</ele>
        <time>2026-04-26T18:20:56.886Z</time>
      </trkpt>
      <trkpt lat="48.997397" lon="10.330969">
        <ele>495.119628</ele>
        <time>2026-04-26T18:21:02.935Z</time>
      </trkpt>
      <trkpt lat="48.997207" lon="10.330938">
        <ele>496.820714</ele>
        <time>2026-04-26T18:21:09.495Z</time>
      </trkpt>
      <trkpt lat="48.997003" lon="10.330820">
        <ele>498.997436</ele>
        <time>2026-04-26T18:21:17.160Z</time>
      </trkpt>
      <trkpt lat="48.996817" lon="10.330817">
        <ele>500.853070</ele>
        <time>2026-04-26T18:21:23.799Z</time>
      </trkpt>
      <trkpt lat="48.996757" lon="10.330843">
        <ele>501.475349</ele>
        <time>2026-04-26T18:21:26.054Z</time>
      </trkpt>
      <trkpt lat="48.996527" lon="10.331155">
        <ele>504.546972</ele>
        <time>2026-04-26T18:21:37.355Z</time>
      </trkpt>
      <trkpt lat="48.996381" lon="10.331268">
        <ele>506.180496</ele>
        <time>2026-04-26T18:21:43.500Z</time>
      </trkpt>
      <trkpt lat="48.996225" lon="10.331316">
        <ele>507.768142</ele>
        <time>2026-04-26T18:21:49.503Z</time>
      </trkpt>
      <trkpt lat="48.996110" lon="10.331299">
        <ele>508.920762</ele>
        <time>2026-04-26T18:21:53.864Z</time>
      </trkpt>
      <trkpt lat="48.995974" lon="10.331225">
        <ele>510.361359</ele>
        <time>2026-04-26T18:21:59.370Z</time>
      </trkpt>
      <trkpt lat="48.995897" lon="10.331128">
        <ele>511.357928</ele>
        <time>2026-04-26T18:22:03.213Z</time>
      </trkpt>
      <trkpt lat="48.995829" lon="10.331024">
        <ele>512.318947</ele>
        <time>2026-04-26T18:22:07.024Z</time>
      </trkpt>
      <trkpt lat="48.995677" lon="10.330659">
        <ele>514.972794</ele>
        <time>2026-04-26T18:22:17.958Z</time>
      </trkpt>
      <trkpt lat="48.995566" lon="10.330514">
        <ele>516.030985</ele>
        <time>2026-04-26T18:22:23.331Z</time>
      </trkpt>
      <trkpt lat="48.995406" lon="10.330398">
        <ele>517.313480</ele>
        <time>2026-04-26T18:22:29.606Z</time>
      </trkpt>
      <trkpt lat="48.994897" lon="10.330183">
        <ele>521.136694</ele>
        <time>2026-04-26T18:22:47.140Z</time>
      </trkpt>
      <trkpt lat="48.993669" lon="10.329578">
        <ele>528.662103</ele>
        <time>2026-04-26T18:23:22.711Z</time>
      </trkpt>
      <trkpt lat="48.993475" lon="10.329584">
        <ele>529.202240</ele>
        <time>2026-04-26T18:23:27.591Z</time>
      </trkpt>
      <trkpt lat="48.992568" lon="10.329862">
        <ele>531.777549</ele>
        <time>2026-04-26T18:23:50.166Z</time>
      </trkpt>
      <trkpt lat="48.992461" lon="10.329855">
        <ele>532.075672</ele>
        <time>2026-04-26T18:23:52.696Z</time>
      </trkpt>
      <trkpt lat="48.992156" lon="10.329760">
        <ele>532.384454</ele>
        <time>2026-04-26T18:23:59.610Z</time>
      </trkpt>
      <trkpt lat="48.991515" lon="10.329458">
        <ele>531.700425</ele>
        <time>2026-04-26T18:24:12.876Z</time>
      </trkpt>
      <trkpt lat="48.991339" lon="10.329414">
        <ele>531.518591</ele>
        <time>2026-04-26T18:24:16.050Z</time>
      </trkpt>
      <trkpt lat="48.990677" lon="10.329430">
        <ele>530.843582</ele>
        <time>2026-04-26T18:24:27.732Z</time>
      </trkpt>
      <trkpt lat="48.990465" lon="10.329519">
        <ele>530.589593</ele>
        <time>2026-04-26T18:24:31.570Z</time>
      </trkpt>
      <trkpt lat="48.990271" lon="10.329614">
        <ele>530.305255</ele>
        <time>2026-04-26T18:24:35.103Z</time>
      </trkpt>
      <trkpt lat="48.989868" lon="10.329809">
        <ele>529.715247</ele>
        <time>2026-04-26T18:24:42.992Z</time>
      </trkpt>
      <trkpt lat="48.989860" lon="10.330127">
        <ele>529.423858</ele>
        <time>2026-04-26T18:24:46.856Z</time>
      </trkpt>
      <trkpt lat="48.989829" lon="10.330390">
        <ele>529.179189</ele>
        <time>2026-04-26T18:24:50.221Z</time>
      </trkpt>
      <trkpt lat="48.989828" lon="10.330806">
        <ele>528.798278</ele>
        <time>2026-04-26T18:24:55.557Z</time>
      </trkpt>
      <trkpt lat="48.989955" lon="10.333439">
        <ele>527.262706</ele>
        <time>2026-04-26T18:25:29.404Z</time>
      </trkpt>
      <trkpt lat="48.990075" lon="10.334920">
        <ele>527.033802</ele>
        <time>2026-04-26T18:25:49.402Z</time>
      </trkpt>
      <trkpt lat="48.989955" lon="10.333439">
        <ele>527.300709</ele>
        <time>2026-04-26T18:26:10.652Z</time>
      </trkpt>
      <trkpt lat="48.989828" lon="10.330806">
        <ele>529.132851</ele>
        <time>2026-04-26T18:26:49.619Z</time>
      </trkpt>
      <trkpt lat="48.989829" lon="10.330390">
        <ele>529.474269</ele>
        <time>2026-04-26T18:26:55.911Z</time>
      </trkpt>
      <trkpt lat="48.989860" lon="10.330127">
        <ele>529.738784</ele>
        <time>2026-04-26T18:26:59.999Z</time>
      </trkpt>
      <trkpt lat="48.989868" lon="10.329809">
        <ele>530.236037</ele>
        <time>2026-04-26T18:27:04.928Z</time>
      </trkpt>
      <trkpt lat="48.989683" lon="10.329909">
        <ele>530.703455</ele>
        <time>2026-04-26T18:27:09.717Z</time>
      </trkpt>
      <trkpt lat="48.989411" lon="10.330157">
        <ele>531.458221</ele>
        <time>2026-04-26T18:27:17.555Z</time>
      </trkpt>
      <trkpt lat="48.989241" lon="10.330255">
        <ele>531.891024</ele>
        <time>2026-04-26T18:27:22.077Z</time>
      </trkpt>
      <trkpt lat="48.988957" lon="10.330322">
        <ele>532.575348</ele>
        <time>2026-04-26T18:27:29.275Z</time>
      </trkpt>
      <trkpt lat="48.988402" lon="10.330338">
        <ele>533.897163</ele>
        <time>2026-04-26T18:27:42.895Z</time>
      </trkpt>
      <trkpt lat="48.987948" lon="10.330262">
        <ele>533.483276</ele>
        <time>2026-04-26T18:27:53.642Z</time>
      </trkpt>
      <trkpt lat="48.987746" lon="10.330194">
        <ele>533.276944</ele>
        <time>2026-04-26T18:27:58.245Z</time>
      </trkpt>
      <trkpt lat="48.987393" lon="10.329901">
        <ele>532.876022</ele>
        <time>2026-04-26T18:28:06.425Z</time>
      </trkpt>
      <trkpt lat="48.986686" lon="10.329067">
        <ele>531.529262</ele>
        <time>2026-04-26T18:28:21.841Z</time>
      </trkpt>
      <trkpt lat="48.985728" lon="10.328139">
        <ele>526.923000</ele>
        <time>2026-04-26T18:28:40.267Z</time>
      </trkpt>
      <trkpt lat="48.984719" lon="10.327337">
        <ele>522.591799</ele>
        <time>2026-04-26T18:28:58.827Z</time>
      </trkpt>
      <trkpt lat="48.984444" lon="10.327202">
        <ele>521.552295</ele>
        <time>2026-04-26T18:29:03.601Z</time>
      </trkpt>
      <trkpt lat="48.984138" lon="10.327186">
        <ele>520.450688</ele>
        <time>2026-04-26T18:29:08.704Z</time>
      </trkpt>
      <trkpt lat="48.983275" lon="10.327509">
        <ele>517.747015</ele>
        <time>2026-04-26T18:29:24.154Z</time>
      </trkpt>
      <trkpt lat="48.982933" lon="10.327579">
        <ele>517.057892</ele>
        <time>2026-04-26T18:29:30.755Z</time>
      </trkpt>
      <trkpt lat="48.982745" lon="10.327509">
        <ele>516.671401</ele>
        <time>2026-04-26T18:29:34.421Z</time>
      </trkpt>
      <trkpt lat="48.982558" lon="10.327380">
        <ele>516.261464</ele>
        <time>2026-04-26T18:29:38.347Z</time>
      </trkpt>
      <trkpt lat="48.982666" lon="10.326856">
        <ele>515.541620</ele>
        <time>2026-04-26T18:29:45.166Z</time>
      </trkpt>
      <trkpt lat="48.981908" lon="10.326581">
        <ele>514.486774</ele>
        <time>2026-04-26T18:29:59.565Z</time>
      </trkpt>
      <trkpt lat="48.981754" lon="10.326605">
        <ele>514.374950</ele>
        <time>2026-04-26T18:30:02.367Z</time>
      </trkpt>
      <trkpt lat="48.981541" lon="10.326789">
        <ele>514.198079</ele>
        <time>2026-04-26T18:30:06.771Z</time>
      </trkpt>
      <trkpt lat="48.981245" lon="10.326895">
        <ele>513.978434</ele>
        <time>2026-04-26T18:30:12.585Z</time>
      </trkpt>
      <trkpt lat="48.980806" lon="10.327037">
        <ele>513.654250</ele>
        <time>2026-04-26T18:30:22.350Z</time>
      </trkpt>
      <trkpt lat="48.980711" lon="10.327060">
        <ele>513.584765</ele>
        <time>2026-04-26T18:30:24.569Z</time>
      </trkpt>
      <trkpt lat="48.979890" lon="10.327879">
        <ele>515.560132</ele>
        <time>2026-04-26T18:30:57.472Z</time>
      </trkpt>
      <trkpt lat="48.979659" lon="10.327984">
        <ele>516.170713</ele>
        <time>2026-04-26T18:31:03.687Z</time>
      </trkpt>
      <trkpt lat="48.977354" lon="10.328230">
        <ele>521.335681</ele>
        <time>2026-04-26T18:32:00.098Z</time>
      </trkpt>
      <trkpt lat="48.976865" lon="10.328576">
        <ele>521.653744</ele>
        <time>2026-04-26T18:32:12.450Z</time>
      </trkpt>
      <trkpt lat="48.976628" lon="10.328899">
        <ele>521.508460</ele>
        <time>2026-04-26T18:32:19.343Z</time>
      </trkpt>
      <trkpt lat="48.975715" lon="10.330552">
        <ele>520.619179</ele>
        <time>2026-04-26T18:32:47.705Z</time>
      </trkpt>
      <trkpt lat="48.974761" lon="10.331514">
        <ele>519.015633</ele>
        <time>2026-04-26T18:33:10.487Z</time>
      </trkpt>
      <trkpt lat="48.974016" lon="10.332284">
        <ele>516.547012</ele>
        <time>2026-04-26T18:33:27.303Z</time>
      </trkpt>
      <trkpt lat="48.973824" lon="10.332432">
        <ele>515.727303</ele>
        <time>2026-04-26T18:33:31.012Z</time>
      </trkpt>
      <trkpt lat="48.973719" lon="10.332454">
        <ele>515.323546</ele>
        <time>2026-04-26T18:33:32.822Z</time>
      </trkpt>
      <trkpt lat="48.972234" lon="10.332336">
        <ele>508.884407</ele>
        <time>2026-04-26T18:33:56.259Z</time>
      </trkpt>
      <trkpt lat="48.972077" lon="10.332472">
        <ele>507.922541</ele>
        <time>2026-04-26T18:33:59.029Z</time>
      </trkpt>
      <trkpt lat="48.971905" lon="10.332727">
        <ele>506.644328</ele>
        <time>2026-04-26T18:34:02.693Z</time>
      </trkpt>
      <trkpt lat="48.970912" lon="10.334505">
        <ele>500.353089</ele>
        <time>2026-04-26T18:34:26.915Z</time>
      </trkpt>
      <trkpt lat="48.970871" lon="10.334657">
        <ele>500.081869</ele>
        <time>2026-04-26T18:34:28.835Z</time>
      </trkpt>
      <trkpt lat="48.970822" lon="10.335159">
        <ele>499.244236</ele>
        <time>2026-04-26T18:34:35.001Z</time>
      </trkpt>
      <trkpt lat="48.970798" lon="10.335267">
        <ele>499.056051</ele>
        <time>2026-04-26T18:34:36.476Z</time>
      </trkpt>
      <trkpt lat="48.970728" lon="10.335398">
        <ele>498.777267</ele>
        <time>2026-04-26T18:34:38.678Z</time>
      </trkpt>
      <trkpt lat="48.970935" lon="10.336025">
        <ele>497.618935</ele>
        <time>2026-04-26T18:34:48.051Z</time>
      </trkpt>
      <trkpt lat="48.971008" lon="10.336395">
        <ele>497.470409</ele>
        <time>2026-04-26T18:34:53.553Z</time>
      </trkpt>
      <trkpt lat="48.971025" lon="10.337450">
        <ele>497.361194</ele>
        <time>2026-04-26T18:35:08.886Z</time>
      </trkpt>
      <trkpt lat="48.971001" lon="10.338700">
        <ele>497.231777</ele>
        <time>2026-04-26T18:35:26.014Z</time>
      </trkpt>
      <trkpt lat="48.971070" lon="10.339304">
        <ele>496.731115</ele>
        <time>2026-04-26T18:35:33.246Z</time>
      </trkpt>
      <trkpt lat="48.971173" lon="10.339698">
        <ele>496.312733</ele>
        <time>2026-04-26T18:35:38.088Z</time>
      </trkpt>
      <trkpt lat="48.971203" lon="10.339812">
        <ele>496.191567</ele>
        <time>2026-04-26T18:35:39.471Z</time>
      </trkpt>
      <trkpt lat="48.971122" lon="10.339899">
        <ele>496.042621</ele>
        <time>2026-04-26T18:35:41.170Z</time>
      </trkpt>
      <trkpt lat="48.971055" lon="10.340048">
        <ele>495.864448</ele>
        <time>2026-04-26T18:35:43.198Z</time>
      </trkpt>
      <trkpt lat="48.970955" lon="10.340392">
        <ele>495.493293</ele>
        <time>2026-04-26T18:35:47.384Z</time>
      </trkpt>
      <trkpt lat="48.970773" lon="10.340772">
        <ele>495.029234</ele>
        <time>2026-04-26T18:35:52.692Z</time>
      </trkpt>
      <trkpt lat="48.970120" lon="10.341162">
        <ele>495.455354</ele>
        <time>2026-04-26T18:36:06.572Z</time>
      </trkpt>
      <trkpt lat="48.969786" lon="10.341385">
        <ele>496.405886</ele>
        <time>2026-04-26T18:36:15.113Z</time>
      </trkpt>
      <trkpt lat="48.969691" lon="10.341454">
        <ele>496.680213</ele>
        <time>2026-04-26T18:36:17.651Z</time>
      </trkpt>
      <trkpt lat="48.969075" lon="10.341767">
        <ele>498.372807</ele>
        <time>2026-04-26T18:36:34.561Z</time>
      </trkpt>
      <trkpt lat="48.968814" lon="10.341834">
        <ele>499.062706</ele>
        <time>2026-04-26T18:36:41.743Z</time>
      </trkpt>
      <trkpt lat="48.968326" lon="10.341848">
        <ele>500.913954</ele>
        <time>2026-04-26T18:36:55.010Z</time>
      </trkpt>
      <trkpt lat="48.968110" lon="10.341775">
        <ele>501.786112</ele>
        <time>2026-04-26T18:37:00.883Z</time>
      </trkpt>
      <trkpt lat="48.967966" lon="10.341699">
        <ele>502.386854</ele>
        <time>2026-04-26T18:37:04.898Z</time>
      </trkpt>
      <trkpt lat="48.966791" lon="10.340400">
        <ele>507.433760</ele>
        <time>2026-04-26T18:37:41.647Z</time>
      </trkpt>
      <trkpt lat="48.966543" lon="10.340183">
        <ele>508.141192</ele>
        <time>2026-04-26T18:37:48.756Z</time>
      </trkpt>
      <trkpt lat="48.966428" lon="10.340153">
        <ele>508.429786</ele>
        <time>2026-04-26T18:37:51.634Z</time>
      </trkpt>
      <trkpt lat="48.966303" lon="10.340163">
        <ele>508.739400</ele>
        <time>2026-04-26T18:37:54.728Z</time>
      </trkpt>
      <trkpt lat="48.966159" lon="10.340222">
        <ele>509.108244</ele>
        <time>2026-04-26T18:37:58.413Z</time>
      </trkpt>
      <trkpt lat="48.965135" lon="10.340769">
        <ele>510.618015</ele>
        <time>2026-04-26T18:38:24.053Z</time>
      </trkpt>
      <trkpt lat="48.964993" lon="10.340844">
        <ele>510.573439</ele>
        <time>2026-04-26T18:38:27.270Z</time>
      </trkpt>
      <trkpt lat="48.964979" lon="10.340845">
        <ele>510.569282</ele>
        <time>2026-04-26T18:38:27.579Z</time>
      </trkpt>
      <trkpt lat="48.964801" lon="10.340815">
        <ele>510.516167</ele>
        <time>2026-04-26T18:38:31.316Z</time>
      </trkpt>
      <trkpt lat="48.963879" lon="10.340422">
        <ele>510.232206</ele>
        <time>2026-04-26T18:38:50.237Z</time>
      </trkpt>
      <trkpt lat="48.962902" lon="10.344201">
        <ele>508.019650</ele>
        <time>2026-04-26T18:39:44.954Z</time>
      </trkpt>
      <trkpt lat="48.962747" lon="10.344765">
        <ele>507.733322</ele>
        <time>2026-04-26T18:39:53.443Z</time>
      </trkpt>
      <trkpt lat="48.962530" lon="10.345427">
        <ele>507.386814</ele>
        <time>2026-04-26T18:40:03.649Z</time>
      </trkpt>
      <trkpt lat="48.962131" lon="10.346415">
        <ele>506.487910</ele>
        <time>2026-04-26T18:40:19.265Z</time>
      </trkpt>
      <trkpt lat="48.961779" lon="10.347134">
        <ele>505.742710</ele>
        <time>2026-04-26T18:40:30.888Z</time>
      </trkpt>
      <trkpt lat="48.960228" lon="10.349961">
        <ele>501.241658</ele>
        <time>2026-04-26T18:41:15.999Z</time>
      </trkpt>
      <trkpt lat="48.959378" lon="10.351484">
        <ele>496.936397</ele>
        <time>2026-04-26T18:41:38.360Z</time>
      </trkpt>
      <trkpt lat="48.957199" lon="10.354812">
        <ele>486.656266</ele>
        <time>2026-04-26T18:42:29.103Z</time>
      </trkpt>
      <trkpt lat="48.956860" lon="10.355348">
        <ele>485.694847</ele>
        <time>2026-04-26T18:42:38.970Z</time>
      </trkpt>
      <trkpt lat="48.956567" lon="10.355860">
        <ele>484.817453</ele>
        <time>2026-04-26T18:42:48.958Z</time>
      </trkpt>
      <trkpt lat="48.956088" lon="10.356321">
        <ele>485.192656</ele>
        <time>2026-04-26T18:43:02.242Z</time>
      </trkpt>
      <trkpt lat="48.955780" lon="10.356518">
        <ele>485.427086</ele>
        <time>2026-04-26T18:43:10.083Z</time>
      </trkpt>
      <trkpt lat="48.954840" lon="10.356822">
        <ele>486.071638</ele>
        <time>2026-04-26T18:43:32.105Z</time>
      </trkpt>
      <trkpt lat="48.954564" lon="10.356958">
        <ele>486.116855</ele>
        <time>2026-04-26T18:43:38.428Z</time>
      </trkpt>
      <trkpt lat="48.954010" lon="10.357394">
        <ele>486.214058</ele>
        <time>2026-04-26T18:43:51.845Z</time>
      </trkpt>
      <trkpt lat="48.953552" lon="10.357893">
        <ele>486.301838</ele>
        <time>2026-04-26T18:44:04.454Z</time>
      </trkpt>
      <trkpt lat="48.953295" lon="10.358223">
        <ele>486.411023</ele>
        <time>2026-04-26T18:44:11.931Z</time>
      </trkpt>
      <trkpt lat="48.953181" lon="10.358317">
        <ele>486.537955</ele>
        <time>2026-04-26T18:44:14.800Z</time>
      </trkpt>
      <trkpt lat="48.953170" lon="10.358579">
        <ele>486.706755</ele>
        <time>2026-04-26T18:44:18.681Z</time>
      </trkpt>
      <trkpt lat="48.953162" lon="10.358750">
        <ele>486.816980</ele>
        <time>2026-04-26T18:44:21.239Z</time>
      </trkpt>
      <trkpt lat="48.953049" lon="10.358626">
        <ele>486.953354</ele>
        <time>2026-04-26T18:44:24.404Z</time>
      </trkpt>
      <trkpt lat="48.952948" lon="10.358576">
        <ele>487.057339</ele>
        <time>2026-04-26T18:44:26.833Z</time>
      </trkpt>
      <trkpt lat="48.952489" lon="10.358925">
        <ele>487.559660</ele>
        <time>2026-04-26T18:44:38.812Z</time>
      </trkpt>
      <trkpt lat="48.952226" lon="10.359178">
        <ele>487.864246</ele>
        <time>2026-04-26T18:44:46.169Z</time>
      </trkpt>
      <trkpt lat="48.951903" lon="10.359560">
        <ele>488.391017</ele>
        <time>2026-04-26T18:44:55.834Z</time>
      </trkpt>
      <trkpt lat="48.951643" lon="10.360183">
        <ele>489.240159</ele>
        <time>2026-04-26T18:45:07.550Z</time>
      </trkpt>
      <trkpt lat="48.951337" lon="10.361200">
        <ele>490.527022</ele>
        <time>2026-04-26T18:45:25.278Z</time>
      </trkpt>
      <trkpt lat="48.951010" lon="10.361920">
        <ele>491.211905</ele>
        <time>2026-04-26T18:45:38.859Z</time>
      </trkpt>
      <trkpt lat="48.950781" lon="10.363212">
        <ele>490.972291</ele>
        <time>2026-04-26T18:45:57.997Z</time>
      </trkpt>
      <trkpt lat="48.950780" lon="10.363252">
        <ele>490.965124</ele>
        <time>2026-04-26T18:45:58.544Z</time>
      </trkpt>
      <trkpt lat="48.950773" lon="10.363524">
        <ele>490.916384</ele>
        <time>2026-04-26T18:46:02.243Z</time>
      </trkpt>
      <trkpt lat="48.950760" lon="10.364112">
        <ele>490.811041</ele>
        <time>2026-04-26T18:46:10.085Z</time>
      </trkpt>
      <trkpt lat="48.950702" lon="10.364180">
        <ele>490.791083</ele>
        <time>2026-04-26T18:46:11.504Z</time>
      </trkpt>
      <trkpt lat="48.950546" lon="10.364365">
        <ele>490.652056</ele>
        <time>2026-04-26T18:46:15.322Z</time>
      </trkpt>
      <trkpt lat="48.950482" lon="10.364441">
        <ele>490.561973</ele>
        <time>2026-04-26T18:46:16.856Z</time>
      </trkpt>
      <trkpt lat="48.950401" lon="10.364607">
        <ele>490.411230</ele>
        <time>2026-04-26T18:46:19.426Z</time>
      </trkpt>
      <trkpt lat="48.950332" lon="10.364752">
        <ele>490.280708</ele>
        <time>2026-04-26T18:46:21.651Z</time>
      </trkpt>
      <trkpt lat="48.950258" lon="10.364723">
        <ele>490.195897</ele>
        <time>2026-04-26T18:46:22.997Z</time>
      </trkpt>
      <trkpt lat="48.950053" lon="10.364668">
        <ele>489.964856</ele>
        <time>2026-04-26T18:46:26.701Z</time>
      </trkpt>
      <trkpt lat="48.949954" lon="10.364678">
        <ele>489.854731</ele>
        <time>2026-04-26T18:46:28.459Z</time>
      </trkpt>
      <trkpt lat="48.949741" lon="10.364696">
        <ele>489.617952</ele>
        <time>2026-04-26T18:46:32.376Z</time>
      </trkpt>
      <trkpt lat="48.949516" lon="10.364707">
        <ele>489.368088</ele>
        <time>2026-04-26T18:46:36.661Z</time>
      </trkpt>
      <trkpt lat="48.949430" lon="10.364711">
        <ele>489.272590</ele>
        <time>2026-04-26T18:46:38.362Z</time>
      </trkpt>
      <trkpt lat="48.949300" lon="10.364721">
        <ele>489.128114</ele>
        <time>2026-04-26T18:46:40.916Z</time>
      </trkpt>
      <trkpt lat="48.949000" lon="10.364748">
        <ele>488.794554</ele>
        <time>2026-04-26T18:46:47.057Z</time>
      </trkpt>
      <trkpt lat="48.948901" lon="10.364757">
        <ele>488.742258</ele>
        <time>2026-04-26T18:46:49.145Z</time>
      </trkpt>
      <trkpt lat="48.948582" lon="10.364692">
        <ele>488.630643</ele>
        <time>2026-04-26T18:46:55.979Z</time>
      </trkpt>
      <trkpt lat="48.948267" lon="10.364612">
        <ele>488.519892</ele>
        <time>2026-04-26T18:47:02.957Z</time>
      </trkpt>
      <trkpt lat="48.947915" lon="10.364581">
        <ele>488.397615</ele>
        <time>2026-04-26T18:47:10.640Z</time>
      </trkpt>
      <trkpt lat="48.947697" lon="10.364604">
        <ele>488.321831</ele>
        <time>2026-04-26T18:47:15.292Z</time>
      </trkpt>
      <trkpt lat="48.947541" lon="10.364627">
        <ele>488.267477</ele>
        <time>2026-04-26T18:47:18.544Z</time>
      </trkpt>
      <trkpt lat="48.947478" lon="10.364636">
        <ele>488.245533</ele>
        <time>2026-04-26T18:47:19.835Z</time>
      </trkpt>
      <trkpt lat="48.947139" lon="10.364614">
        <ele>488.007603</ele>
        <time>2026-04-26T18:47:26.399Z</time>
      </trkpt>
      <trkpt lat="48.947041" lon="10.364591">
        <ele>487.728335</ele>
        <time>2026-04-26T18:47:28.168Z</time>
      </trkpt>
      <trkpt lat="48.946999" lon="10.363917">
        <ele>486.476035</ele>
        <time>2026-04-26T18:47:35.902Z</time>
      </trkpt>
      <trkpt lat="48.947139" lon="10.362282">
        <ele>483.426176</ele>
        <time>2026-04-26T18:47:53.926Z</time>
      </trkpt>
      <trkpt lat="48.947161" lon="10.361973">
        <ele>482.966312</ele>
        <time>2026-04-26T18:47:57.421Z</time>
      </trkpt>
      <trkpt lat="48.947325" lon="10.360044">
        <ele>481.185915</ele>
        <time>2026-04-26T18:48:21.383Z</time>
      </trkpt>
      <trkpt lat="48.947378" lon="10.359475">
        <ele>480.659883</ele>
        <time>2026-04-26T18:48:29.123Z</time>
      </trkpt>
      <trkpt lat="48.947471" lon="10.359454">
        <ele>480.555249</ele>
        <time>2026-04-26T18:48:32.371Z</time>
      </trkpt>
      <trkpt lat="48.947378" lon="10.359475">
        <ele>480.503982</ele>
        <time>2026-04-26T18:48:35.620Z</time>
      </trkpt>
      <trkpt lat="48.947325" lon="10.360044">
        <ele>480.298167</ele>
        <time>2026-04-26T18:48:43.258Z</time>
      </trkpt>
      <trkpt lat="48.946315" lon="10.360257">
        <ele>479.742153</ele>
        <time>2026-04-26T18:49:03.779Z</time>
      </trkpt>
      <trkpt lat="48.946012" lon="10.360412">
        <ele>479.571261</ele>
        <time>2026-04-26T18:49:14.804Z</time>
      </trkpt>
      <trkpt lat="48.945918" lon="10.360495">
        <ele>479.520585</ele>
        <time>2026-04-26T18:49:18.571Z</time>
      </trkpt>
      <trkpt lat="48.945814" lon="10.360606">
        <ele>479.461354</ele>
        <time>2026-04-26T18:49:22.970Z</time>
      </trkpt>
      <trkpt lat="48.945529" lon="10.361021">
        <ele>479.277442</ele>
        <time>2026-04-26T18:49:36.628Z</time>
      </trkpt>
      <trkpt lat="48.945409" lon="10.361136">
        <ele>479.211316</ele>
        <time>2026-04-26T18:49:41.529Z</time>
      </trkpt>
      <trkpt lat="48.945173" lon="10.361223">
        <ele>479.098075</ele>
        <time>2026-04-26T18:49:49.943Z</time>
      </trkpt>
      <trkpt lat="48.944747" lon="10.361187">
        <ele>478.899099</ele>
        <time>2026-04-26T18:50:04.710Z</time>
      </trkpt>
      <trkpt lat="48.944397" lon="10.361032">
        <ele>478.722933</ele>
        <time>2026-04-26T18:50:17.319Z</time>
      </trkpt>
      <trkpt lat="48.944237" lon="10.360912">
        <ele>478.617885</ele>
        <time>2026-04-26T18:50:23.499Z</time>
      </trkpt>
      <trkpt lat="48.943693" lon="10.360372">
        <ele>478.235403</ele>
        <time>2026-04-26T18:50:45.981Z</time>
      </trkpt>
      <trkpt lat="48.943445" lon="10.360219">
        <ele>478.077802</ele>
        <time>2026-04-26T18:50:51.330Z</time>
      </trkpt>
      <trkpt lat="48.943332" lon="10.360197">
        <ele>478.010706</ele>
        <time>2026-04-26T18:50:53.590Z</time>
      </trkpt>
      <trkpt lat="48.943205" lon="10.360232">
        <ele>477.934691</ele>
        <time>2026-04-26T18:50:56.153Z</time>
      </trkpt>
      <trkpt lat="48.943155" lon="10.360290">
        <ele>477.897669</ele>
        <time>2026-04-26T18:50:57.400Z</time>
      </trkpt>
      <trkpt lat="48.943130" lon="10.360372">
        <ele>477.862697</ele>
        <time>2026-04-26T18:50:58.575Z</time>
      </trkpt>
      <trkpt lat="48.943115" lon="10.360557">
        <ele>477.790588</ele>
        <time>2026-04-26T18:51:00.991Z</time>
      </trkpt>
      <trkpt lat="48.943166" lon="10.361152">
        <ele>477.646700</ele>
        <time>2026-04-26T18:51:08.790Z</time>
      </trkpt>
      <trkpt lat="48.943132" lon="10.361270">
        <ele>477.629488</ele>
        <time>2026-04-26T18:51:10.456Z</time>
      </trkpt>
      <trkpt lat="48.943084" lon="10.361334">
        <ele>477.616511</ele>
        <time>2026-04-26T18:51:11.724Z</time>
      </trkpt>
      <trkpt lat="48.943007" lon="10.361381">
        <ele>477.599639</ele>
        <time>2026-04-26T18:51:13.363Z</time>
      </trkpt>
      <trkpt lat="48.942690" lon="10.361321">
        <ele>477.534671</ele>
        <time>2026-04-26T18:51:19.729Z</time>
      </trkpt>
      <trkpt lat="48.942364" lon="10.361315">
        <ele>477.468365</ele>
        <time>2026-04-26T18:51:26.401Z</time>
      </trkpt>
      <trkpt lat="48.942059" lon="10.361383">
        <ele>477.405672</ele>
        <time>2026-04-26T18:51:32.958Z</time>
      </trkpt>
      <trkpt lat="48.941544" lon="10.361655">
        <ele>477.327431</ele>
        <time>2026-04-26T18:51:44.877Z</time>
      </trkpt>
      <trkpt lat="48.941163" lon="10.362026">
        <ele>477.327431</ele>
        <time>2026-04-26T18:51:54.932Z</time>
      </trkpt>
      <trkpt lat="48.941038" lon="10.362106">
        <ele>477.327431</ele>
        <time>2026-04-26T18:51:57.959Z</time>
      </trkpt>
      <trkpt lat="48.941018" lon="10.362288">
        <ele>477.327431</ele>
        <time>2026-04-26T18:52:00.751Z</time>
      </trkpt>
      <trkpt lat="48.940951" lon="10.362555">
        <ele>477.327431</ele>
        <time>2026-04-26T18:52:05.066Z</time>
      </trkpt>
      <trkpt lat="48.940824" lon="10.362825">
        <ele>477.327431</ele>
        <time>2026-04-26T18:52:10.087Z</time>
      </trkpt>
      <trkpt lat="48.940679" lon="10.362949">
        <ele>477.327431</ele>
        <time>2026-04-26T18:52:13.916Z</time>
      </trkpt>
      <trkpt lat="48.940437" lon="10.363046">
        <ele>477.327431</ele>
        <time>2026-04-26T18:52:19.613Z</time>
      </trkpt>
      <trkpt lat="48.940198" lon="10.363272">
        <ele>477.327431</ele>
        <time>2026-04-26T18:52:25.936Z</time>
      </trkpt>
      <trkpt lat="48.940056" lon="10.362994">
        <ele>477.327431</ele>
        <time>2026-04-26T18:52:30.938Z</time>
      </trkpt>
    </trkseg>
  </trk>
</gpx>